<?xml version="1.0" encoding="UTF-8" standalone="no" ?>
<gpx xmlns="http://www.topografix.com/GPX/1/1" xmlns:xsi="http://www.w3.org/2001/XMLSchema-instance" xsi:schemaLocation="http://www.topografix.com/GPX/1/1 http://www.topografix.com/GPX/1/1/gpx.xsd" version="1.1" creator="VisuGPX - https://www.visugpx.com">
  <metadata>
    <name>83-Me-Flayosc</name>
    <desc><![CDATA[83-Me-Flayosc : les Peylongs
2023-10-11]]></desc>
  </metadata>
  <trk>
    <name><![CDATA[2023-10-11-Me-Flayosc]]></name>
    <extensions>
      <line xmlns="http://www.topografix.com/GPX/gpx_style/0/2">
        <width>4</width>
      </line>
    </extensions>
    <trkseg>
      <trkpt lat="43.53453" lon="6.39918">
        <ele>307</ele>
        <time>2023-10-11T11:54:11.000Z</time>
      </trkpt>
      <trkpt lat="43.53453" lon="6.39918">
        <ele>307</ele>
        <time>2023-10-11T11:54:12.000Z</time>
      </trkpt>
      <trkpt lat="43.53453" lon="6.39918">
        <ele>307</ele>
        <time>2023-10-11T11:54:14.000Z</time>
      </trkpt>
      <trkpt lat="43.53454" lon="6.39916">
        <ele>307.1</ele>
        <time>2023-10-11T11:54:27.000Z</time>
      </trkpt>
      <trkpt lat="43.53453" lon="6.39916">
        <ele>307.1</ele>
        <time>2023-10-11T11:54:35.000Z</time>
      </trkpt>
      <trkpt lat="43.53453" lon="6.39915">
        <ele>307.1</ele>
        <time>2023-10-11T11:54:39.000Z</time>
      </trkpt>
      <trkpt lat="43.53452" lon="6.39915">
        <ele>307.1</ele>
        <time>2023-10-11T11:55:03.000Z</time>
      </trkpt>
      <trkpt lat="43.53452" lon="6.39915">
        <ele>307.1</ele>
        <time>2023-10-11T11:55:03.000Z</time>
      </trkpt>
      <trkpt lat="43.53452" lon="6.39915">
        <ele>307.1</ele>
        <time>2023-10-11T11:55:04.000Z</time>
      </trkpt>
      <trkpt lat="43.53453" lon="6.39916">
        <ele>307.1</ele>
        <time>2023-10-11T11:55:09.000Z</time>
      </trkpt>
      <trkpt lat="43.53453" lon="6.39915">
        <ele>307.1</ele>
        <time>2023-10-11T11:55:13.000Z</time>
      </trkpt>
      <trkpt lat="43.53453" lon="6.39915">
        <ele>307.1</ele>
        <time>2023-10-11T11:55:25.000Z</time>
      </trkpt>
      <trkpt lat="43.53453" lon="6.39915">
        <ele>307.1</ele>
        <time>2023-10-11T11:55:27.000Z</time>
      </trkpt>
      <trkpt lat="43.53453" lon="6.39915">
        <ele>307.1</ele>
        <time>2023-10-11T11:55:33.000Z</time>
      </trkpt>
      <trkpt lat="43.53453" lon="6.39915">
        <ele>307.1</ele>
        <time>2023-10-11T11:55:34.000Z</time>
      </trkpt>
      <trkpt lat="43.53453" lon="6.39915">
        <ele>307.1</ele>
        <time>2023-10-11T11:56:01.000Z</time>
      </trkpt>
      <trkpt lat="43.53453" lon="6.39916">
        <ele>307.1</ele>
        <time>2023-10-11T11:56:03.000Z</time>
      </trkpt>
      <trkpt lat="43.53453" lon="6.39916">
        <ele>307.1</ele>
        <time>2023-10-11T11:56:09.000Z</time>
      </trkpt>
      <trkpt lat="43.53453" lon="6.39915">
        <ele>307.1</ele>
        <time>2023-10-11T11:56:10.000Z</time>
      </trkpt>
      <trkpt lat="43.53453" lon="6.39915">
        <ele>307.1</ele>
        <time>2023-10-11T11:56:14.000Z</time>
      </trkpt>
      <trkpt lat="43.53453" lon="6.39915">
        <ele>307.1</ele>
        <time>2023-10-11T11:56:15.000Z</time>
      </trkpt>
      <trkpt lat="43.53453" lon="6.39915">
        <ele>307.1</ele>
        <time>2023-10-11T11:56:25.000Z</time>
      </trkpt>
      <trkpt lat="43.53453" lon="6.39915">
        <ele>307.1</ele>
        <time>2023-10-11T11:56:27.000Z</time>
      </trkpt>
      <trkpt lat="43.53453" lon="6.39915">
        <ele>307.1</ele>
        <time>2023-10-11T11:56:36.000Z</time>
      </trkpt>
      <trkpt lat="43.53453" lon="6.39915">
        <ele>307.2</ele>
        <time>2023-10-11T11:56:39.000Z</time>
      </trkpt>
      <trkpt lat="43.53453" lon="6.39915">
        <ele>307.2</ele>
        <time>2023-10-11T11:56:44.000Z</time>
      </trkpt>
      <trkpt lat="43.53454" lon="6.39915">
        <ele>307.2</ele>
        <time>2023-10-11T11:56:48.000Z</time>
      </trkpt>
      <trkpt lat="43.53454" lon="6.39915">
        <ele>307.2</ele>
        <time>2023-10-11T11:56:55.000Z</time>
      </trkpt>
      <trkpt lat="43.53454" lon="6.39915">
        <ele>307.2</ele>
        <time>2023-10-11T11:56:58.000Z</time>
      </trkpt>
      <trkpt lat="43.53454" lon="6.39915">
        <ele>307.2</ele>
        <time>2023-10-11T11:57:07.000Z</time>
      </trkpt>
      <trkpt lat="43.53455" lon="6.39915">
        <ele>307.2</ele>
        <time>2023-10-11T11:57:09.000Z</time>
      </trkpt>
      <trkpt lat="43.53455" lon="6.39915">
        <ele>307.2</ele>
        <time>2023-10-11T11:57:12.000Z</time>
      </trkpt>
      <trkpt lat="43.53455" lon="6.39915">
        <ele>307.2</ele>
        <time>2023-10-11T11:57:13.000Z</time>
      </trkpt>
      <trkpt lat="43.53455" lon="6.39915">
        <ele>307.2</ele>
        <time>2023-10-11T11:57:54.000Z</time>
      </trkpt>
      <trkpt lat="43.53455" lon="6.39915">
        <ele>307.2</ele>
        <time>2023-10-11T11:57:55.000Z</time>
      </trkpt>
      <trkpt lat="43.53455" lon="6.39915">
        <ele>307.2</ele>
        <time>2023-10-11T11:58:09.000Z</time>
      </trkpt>
      <trkpt lat="43.53455" lon="6.39915">
        <ele>307.2</ele>
        <time>2023-10-11T11:58:10.000Z</time>
      </trkpt>
      <trkpt lat="43.53455" lon="6.39916">
        <ele>307.2</ele>
        <time>2023-10-11T11:58:23.000Z</time>
      </trkpt>
      <trkpt lat="43.53456" lon="6.39916">
        <ele>307.2</ele>
        <time>2023-10-11T11:58:25.000Z</time>
      </trkpt>
      <trkpt lat="43.53455" lon="6.39917">
        <ele>307.2</ele>
        <time>2023-10-11T11:58:29.000Z</time>
      </trkpt>
      <trkpt lat="43.53455" lon="6.39917">
        <ele>307.2</ele>
        <time>2023-10-11T11:58:30.000Z</time>
      </trkpt>
      <trkpt lat="43.53455" lon="6.39917">
        <ele>307.2</ele>
        <time>2023-10-11T11:58:38.000Z</time>
      </trkpt>
      <trkpt lat="43.53452" lon="6.39916">
        <ele>307.2</ele>
        <time>2023-10-11T11:58:43.000Z</time>
      </trkpt>
      <trkpt lat="43.53452" lon="6.39916">
        <ele>307.2</ele>
        <time>2023-10-11T11:58:45.000Z</time>
      </trkpt>
      <trkpt lat="43.53452" lon="6.39916">
        <ele>307.2</ele>
        <time>2023-10-11T11:58:48.000Z</time>
      </trkpt>
      <trkpt lat="43.53452" lon="6.39916">
        <ele>307.2</ele>
        <time>2023-10-11T11:58:49.000Z</time>
      </trkpt>
      <trkpt lat="43.53453" lon="6.39916">
        <ele>307.2</ele>
        <time>2023-10-11T11:59:04.000Z</time>
      </trkpt>
      <trkpt lat="43.53452" lon="6.39915">
        <ele>307.2</ele>
        <time>2023-10-11T11:59:08.000Z</time>
      </trkpt>
      <trkpt lat="43.53452" lon="6.39915">
        <ele>307.2</ele>
        <time>2023-10-11T11:59:09.000Z</time>
      </trkpt>
      <trkpt lat="43.53452" lon="6.39915">
        <ele>307.2</ele>
        <time>2023-10-11T11:59:17.000Z</time>
      </trkpt>
      <trkpt lat="43.53452" lon="6.39914">
        <ele>307.2</ele>
        <time>2023-10-11T11:59:20.000Z</time>
      </trkpt>
      <trkpt lat="43.53452" lon="6.39914">
        <ele>307.3</ele>
        <time>2023-10-11T12:00:11.000Z</time>
      </trkpt>
      <trkpt lat="43.53452" lon="6.39914">
        <ele>307.3</ele>
        <time>2023-10-11T12:00:12.000Z</time>
      </trkpt>
      <trkpt lat="43.53452" lon="6.39914">
        <ele>307.3</ele>
        <time>2023-10-11T12:01:11.000Z</time>
      </trkpt>
      <trkpt lat="43.53453" lon="6.39914">
        <ele>307.3</ele>
        <time>2023-10-11T12:01:18.000Z</time>
      </trkpt>
      <trkpt lat="43.53452" lon="6.39914">
        <ele>307.3</ele>
        <time>2023-10-11T12:01:24.000Z</time>
      </trkpt>
      <trkpt lat="43.53447" lon="6.39925">
        <ele>307.3</ele>
        <time>2023-10-11T12:01:37.000Z</time>
      </trkpt>
      <trkpt lat="43.53445" lon="6.39937">
        <ele>307.4</ele>
        <time>2023-10-11T12:01:47.000Z</time>
      </trkpt>
      <trkpt lat="43.53435" lon="6.39937">
        <ele>307.5</ele>
        <time>2023-10-11T12:01:58.000Z</time>
      </trkpt>
      <trkpt lat="43.53426" lon="6.39939">
        <ele>307.8</ele>
        <time>2023-10-11T12:02:08.000Z</time>
      </trkpt>
      <trkpt lat="43.53417" lon="6.39933">
        <ele>308.1</ele>
        <time>2023-10-11T12:02:16.000Z</time>
      </trkpt>
      <trkpt lat="43.53409" lon="6.3993">
        <ele>308.6</ele>
        <time>2023-10-11T12:02:24.000Z</time>
      </trkpt>
      <trkpt lat="43.53398" lon="6.3993">
        <ele>309.3</ele>
        <time>2023-10-11T12:02:33.000Z</time>
      </trkpt>
      <trkpt lat="43.53389" lon="6.39929">
        <ele>310</ele>
        <time>2023-10-11T12:02:42.000Z</time>
      </trkpt>
      <trkpt lat="43.5338" lon="6.39929">
        <ele>310.5</ele>
        <time>2023-10-11T12:02:52.000Z</time>
      </trkpt>
      <trkpt lat="43.53371" lon="6.39926">
        <ele>311.1</ele>
        <time>2023-10-11T12:03:00.000Z</time>
      </trkpt>
      <trkpt lat="43.53362" lon="6.39933">
        <ele>311.6</ele>
        <time>2023-10-11T12:03:09.000Z</time>
      </trkpt>
      <trkpt lat="43.53353" lon="6.39932">
        <ele>312</ele>
        <time>2023-10-11T12:03:18.000Z</time>
      </trkpt>
      <trkpt lat="43.53345" lon="6.39924">
        <ele>312.6</ele>
        <time>2023-10-11T12:03:28.000Z</time>
      </trkpt>
      <trkpt lat="43.53337" lon="6.39916">
        <ele>313</ele>
        <time>2023-10-11T12:03:36.000Z</time>
      </trkpt>
      <trkpt lat="43.53328" lon="6.39914">
        <ele>313.5</ele>
        <time>2023-10-11T12:03:43.000Z</time>
      </trkpt>
      <trkpt lat="43.53321" lon="6.39907">
        <ele>314.2</ele>
        <time>2023-10-11T12:03:54.000Z</time>
      </trkpt>
      <trkpt lat="43.53315" lon="6.39898">
        <ele>314.7</ele>
        <time>2023-10-11T12:04:02.000Z</time>
      </trkpt>
      <trkpt lat="43.5331" lon="6.39886">
        <ele>315.3</ele>
        <time>2023-10-11T12:04:11.000Z</time>
      </trkpt>
      <trkpt lat="43.53309" lon="6.39873">
        <ele>315.8</ele>
        <time>2023-10-11T12:04:20.000Z</time>
      </trkpt>
      <trkpt lat="43.53313" lon="6.39861">
        <ele>316.3</ele>
        <time>2023-10-11T12:04:28.000Z</time>
      </trkpt>
      <trkpt lat="43.53317" lon="6.39848">
        <ele>316.7</ele>
        <time>2023-10-11T12:04:36.000Z</time>
      </trkpt>
      <trkpt lat="43.53316" lon="6.39835">
        <ele>317</ele>
        <time>2023-10-11T12:04:43.000Z</time>
      </trkpt>
      <trkpt lat="43.53316" lon="6.39821">
        <ele>317.4</ele>
        <time>2023-10-11T12:04:51.000Z</time>
      </trkpt>
      <trkpt lat="43.53313" lon="6.39808">
        <ele>317.9</ele>
        <time>2023-10-11T12:04:59.000Z</time>
      </trkpt>
      <trkpt lat="43.53313" lon="6.39795">
        <ele>318.2</ele>
        <time>2023-10-11T12:05:06.000Z</time>
      </trkpt>
      <trkpt lat="43.53309" lon="6.39783">
        <ele>318.6</ele>
        <time>2023-10-11T12:05:15.000Z</time>
      </trkpt>
      <trkpt lat="43.53311" lon="6.39771">
        <ele>319.3</ele>
        <time>2023-10-11T12:05:26.000Z</time>
      </trkpt>
      <trkpt lat="43.53312" lon="6.39757">
        <ele>319.9</ele>
        <time>2023-10-11T12:05:35.000Z</time>
      </trkpt>
      <trkpt lat="43.53317" lon="6.39747">
        <ele>320.2</ele>
        <time>2023-10-11T12:05:44.000Z</time>
      </trkpt>
      <trkpt lat="43.53323" lon="6.39736">
        <ele>320.5</ele>
        <time>2023-10-11T12:05:55.000Z</time>
      </trkpt>
      <trkpt lat="43.5333" lon="6.39728">
        <ele>320.8</ele>
        <time>2023-10-11T12:06:04.000Z</time>
      </trkpt>
      <trkpt lat="43.53337" lon="6.3972">
        <ele>321</ele>
        <time>2023-10-11T12:06:12.000Z</time>
      </trkpt>
      <trkpt lat="43.53343" lon="6.39709">
        <ele>321.4</ele>
        <time>2023-10-11T12:06:21.000Z</time>
      </trkpt>
      <trkpt lat="43.53352" lon="6.39701">
        <ele>321.8</ele>
        <time>2023-10-11T12:06:30.000Z</time>
      </trkpt>
      <trkpt lat="43.53359" lon="6.39694">
        <ele>322.2</ele>
        <time>2023-10-11T12:06:38.000Z</time>
      </trkpt>
      <trkpt lat="43.53367" lon="6.39686">
        <ele>322.6</ele>
        <time>2023-10-11T12:06:47.000Z</time>
      </trkpt>
      <trkpt lat="43.53374" lon="6.39678">
        <ele>323.1</ele>
        <time>2023-10-11T12:06:55.000Z</time>
      </trkpt>
      <trkpt lat="43.53383" lon="6.39671">
        <ele>323.5</ele>
        <time>2023-10-11T12:07:03.000Z</time>
      </trkpt>
      <trkpt lat="43.53388" lon="6.39661">
        <ele>323.8</ele>
        <time>2023-10-11T12:07:12.000Z</time>
      </trkpt>
      <trkpt lat="43.53393" lon="6.39651">
        <ele>324.1</ele>
        <time>2023-10-11T12:07:19.000Z</time>
      </trkpt>
      <trkpt lat="43.53396" lon="6.39639">
        <ele>324.4</ele>
        <time>2023-10-11T12:07:28.000Z</time>
      </trkpt>
      <trkpt lat="43.53402" lon="6.3963">
        <ele>324.8</ele>
        <time>2023-10-11T12:07:37.000Z</time>
      </trkpt>
      <trkpt lat="43.53405" lon="6.39617">
        <ele>324.9</ele>
        <time>2023-10-11T12:07:44.000Z</time>
      </trkpt>
      <trkpt lat="43.53405" lon="6.39604">
        <ele>325.1</ele>
        <time>2023-10-11T12:07:51.000Z</time>
      </trkpt>
      <trkpt lat="43.53414" lon="6.39597">
        <ele>325.4</ele>
        <time>2023-10-11T12:08:07.000Z</time>
      </trkpt>
      <trkpt lat="43.53422" lon="6.39589">
        <ele>325.6</ele>
        <time>2023-10-11T12:08:16.000Z</time>
      </trkpt>
      <trkpt lat="43.53429" lon="6.39581">
        <ele>326</ele>
        <time>2023-10-11T12:08:27.000Z</time>
      </trkpt>
      <trkpt lat="43.53435" lon="6.39571">
        <ele>326.5</ele>
        <time>2023-10-11T12:08:37.000Z</time>
      </trkpt>
      <trkpt lat="43.53436" lon="6.39559">
        <ele>327.1</ele>
        <time>2023-10-11T12:08:45.000Z</time>
      </trkpt>
      <trkpt lat="43.53436" lon="6.39546">
        <ele>327.5</ele>
        <time>2023-10-11T12:08:51.000Z</time>
      </trkpt>
      <trkpt lat="43.53438" lon="6.39534">
        <ele>328.2</ele>
        <time>2023-10-11T12:09:01.000Z</time>
      </trkpt>
      <trkpt lat="43.53445" lon="6.39526">
        <ele>328.6</ele>
        <time>2023-10-11T12:09:09.000Z</time>
      </trkpt>
      <trkpt lat="43.53448" lon="6.39514">
        <ele>329.1</ele>
        <time>2023-10-11T12:09:18.000Z</time>
      </trkpt>
      <trkpt lat="43.53447" lon="6.39502">
        <ele>329.6</ele>
        <time>2023-10-11T12:09:27.000Z</time>
      </trkpt>
      <trkpt lat="43.53458" lon="6.39497">
        <ele>329.9</ele>
        <time>2023-10-11T12:09:53.000Z</time>
      </trkpt>
      <trkpt lat="43.53465" lon="6.39496">
        <ele>329.7</ele>
        <time>2023-10-11T12:10:01.000Z</time>
      </trkpt>
      <trkpt lat="43.53465" lon="6.39495">
        <ele>329.7</ele>
        <time>2023-10-11T12:10:03.000Z</time>
      </trkpt>
      <trkpt lat="43.53465" lon="6.39495">
        <ele>329.7</ele>
        <time>2023-10-11T12:10:04.000Z</time>
      </trkpt>
      <trkpt lat="43.53465" lon="6.39495">
        <ele>329.6</ele>
        <time>2023-10-11T12:10:12.000Z</time>
      </trkpt>
      <trkpt lat="43.53465" lon="6.39495">
        <ele>329.6</ele>
        <time>2023-10-11T12:10:13.000Z</time>
      </trkpt>
      <trkpt lat="43.53465" lon="6.39495">
        <ele>329.5</ele>
        <time>2023-10-11T12:10:15.000Z</time>
      </trkpt>
      <trkpt lat="43.53465" lon="6.39495">
        <ele>329.5</ele>
        <time>2023-10-11T12:10:16.000Z</time>
      </trkpt>
      <trkpt lat="43.53465" lon="6.39494">
        <ele>329.5</ele>
        <time>2023-10-11T12:10:22.000Z</time>
      </trkpt>
      <trkpt lat="43.53466" lon="6.39493">
        <ele>329.5</ele>
        <time>2023-10-11T12:10:25.000Z</time>
      </trkpt>
      <trkpt lat="43.53466" lon="6.39493">
        <ele>329.5</ele>
        <time>2023-10-11T12:10:26.000Z</time>
      </trkpt>
      <trkpt lat="43.53466" lon="6.39493">
        <ele>329.5</ele>
        <time>2023-10-11T12:10:27.000Z</time>
      </trkpt>
      <trkpt lat="43.53466" lon="6.39493">
        <ele>329.5</ele>
        <time>2023-10-11T12:10:28.000Z</time>
      </trkpt>
      <trkpt lat="43.53466" lon="6.39492">
        <ele>329.5</ele>
        <time>2023-10-11T12:10:31.000Z</time>
      </trkpt>
      <trkpt lat="43.53466" lon="6.39492">
        <ele>329.5</ele>
        <time>2023-10-11T12:10:32.000Z</time>
      </trkpt>
      <trkpt lat="43.53466" lon="6.39492">
        <ele>329.5</ele>
        <time>2023-10-11T12:10:33.000Z</time>
      </trkpt>
      <trkpt lat="43.53466" lon="6.39492">
        <ele>329.5</ele>
        <time>2023-10-11T12:10:34.000Z</time>
      </trkpt>
      <trkpt lat="43.53466" lon="6.39492">
        <ele>329.5</ele>
        <time>2023-10-11T12:10:35.000Z</time>
      </trkpt>
      <trkpt lat="43.53466" lon="6.39492">
        <ele>329.5</ele>
        <time>2023-10-11T12:10:41.000Z</time>
      </trkpt>
      <trkpt lat="43.53467" lon="6.39498">
        <ele>329.5</ele>
        <time>2023-10-11T12:10:50.000Z</time>
      </trkpt>
      <trkpt lat="43.53467" lon="6.39497">
        <ele>329.5</ele>
        <time>2023-10-11T12:10:52.000Z</time>
      </trkpt>
      <trkpt lat="43.53467" lon="6.39497">
        <ele>329.5</ele>
        <time>2023-10-11T12:10:53.000Z</time>
      </trkpt>
      <trkpt lat="43.53467" lon="6.39497">
        <ele>329.5</ele>
        <time>2023-10-11T12:10:58.000Z</time>
      </trkpt>
      <trkpt lat="43.53467" lon="6.39498">
        <ele>329.5</ele>
        <time>2023-10-11T12:11:02.000Z</time>
      </trkpt>
      <trkpt lat="43.53467" lon="6.39498">
        <ele>329.5</ele>
        <time>2023-10-11T12:11:03.000Z</time>
      </trkpt>
      <trkpt lat="43.53467" lon="6.39498">
        <ele>329.5</ele>
        <time>2023-10-11T12:11:05.000Z</time>
      </trkpt>
      <trkpt lat="43.53466" lon="6.39498">
        <ele>329.5</ele>
        <time>2023-10-11T12:11:16.000Z</time>
      </trkpt>
      <trkpt lat="43.53467" lon="6.39499">
        <ele>329.5</ele>
        <time>2023-10-11T12:11:19.000Z</time>
      </trkpt>
      <trkpt lat="43.53467" lon="6.39499">
        <ele>329.5</ele>
        <time>2023-10-11T12:11:20.000Z</time>
      </trkpt>
      <trkpt lat="43.53467" lon="6.39499">
        <ele>329.5</ele>
        <time>2023-10-11T12:11:21.000Z</time>
      </trkpt>
      <trkpt lat="43.53467" lon="6.39499">
        <ele>329.5</ele>
        <time>2023-10-11T12:11:28.000Z</time>
      </trkpt>
      <trkpt lat="43.53467" lon="6.39499">
        <ele>329.5</ele>
        <time>2023-10-11T12:11:29.000Z</time>
      </trkpt>
      <trkpt lat="43.53467" lon="6.39499">
        <ele>329.5</ele>
        <time>2023-10-11T12:11:30.000Z</time>
      </trkpt>
      <trkpt lat="43.53467" lon="6.39499">
        <ele>329.5</ele>
        <time>2023-10-11T12:11:31.000Z</time>
      </trkpt>
      <trkpt lat="43.53467" lon="6.39499">
        <ele>329.5</ele>
        <time>2023-10-11T12:11:34.000Z</time>
      </trkpt>
      <trkpt lat="43.53467" lon="6.39499">
        <ele>329.5</ele>
        <time>2023-10-11T12:11:35.000Z</time>
      </trkpt>
      <trkpt lat="43.53467" lon="6.39499">
        <ele>329.5</ele>
        <time>2023-10-11T12:11:40.000Z</time>
      </trkpt>
      <trkpt lat="43.53467" lon="6.39499">
        <ele>329.5</ele>
        <time>2023-10-11T12:11:41.000Z</time>
      </trkpt>
      <trkpt lat="43.53468" lon="6.39499">
        <ele>329.5</ele>
        <time>2023-10-11T12:11:46.000Z</time>
      </trkpt>
      <trkpt lat="43.53468" lon="6.39499">
        <ele>329.5</ele>
        <time>2023-10-11T12:11:47.000Z</time>
      </trkpt>
      <trkpt lat="43.53467" lon="6.39499">
        <ele>329.5</ele>
        <time>2023-10-11T12:12:16.000Z</time>
      </trkpt>
      <trkpt lat="43.53467" lon="6.39499">
        <ele>329.5</ele>
        <time>2023-10-11T12:12:17.000Z</time>
      </trkpt>
      <trkpt lat="43.53468" lon="6.39499">
        <ele>329.5</ele>
        <time>2023-10-11T12:12:19.000Z</time>
      </trkpt>
      <trkpt lat="43.53468" lon="6.39499">
        <ele>329.5</ele>
        <time>2023-10-11T12:12:20.000Z</time>
      </trkpt>
      <trkpt lat="43.53468" lon="6.39499">
        <ele>329.5</ele>
        <time>2023-10-11T12:12:27.000Z</time>
      </trkpt>
      <trkpt lat="43.53468" lon="6.39499">
        <ele>329.5</ele>
        <time>2023-10-11T12:12:28.000Z</time>
      </trkpt>
      <trkpt lat="43.53468" lon="6.39499">
        <ele>329.5</ele>
        <time>2023-10-11T12:12:35.000Z</time>
      </trkpt>
      <trkpt lat="43.53478" lon="6.39494">
        <ele>329.5</ele>
        <time>2023-10-11T12:12:46.000Z</time>
      </trkpt>
      <trkpt lat="43.53484" lon="6.39485">
        <ele>329.3</ele>
        <time>2023-10-11T12:12:59.000Z</time>
      </trkpt>
      <trkpt lat="43.53493" lon="6.3949">
        <ele>328.6</ele>
        <time>2023-10-11T12:13:11.000Z</time>
      </trkpt>
      <trkpt lat="43.53495" lon="6.39491">
        <ele>328.2</ele>
        <time>2023-10-11T12:13:15.000Z</time>
      </trkpt>
      <trkpt lat="43.53496" lon="6.3949">
        <ele>327.9</ele>
        <time>2023-10-11T12:13:18.000Z</time>
      </trkpt>
      <trkpt lat="43.53496" lon="6.3949">
        <ele>327.8</ele>
        <time>2023-10-11T12:13:19.000Z</time>
      </trkpt>
      <trkpt lat="43.53496" lon="6.3949">
        <ele>327.1</ele>
        <time>2023-10-11T12:13:30.000Z</time>
      </trkpt>
      <trkpt lat="43.53496" lon="6.39491">
        <ele>327</ele>
        <time>2023-10-11T12:13:32.000Z</time>
      </trkpt>
      <trkpt lat="43.53496" lon="6.3949">
        <ele>326.9</ele>
        <time>2023-10-11T12:13:37.000Z</time>
      </trkpt>
      <trkpt lat="43.53496" lon="6.39491">
        <ele>326.9</ele>
        <time>2023-10-11T12:13:38.000Z</time>
      </trkpt>
      <trkpt lat="43.53496" lon="6.39491">
        <ele>326.9</ele>
        <time>2023-10-11T12:13:40.000Z</time>
      </trkpt>
      <trkpt lat="43.53495" lon="6.39489">
        <ele>326.8</ele>
        <time>2023-10-11T12:13:44.000Z</time>
      </trkpt>
      <trkpt lat="43.53495" lon="6.39489">
        <ele>326.7</ele>
        <time>2023-10-11T12:13:45.000Z</time>
      </trkpt>
      <trkpt lat="43.53494" lon="6.39489">
        <ele>326.7</ele>
        <time>2023-10-11T12:13:48.000Z</time>
      </trkpt>
      <trkpt lat="43.53493" lon="6.39489">
        <ele>326.8</ele>
        <time>2023-10-11T12:13:51.000Z</time>
      </trkpt>
      <trkpt lat="43.53484" lon="6.3949">
        <ele>326.9</ele>
        <time>2023-10-11T12:14:03.000Z</time>
      </trkpt>
      <trkpt lat="43.53488" lon="6.39478">
        <ele>327.7</ele>
        <time>2023-10-11T12:14:22.000Z</time>
      </trkpt>
      <trkpt lat="43.53495" lon="6.39468">
        <ele>327.8</ele>
        <time>2023-10-11T12:14:30.000Z</time>
      </trkpt>
      <trkpt lat="43.53501" lon="6.39457">
        <ele>327.6</ele>
        <time>2023-10-11T12:14:46.000Z</time>
      </trkpt>
      <trkpt lat="43.53507" lon="6.39447">
        <ele>327.4</ele>
        <time>2023-10-11T12:14:55.000Z</time>
      </trkpt>
      <trkpt lat="43.5351" lon="6.39435">
        <ele>327.2</ele>
        <time>2023-10-11T12:15:03.000Z</time>
      </trkpt>
      <trkpt lat="43.53515" lon="6.39424">
        <ele>327</ele>
        <time>2023-10-11T12:15:12.000Z</time>
      </trkpt>
      <trkpt lat="43.53514" lon="6.39411">
        <ele>326.7</ele>
        <time>2023-10-11T12:15:22.000Z</time>
      </trkpt>
      <trkpt lat="43.53518" lon="6.39398">
        <ele>326.1</ele>
        <time>2023-10-11T12:15:33.000Z</time>
      </trkpt>
      <trkpt lat="43.53524" lon="6.39387">
        <ele>325.3</ele>
        <time>2023-10-11T12:15:43.000Z</time>
      </trkpt>
      <trkpt lat="43.53526" lon="6.39373">
        <ele>324.3</ele>
        <time>2023-10-11T12:15:52.000Z</time>
      </trkpt>
      <trkpt lat="43.53533" lon="6.39362">
        <ele>323.3</ele>
        <time>2023-10-11T12:16:00.000Z</time>
      </trkpt>
      <trkpt lat="43.53541" lon="6.39354">
        <ele>322.6</ele>
        <time>2023-10-11T12:16:08.000Z</time>
      </trkpt>
      <trkpt lat="43.53548" lon="6.39346">
        <ele>322</ele>
        <time>2023-10-11T12:16:17.000Z</time>
      </trkpt>
      <trkpt lat="43.53557" lon="6.39338">
        <ele>321.7</ele>
        <time>2023-10-11T12:16:26.000Z</time>
      </trkpt>
      <trkpt lat="43.53567" lon="6.39331">
        <ele>321.6</ele>
        <time>2023-10-11T12:16:31.000Z</time>
      </trkpt>
      <trkpt lat="43.53571" lon="6.39329">
        <ele>321.5</ele>
        <time>2023-10-11T12:16:36.000Z</time>
      </trkpt>
      <trkpt lat="43.53572" lon="6.3933">
        <ele>321.5</ele>
        <time>2023-10-11T12:16:37.000Z</time>
      </trkpt>
      <trkpt lat="43.53581" lon="6.39326">
        <ele>321.4</ele>
        <time>2023-10-11T12:16:45.000Z</time>
      </trkpt>
      <trkpt lat="43.53591" lon="6.39322">
        <ele>321.2</ele>
        <time>2023-10-11T12:16:57.000Z</time>
      </trkpt>
      <trkpt lat="43.536" lon="6.39316">
        <ele>321.1</ele>
        <time>2023-10-11T12:17:07.000Z</time>
      </trkpt>
      <trkpt lat="43.53609" lon="6.3931">
        <ele>321.1</ele>
        <time>2023-10-11T12:17:14.000Z</time>
      </trkpt>
      <trkpt lat="43.53618" lon="6.39304">
        <ele>321.2</ele>
        <time>2023-10-11T12:17:23.000Z</time>
      </trkpt>
      <trkpt lat="43.53625" lon="6.39295">
        <ele>321.3</ele>
        <time>2023-10-11T12:17:29.000Z</time>
      </trkpt>
      <trkpt lat="43.53634" lon="6.39291">
        <ele>321.6</ele>
        <time>2023-10-11T12:17:42.000Z</time>
      </trkpt>
      <trkpt lat="43.53644" lon="6.39289">
        <ele>322.2</ele>
        <time>2023-10-11T12:17:56.000Z</time>
      </trkpt>
      <trkpt lat="43.53652" lon="6.3928">
        <ele>322.6</ele>
        <time>2023-10-11T12:18:03.000Z</time>
      </trkpt>
      <trkpt lat="43.53661" lon="6.39274">
        <ele>323.2</ele>
        <time>2023-10-11T12:18:09.000Z</time>
      </trkpt>
      <trkpt lat="43.5367" lon="6.39272">
        <ele>323.8</ele>
        <time>2023-10-11T12:18:18.000Z</time>
      </trkpt>
      <trkpt lat="43.53678" lon="6.39278">
        <ele>323.8</ele>
        <time>2023-10-11T12:18:25.000Z</time>
      </trkpt>
      <trkpt lat="43.53687" lon="6.39284">
        <ele>323.6</ele>
        <time>2023-10-11T12:18:33.000Z</time>
      </trkpt>
      <trkpt lat="43.53697" lon="6.39284">
        <ele>323.3</ele>
        <time>2023-10-11T12:18:42.000Z</time>
      </trkpt>
      <trkpt lat="43.53706" lon="6.39279">
        <ele>322.7</ele>
        <time>2023-10-11T12:18:51.000Z</time>
      </trkpt>
      <trkpt lat="43.53715" lon="6.39275">
        <ele>322</ele>
        <time>2023-10-11T12:18:57.000Z</time>
      </trkpt>
      <trkpt lat="43.53721" lon="6.39266">
        <ele>320.6</ele>
        <time>2023-10-11T12:19:06.000Z</time>
      </trkpt>
      <trkpt lat="43.53729" lon="6.39257">
        <ele>319.1</ele>
        <time>2023-10-11T12:19:14.000Z</time>
      </trkpt>
      <trkpt lat="43.53739" lon="6.39259">
        <ele>318</ele>
        <time>2023-10-11T12:19:24.000Z</time>
      </trkpt>
      <trkpt lat="43.53746" lon="6.39266">
        <ele>317.5</ele>
        <time>2023-10-11T12:19:32.000Z</time>
      </trkpt>
      <trkpt lat="43.53754" lon="6.39274">
        <ele>317.3</ele>
        <time>2023-10-11T12:19:40.000Z</time>
      </trkpt>
      <trkpt lat="43.53764" lon="6.39279">
        <ele>317.3</ele>
        <time>2023-10-11T12:19:48.000Z</time>
      </trkpt>
      <trkpt lat="43.53774" lon="6.39281">
        <ele>317.2</ele>
        <time>2023-10-11T12:19:58.000Z</time>
      </trkpt>
      <trkpt lat="43.53783" lon="6.39283">
        <ele>317.5</ele>
        <time>2023-10-11T12:20:08.000Z</time>
      </trkpt>
      <trkpt lat="43.53793" lon="6.39285">
        <ele>318</ele>
        <time>2023-10-11T12:20:18.000Z</time>
      </trkpt>
      <trkpt lat="43.53803" lon="6.39289">
        <ele>318.7</ele>
        <time>2023-10-11T12:20:27.000Z</time>
      </trkpt>
      <trkpt lat="43.53811" lon="6.39294">
        <ele>319.3</ele>
        <time>2023-10-11T12:20:34.000Z</time>
      </trkpt>
      <trkpt lat="43.5382" lon="6.39299">
        <ele>320.1</ele>
        <time>2023-10-11T12:20:44.000Z</time>
      </trkpt>
      <trkpt lat="43.53828" lon="6.39304">
        <ele>320.3</ele>
        <time>2023-10-11T12:20:52.000Z</time>
      </trkpt>
      <trkpt lat="43.53836" lon="6.39312">
        <ele>320.7</ele>
        <time>2023-10-11T12:21:02.000Z</time>
      </trkpt>
      <trkpt lat="43.53845" lon="6.39319">
        <ele>320.8</ele>
        <time>2023-10-11T12:21:08.000Z</time>
      </trkpt>
      <trkpt lat="43.53854" lon="6.39324">
        <ele>320.6</ele>
        <time>2023-10-11T12:21:16.000Z</time>
      </trkpt>
      <trkpt lat="43.53863" lon="6.3933">
        <ele>320.6</ele>
        <time>2023-10-11T12:21:25.000Z</time>
      </trkpt>
      <trkpt lat="43.53872" lon="6.39335">
        <ele>320.7</ele>
        <time>2023-10-11T12:21:34.000Z</time>
      </trkpt>
      <trkpt lat="43.53881" lon="6.39337">
        <ele>320.9</ele>
        <time>2023-10-11T12:21:43.000Z</time>
      </trkpt>
      <trkpt lat="43.53891" lon="6.39332">
        <ele>321.3</ele>
        <time>2023-10-11T12:21:53.000Z</time>
      </trkpt>
      <trkpt lat="43.53899" lon="6.39326">
        <ele>321.8</ele>
        <time>2023-10-11T12:22:02.000Z</time>
      </trkpt>
      <trkpt lat="43.53907" lon="6.39321">
        <ele>322.5</ele>
        <time>2023-10-11T12:22:11.000Z</time>
      </trkpt>
      <trkpt lat="43.53916" lon="6.39316">
        <ele>323.4</ele>
        <time>2023-10-11T12:22:20.000Z</time>
      </trkpt>
      <trkpt lat="43.53925" lon="6.39312">
        <ele>324.4</ele>
        <time>2023-10-11T12:22:30.000Z</time>
      </trkpt>
      <trkpt lat="43.53934" lon="6.39308">
        <ele>325.2</ele>
        <time>2023-10-11T12:22:38.000Z</time>
      </trkpt>
      <trkpt lat="43.53944" lon="6.39303">
        <ele>325.7</ele>
        <time>2023-10-11T12:22:46.000Z</time>
      </trkpt>
      <trkpt lat="43.53954" lon="6.39301">
        <ele>326</ele>
        <time>2023-10-11T12:22:54.000Z</time>
      </trkpt>
      <trkpt lat="43.53963" lon="6.39298">
        <ele>326.1</ele>
        <time>2023-10-11T12:23:03.000Z</time>
      </trkpt>
      <trkpt lat="43.53973" lon="6.393">
        <ele>326.2</ele>
        <time>2023-10-11T12:23:11.000Z</time>
      </trkpt>
      <trkpt lat="43.53982" lon="6.39302">
        <ele>326.3</ele>
        <time>2023-10-11T12:23:19.000Z</time>
      </trkpt>
      <trkpt lat="43.53992" lon="6.39298">
        <ele>326.7</ele>
        <time>2023-10-11T12:23:29.000Z</time>
      </trkpt>
      <trkpt lat="43.54001" lon="6.39293">
        <ele>327</ele>
        <time>2023-10-11T12:23:36.000Z</time>
      </trkpt>
      <trkpt lat="43.5401" lon="6.39287">
        <ele>327.3</ele>
        <time>2023-10-11T12:23:42.000Z</time>
      </trkpt>
      <trkpt lat="43.54014" lon="6.39275">
        <ele>327.9</ele>
        <time>2023-10-11T12:23:51.000Z</time>
      </trkpt>
      <trkpt lat="43.54023" lon="6.39271">
        <ele>328.2</ele>
        <time>2023-10-11T12:23:58.000Z</time>
      </trkpt>
      <trkpt lat="43.54032" lon="6.39265">
        <ele>328.5</ele>
        <time>2023-10-11T12:24:06.000Z</time>
      </trkpt>
      <trkpt lat="43.54041" lon="6.3926">
        <ele>328.8</ele>
        <time>2023-10-11T12:24:14.000Z</time>
      </trkpt>
      <trkpt lat="43.54049" lon="6.39252">
        <ele>329.2</ele>
        <time>2023-10-11T12:24:21.000Z</time>
      </trkpt>
      <trkpt lat="43.54054" lon="6.39241">
        <ele>329.7</ele>
        <time>2023-10-11T12:24:32.000Z</time>
      </trkpt>
      <trkpt lat="43.54064" lon="6.39237">
        <ele>329.9</ele>
        <time>2023-10-11T12:24:40.000Z</time>
      </trkpt>
      <trkpt lat="43.54074" lon="6.39236">
        <ele>329.8</ele>
        <time>2023-10-11T12:24:49.000Z</time>
      </trkpt>
      <trkpt lat="43.54084" lon="6.39238">
        <ele>329.6</ele>
        <time>2023-10-11T12:24:57.000Z</time>
      </trkpt>
      <trkpt lat="43.54093" lon="6.39237">
        <ele>329.3</ele>
        <time>2023-10-11T12:25:04.000Z</time>
      </trkpt>
      <trkpt lat="43.54102" lon="6.39236">
        <ele>328.8</ele>
        <time>2023-10-11T12:25:11.000Z</time>
      </trkpt>
      <trkpt lat="43.54111" lon="6.39235">
        <ele>328.2</ele>
        <time>2023-10-11T12:25:18.000Z</time>
      </trkpt>
      <trkpt lat="43.54121" lon="6.39235">
        <ele>327.6</ele>
        <time>2023-10-11T12:25:26.000Z</time>
      </trkpt>
      <trkpt lat="43.54131" lon="6.39239">
        <ele>327.2</ele>
        <time>2023-10-11T12:25:35.000Z</time>
      </trkpt>
      <trkpt lat="43.5414" lon="6.39239">
        <ele>326.9</ele>
        <time>2023-10-11T12:25:43.000Z</time>
      </trkpt>
      <trkpt lat="43.5415" lon="6.39241">
        <ele>326.9</ele>
        <time>2023-10-11T12:25:53.000Z</time>
      </trkpt>
      <trkpt lat="43.54159" lon="6.39242">
        <ele>326.8</ele>
        <time>2023-10-11T12:26:01.000Z</time>
      </trkpt>
      <trkpt lat="43.54168" lon="6.39245">
        <ele>326.8</ele>
        <time>2023-10-11T12:26:12.000Z</time>
      </trkpt>
      <trkpt lat="43.54178" lon="6.39242">
        <ele>326.9</ele>
        <time>2023-10-11T12:26:18.000Z</time>
      </trkpt>
      <trkpt lat="43.54187" lon="6.39236">
        <ele>327</ele>
        <time>2023-10-11T12:26:24.000Z</time>
      </trkpt>
      <trkpt lat="43.54194" lon="6.39228">
        <ele>327.3</ele>
        <time>2023-10-11T12:26:34.000Z</time>
      </trkpt>
      <trkpt lat="43.54204" lon="6.39223">
        <ele>327.7</ele>
        <time>2023-10-11T12:26:41.000Z</time>
      </trkpt>
      <trkpt lat="43.54213" lon="6.39218">
        <ele>328.4</ele>
        <time>2023-10-11T12:26:49.000Z</time>
      </trkpt>
      <trkpt lat="43.54221" lon="6.39219">
        <ele>328.9</ele>
        <time>2023-10-11T12:26:56.000Z</time>
      </trkpt>
      <trkpt lat="43.54221" lon="6.39219">
        <ele>329</ele>
        <time>2023-10-11T12:26:57.000Z</time>
      </trkpt>
      <trkpt lat="43.54231" lon="6.39221">
        <ele>330</ele>
        <time>2023-10-11T12:27:07.000Z</time>
      </trkpt>
      <trkpt lat="43.54237" lon="6.39221">
        <ele>330.9</ele>
        <time>2023-10-11T12:27:16.000Z</time>
      </trkpt>
      <trkpt lat="43.54237" lon="6.39221">
        <ele>331.2</ele>
        <time>2023-10-11T12:27:19.000Z</time>
      </trkpt>
      <trkpt lat="43.54247" lon="6.39223">
        <ele>332.3</ele>
        <time>2023-10-11T12:27:27.000Z</time>
      </trkpt>
      <trkpt lat="43.54256" lon="6.39219">
        <ele>333.6</ele>
        <time>2023-10-11T12:27:35.000Z</time>
      </trkpt>
      <trkpt lat="43.54265" lon="6.39218">
        <ele>334.8</ele>
        <time>2023-10-11T12:27:44.000Z</time>
      </trkpt>
      <trkpt lat="43.54275" lon="6.39217">
        <ele>335.6</ele>
        <time>2023-10-11T12:27:52.000Z</time>
      </trkpt>
      <trkpt lat="43.54285" lon="6.39216">
        <ele>336.3</ele>
        <time>2023-10-11T12:28:00.000Z</time>
      </trkpt>
      <trkpt lat="43.54294" lon="6.39216">
        <ele>337.2</ele>
        <time>2023-10-11T12:28:10.000Z</time>
      </trkpt>
      <trkpt lat="43.54304" lon="6.39211">
        <ele>337.9</ele>
        <time>2023-10-11T12:28:17.000Z</time>
      </trkpt>
      <trkpt lat="43.54312" lon="6.39204">
        <ele>338.6</ele>
        <time>2023-10-11T12:28:25.000Z</time>
      </trkpt>
      <trkpt lat="43.54318" lon="6.39195">
        <ele>339.3</ele>
        <time>2023-10-11T12:28:33.000Z</time>
      </trkpt>
      <trkpt lat="43.54326" lon="6.39186">
        <ele>339.7</ele>
        <time>2023-10-11T12:28:41.000Z</time>
      </trkpt>
      <trkpt lat="43.54334" lon="6.39179">
        <ele>340.3</ele>
        <time>2023-10-11T12:28:49.000Z</time>
      </trkpt>
      <trkpt lat="43.54339" lon="6.39169">
        <ele>340.9</ele>
        <time>2023-10-11T12:28:56.000Z</time>
      </trkpt>
      <trkpt lat="43.54344" lon="6.39157">
        <ele>341.7</ele>
        <time>2023-10-11T12:29:05.000Z</time>
      </trkpt>
      <trkpt lat="43.5435" lon="6.39146">
        <ele>342.6</ele>
        <time>2023-10-11T12:29:14.000Z</time>
      </trkpt>
      <trkpt lat="43.54356" lon="6.39136">
        <ele>343.3</ele>
        <time>2023-10-11T12:29:23.000Z</time>
      </trkpt>
      <trkpt lat="43.54363" lon="6.39127">
        <ele>343.7</ele>
        <time>2023-10-11T12:29:31.000Z</time>
      </trkpt>
      <trkpt lat="43.54368" lon="6.39116">
        <ele>344.2</ele>
        <time>2023-10-11T12:29:39.000Z</time>
      </trkpt>
      <trkpt lat="43.54374" lon="6.39105">
        <ele>345.2</ele>
        <time>2023-10-11T12:29:50.000Z</time>
      </trkpt>
      <trkpt lat="43.54374" lon="6.39102">
        <ele>345.8</ele>
        <time>2023-10-11T12:29:59.000Z</time>
      </trkpt>
      <trkpt lat="43.54374" lon="6.39103">
        <ele>346</ele>
        <time>2023-10-11T12:30:04.000Z</time>
      </trkpt>
      <trkpt lat="43.54374" lon="6.39103">
        <ele>346.1</ele>
        <time>2023-10-11T12:30:06.000Z</time>
      </trkpt>
      <trkpt lat="43.54374" lon="6.39103">
        <ele>346.1</ele>
        <time>2023-10-11T12:30:09.000Z</time>
      </trkpt>
      <trkpt lat="43.54375" lon="6.39099">
        <ele>346.4</ele>
        <time>2023-10-11T12:30:16.000Z</time>
      </trkpt>
      <trkpt lat="43.54375" lon="6.39099">
        <ele>346.4</ele>
        <time>2023-10-11T12:30:17.000Z</time>
      </trkpt>
      <trkpt lat="43.54375" lon="6.39099">
        <ele>346.4</ele>
        <time>2023-10-11T12:30:18.000Z</time>
      </trkpt>
      <trkpt lat="43.54376" lon="6.39099">
        <ele>346.5</ele>
        <time>2023-10-11T12:30:19.000Z</time>
      </trkpt>
      <trkpt lat="43.54376" lon="6.39099">
        <ele>346.5</ele>
        <time>2023-10-11T12:30:20.000Z</time>
      </trkpt>
      <trkpt lat="43.54375" lon="6.39098">
        <ele>346.7</ele>
        <time>2023-10-11T12:30:34.000Z</time>
      </trkpt>
      <trkpt lat="43.54375" lon="6.39098">
        <ele>346.7</ele>
        <time>2023-10-11T12:30:37.000Z</time>
      </trkpt>
      <trkpt lat="43.54375" lon="6.39099">
        <ele>346.7</ele>
        <time>2023-10-11T12:30:45.000Z</time>
      </trkpt>
      <trkpt lat="43.54376" lon="6.39099">
        <ele>346.7</ele>
        <time>2023-10-11T12:30:50.000Z</time>
      </trkpt>
      <trkpt lat="43.54376" lon="6.39099">
        <ele>346.7</ele>
        <time>2023-10-11T12:30:51.000Z</time>
      </trkpt>
      <trkpt lat="43.54376" lon="6.39097">
        <ele>346.8</ele>
        <time>2023-10-11T12:31:08.000Z</time>
      </trkpt>
      <trkpt lat="43.54375" lon="6.39097">
        <ele>346.8</ele>
        <time>2023-10-11T12:31:10.000Z</time>
      </trkpt>
      <trkpt lat="43.54374" lon="6.39098">
        <ele>346.8</ele>
        <time>2023-10-11T12:31:16.000Z</time>
      </trkpt>
      <trkpt lat="43.54373" lon="6.39099">
        <ele>346.8</ele>
        <time>2023-10-11T12:31:17.000Z</time>
      </trkpt>
      <trkpt lat="43.54371" lon="6.39105">
        <ele>346.6</ele>
        <time>2023-10-11T12:31:30.000Z</time>
      </trkpt>
      <trkpt lat="43.54371" lon="6.39105">
        <ele>346.6</ele>
        <time>2023-10-11T12:31:31.000Z</time>
      </trkpt>
      <trkpt lat="43.5437" lon="6.39107">
        <ele>346.7</ele>
        <time>2023-10-11T12:31:36.000Z</time>
      </trkpt>
      <trkpt lat="43.5437" lon="6.39107">
        <ele>346.7</ele>
        <time>2023-10-11T12:31:39.000Z</time>
      </trkpt>
      <trkpt lat="43.5437" lon="6.39104">
        <ele>346.7</ele>
        <time>2023-10-11T12:31:47.000Z</time>
      </trkpt>
      <trkpt lat="43.5437" lon="6.39104">
        <ele>346.7</ele>
        <time>2023-10-11T12:31:48.000Z</time>
      </trkpt>
      <trkpt lat="43.5437" lon="6.39104">
        <ele>346.7</ele>
        <time>2023-10-11T12:31:49.000Z</time>
      </trkpt>
      <trkpt lat="43.5437" lon="6.39104">
        <ele>346.7</ele>
        <time>2023-10-11T12:31:52.000Z</time>
      </trkpt>
      <trkpt lat="43.54375" lon="6.391">
        <ele>346.7</ele>
        <time>2023-10-11T12:32:02.000Z</time>
      </trkpt>
      <trkpt lat="43.54375" lon="6.391">
        <ele>346.7</ele>
        <time>2023-10-11T12:32:03.000Z</time>
      </trkpt>
      <trkpt lat="43.54375" lon="6.39099">
        <ele>346.7</ele>
        <time>2023-10-11T12:32:08.000Z</time>
      </trkpt>
      <trkpt lat="43.54374" lon="6.39099">
        <ele>346.7</ele>
        <time>2023-10-11T12:32:09.000Z</time>
      </trkpt>
      <trkpt lat="43.54375" lon="6.39099">
        <ele>346.7</ele>
        <time>2023-10-11T12:32:11.000Z</time>
      </trkpt>
      <trkpt lat="43.54375" lon="6.39099">
        <ele>346.7</ele>
        <time>2023-10-11T12:32:12.000Z</time>
      </trkpt>
      <trkpt lat="43.54375" lon="6.39099">
        <ele>346.7</ele>
        <time>2023-10-11T12:32:13.000Z</time>
      </trkpt>
      <trkpt lat="43.54376" lon="6.39099">
        <ele>346.7</ele>
        <time>2023-10-11T12:32:20.000Z</time>
      </trkpt>
      <trkpt lat="43.54385" lon="6.391">
        <ele>346.6</ele>
        <time>2023-10-11T12:32:35.000Z</time>
      </trkpt>
      <trkpt lat="43.54395" lon="6.39103">
        <ele>346.5</ele>
        <time>2023-10-11T12:32:44.000Z</time>
      </trkpt>
      <trkpt lat="43.54404" lon="6.39102">
        <ele>346.3</ele>
        <time>2023-10-11T12:32:53.000Z</time>
      </trkpt>
      <trkpt lat="43.54413" lon="6.39102">
        <ele>345.9</ele>
        <time>2023-10-11T12:33:01.000Z</time>
      </trkpt>
      <trkpt lat="43.54423" lon="6.39102">
        <ele>345.3</ele>
        <time>2023-10-11T12:33:08.000Z</time>
      </trkpt>
      <trkpt lat="43.54432" lon="6.39101">
        <ele>344.6</ele>
        <time>2023-10-11T12:33:16.000Z</time>
      </trkpt>
      <trkpt lat="43.54442" lon="6.39099">
        <ele>344</ele>
        <time>2023-10-11T12:33:23.000Z</time>
      </trkpt>
      <trkpt lat="43.5445" lon="6.39092">
        <ele>343.4</ele>
        <time>2023-10-11T12:33:33.000Z</time>
      </trkpt>
      <trkpt lat="43.5446" lon="6.39091">
        <ele>343.1</ele>
        <time>2023-10-11T12:33:42.000Z</time>
      </trkpt>
      <trkpt lat="43.54469" lon="6.39093">
        <ele>342.8</ele>
        <time>2023-10-11T12:33:50.000Z</time>
      </trkpt>
      <trkpt lat="43.54477" lon="6.391">
        <ele>342.5</ele>
        <time>2023-10-11T12:33:58.000Z</time>
      </trkpt>
      <trkpt lat="43.54485" lon="6.39109">
        <ele>342.3</ele>
        <time>2023-10-11T12:34:07.000Z</time>
      </trkpt>
      <trkpt lat="43.54493" lon="6.39116">
        <ele>342.2</ele>
        <time>2023-10-11T12:34:16.000Z</time>
      </trkpt>
      <trkpt lat="43.545" lon="6.39124">
        <ele>342.1</ele>
        <time>2023-10-11T12:34:25.000Z</time>
      </trkpt>
      <trkpt lat="43.54509" lon="6.3913">
        <ele>342.1</ele>
        <time>2023-10-11T12:34:32.000Z</time>
      </trkpt>
      <trkpt lat="43.54518" lon="6.39134">
        <ele>342.1</ele>
        <time>2023-10-11T12:34:40.000Z</time>
      </trkpt>
      <trkpt lat="43.54528" lon="6.39136">
        <ele>342.3</ele>
        <time>2023-10-11T12:34:47.000Z</time>
      </trkpt>
      <trkpt lat="43.54537" lon="6.39139">
        <ele>342.7</ele>
        <time>2023-10-11T12:34:56.000Z</time>
      </trkpt>
      <trkpt lat="43.54546" lon="6.3914">
        <ele>343.4</ele>
        <time>2023-10-11T12:35:06.000Z</time>
      </trkpt>
      <trkpt lat="43.54555" lon="6.3914">
        <ele>344.7</ele>
        <time>2023-10-11T12:35:16.000Z</time>
      </trkpt>
      <trkpt lat="43.54563" lon="6.39132">
        <ele>345.4</ele>
        <time>2023-10-11T12:35:22.000Z</time>
      </trkpt>
      <trkpt lat="43.54571" lon="6.39128">
        <ele>346.1</ele>
        <time>2023-10-11T12:35:30.000Z</time>
      </trkpt>
      <trkpt lat="43.54581" lon="6.39124">
        <ele>346.5</ele>
        <time>2023-10-11T12:35:37.000Z</time>
      </trkpt>
      <trkpt lat="43.5459" lon="6.3912">
        <ele>346.7</ele>
        <time>2023-10-11T12:35:43.000Z</time>
      </trkpt>
      <trkpt lat="43.54598" lon="6.39114">
        <ele>347</ele>
        <time>2023-10-11T12:35:52.000Z</time>
      </trkpt>
      <trkpt lat="43.54607" lon="6.39108">
        <ele>347.4</ele>
        <time>2023-10-11T12:36:02.000Z</time>
      </trkpt>
      <trkpt lat="43.54615" lon="6.39102">
        <ele>347.9</ele>
        <time>2023-10-11T12:36:11.000Z</time>
      </trkpt>
      <trkpt lat="43.54625" lon="6.39095">
        <ele>348.1</ele>
        <time>2023-10-11T12:36:19.000Z</time>
      </trkpt>
      <trkpt lat="43.54632" lon="6.39088">
        <ele>348.4</ele>
        <time>2023-10-11T12:36:29.000Z</time>
      </trkpt>
      <trkpt lat="43.5464" lon="6.39082">
        <ele>348.5</ele>
        <time>2023-10-11T12:36:37.000Z</time>
      </trkpt>
      <trkpt lat="43.54648" lon="6.39074">
        <ele>348.7</ele>
        <time>2023-10-11T12:36:45.000Z</time>
      </trkpt>
      <trkpt lat="43.54653" lon="6.39062">
        <ele>348.8</ele>
        <time>2023-10-11T12:36:54.000Z</time>
      </trkpt>
      <trkpt lat="43.54659" lon="6.39053">
        <ele>348.8</ele>
        <time>2023-10-11T12:37:01.000Z</time>
      </trkpt>
      <trkpt lat="43.54664" lon="6.39042">
        <ele>348.8</ele>
        <time>2023-10-11T12:37:07.000Z</time>
      </trkpt>
      <trkpt lat="43.54669" lon="6.39032">
        <ele>348.7</ele>
        <time>2023-10-11T12:37:14.000Z</time>
      </trkpt>
      <trkpt lat="43.54676" lon="6.39022">
        <ele>348.6</ele>
        <time>2023-10-11T12:37:23.000Z</time>
      </trkpt>
      <trkpt lat="43.54682" lon="6.39013">
        <ele>348.5</ele>
        <time>2023-10-11T12:37:31.000Z</time>
      </trkpt>
      <trkpt lat="43.54688" lon="6.39001">
        <ele>348.7</ele>
        <time>2023-10-11T12:37:40.000Z</time>
      </trkpt>
      <trkpt lat="43.54694" lon="6.38992">
        <ele>348.8</ele>
        <time>2023-10-11T12:37:48.000Z</time>
      </trkpt>
      <trkpt lat="43.547" lon="6.38982">
        <ele>348.9</ele>
        <time>2023-10-11T12:37:55.000Z</time>
      </trkpt>
      <trkpt lat="43.54706" lon="6.38971">
        <ele>349.1</ele>
        <time>2023-10-11T12:38:04.000Z</time>
      </trkpt>
      <trkpt lat="43.54712" lon="6.3896">
        <ele>349.4</ele>
        <time>2023-10-11T12:38:11.000Z</time>
      </trkpt>
      <trkpt lat="43.54718" lon="6.3895">
        <ele>349.7</ele>
        <time>2023-10-11T12:38:19.000Z</time>
      </trkpt>
      <trkpt lat="43.54725" lon="6.38942">
        <ele>350</ele>
        <time>2023-10-11T12:38:26.000Z</time>
      </trkpt>
      <trkpt lat="43.54733" lon="6.38933">
        <ele>350.6</ele>
        <time>2023-10-11T12:38:35.000Z</time>
      </trkpt>
      <trkpt lat="43.54738" lon="6.38921">
        <ele>351.1</ele>
        <time>2023-10-11T12:38:44.000Z</time>
      </trkpt>
      <trkpt lat="43.54742" lon="6.38909">
        <ele>351.9</ele>
        <time>2023-10-11T12:38:53.000Z</time>
      </trkpt>
      <trkpt lat="43.54746" lon="6.38898">
        <ele>352.7</ele>
        <time>2023-10-11T12:39:01.000Z</time>
      </trkpt>
      <trkpt lat="43.54753" lon="6.38888">
        <ele>353.5</ele>
        <time>2023-10-11T12:39:10.000Z</time>
      </trkpt>
      <trkpt lat="43.54759" lon="6.38878">
        <ele>354.3</ele>
        <time>2023-10-11T12:39:18.000Z</time>
      </trkpt>
      <trkpt lat="43.54765" lon="6.38868">
        <ele>355.2</ele>
        <time>2023-10-11T12:39:27.000Z</time>
      </trkpt>
      <trkpt lat="43.54772" lon="6.38857">
        <ele>356.1</ele>
        <time>2023-10-11T12:39:35.000Z</time>
      </trkpt>
      <trkpt lat="43.54776" lon="6.38845">
        <ele>357.1</ele>
        <time>2023-10-11T12:39:43.000Z</time>
      </trkpt>
      <trkpt lat="43.54781" lon="6.38835">
        <ele>357.7</ele>
        <time>2023-10-11T12:39:50.000Z</time>
      </trkpt>
      <trkpt lat="43.54787" lon="6.38824">
        <ele>358.3</ele>
        <time>2023-10-11T12:39:58.000Z</time>
      </trkpt>
      <trkpt lat="43.54794" lon="6.38814">
        <ele>358.8</ele>
        <time>2023-10-11T12:40:07.000Z</time>
      </trkpt>
      <trkpt lat="43.548" lon="6.38804">
        <ele>359.1</ele>
        <time>2023-10-11T12:40:15.000Z</time>
      </trkpt>
      <trkpt lat="43.54807" lon="6.38795">
        <ele>359.2</ele>
        <time>2023-10-11T12:40:22.000Z</time>
      </trkpt>
      <trkpt lat="43.54815" lon="6.38786">
        <ele>359.2</ele>
        <time>2023-10-11T12:40:30.000Z</time>
      </trkpt>
      <trkpt lat="43.54822" lon="6.3878">
        <ele>359.3</ele>
        <time>2023-10-11T12:40:39.000Z</time>
      </trkpt>
      <trkpt lat="43.54832" lon="6.38779">
        <ele>359.2</ele>
        <time>2023-10-11T12:40:50.000Z</time>
      </trkpt>
      <trkpt lat="43.5484" lon="6.38786">
        <ele>359.2</ele>
        <time>2023-10-11T12:41:00.000Z</time>
      </trkpt>
      <trkpt lat="43.54848" lon="6.38792">
        <ele>359.2</ele>
        <time>2023-10-11T12:41:08.000Z</time>
      </trkpt>
      <trkpt lat="43.54858" lon="6.38788">
        <ele>359.3</ele>
        <time>2023-10-11T12:41:19.000Z</time>
      </trkpt>
      <trkpt lat="43.54863" lon="6.38777">
        <ele>359.6</ele>
        <time>2023-10-11T12:41:27.000Z</time>
      </trkpt>
      <trkpt lat="43.54868" lon="6.38765">
        <ele>360.1</ele>
        <time>2023-10-11T12:41:36.000Z</time>
      </trkpt>
      <trkpt lat="43.54876" lon="6.38755">
        <ele>360.4</ele>
        <time>2023-10-11T12:41:41.000Z</time>
      </trkpt>
      <trkpt lat="43.54882" lon="6.38745">
        <ele>361.7</ele>
        <time>2023-10-11T12:41:48.000Z</time>
      </trkpt>
      <trkpt lat="43.54886" lon="6.38733">
        <ele>362.7</ele>
        <time>2023-10-11T12:41:56.000Z</time>
      </trkpt>
      <trkpt lat="43.54893" lon="6.38724">
        <ele>363.6</ele>
        <time>2023-10-11T12:42:04.000Z</time>
      </trkpt>
      <trkpt lat="43.54901" lon="6.38718">
        <ele>364.6</ele>
        <time>2023-10-11T12:42:14.000Z</time>
      </trkpt>
      <trkpt lat="43.5491" lon="6.38719">
        <ele>366</ele>
        <time>2023-10-11T12:42:27.000Z</time>
      </trkpt>
      <trkpt lat="43.54919" lon="6.38714">
        <ele>366.5</ele>
        <time>2023-10-11T12:42:33.000Z</time>
      </trkpt>
      <trkpt lat="43.54927" lon="6.38706">
        <ele>367.3</ele>
        <time>2023-10-11T12:42:40.000Z</time>
      </trkpt>
      <trkpt lat="43.54935" lon="6.38697">
        <ele>368</ele>
        <time>2023-10-11T12:42:46.000Z</time>
      </trkpt>
      <trkpt lat="43.5494" lon="6.38686">
        <ele>369.4</ele>
        <time>2023-10-11T12:42:54.000Z</time>
      </trkpt>
      <trkpt lat="43.54945" lon="6.38675">
        <ele>370.9</ele>
        <time>2023-10-11T12:43:06.000Z</time>
      </trkpt>
      <trkpt lat="43.54954" lon="6.3867">
        <ele>372.1</ele>
        <time>2023-10-11T12:43:15.000Z</time>
      </trkpt>
      <trkpt lat="43.54963" lon="6.38668">
        <ele>372.9</ele>
        <time>2023-10-11T12:43:24.000Z</time>
      </trkpt>
      <trkpt lat="43.54972" lon="6.38668">
        <ele>373.3</ele>
        <time>2023-10-11T12:43:31.000Z</time>
      </trkpt>
      <trkpt lat="43.54981" lon="6.38665">
        <ele>373.6</ele>
        <time>2023-10-11T12:43:42.000Z</time>
      </trkpt>
      <trkpt lat="43.54991" lon="6.38667">
        <ele>374</ele>
        <time>2023-10-11T12:43:50.000Z</time>
      </trkpt>
      <trkpt lat="43.55" lon="6.38668">
        <ele>374.5</ele>
        <time>2023-10-11T12:43:59.000Z</time>
      </trkpt>
      <trkpt lat="43.55006" lon="6.38666">
        <ele>375</ele>
        <time>2023-10-11T12:44:05.000Z</time>
      </trkpt>
      <trkpt lat="43.55006" lon="6.38666">
        <ele>375.4</ele>
        <time>2023-10-11T12:44:11.000Z</time>
      </trkpt>
      <trkpt lat="43.55015" lon="6.38668">
        <ele>376.1</ele>
        <time>2023-10-11T12:44:23.000Z</time>
      </trkpt>
      <trkpt lat="43.55024" lon="6.38672">
        <ele>376.7</ele>
        <time>2023-10-11T12:44:33.000Z</time>
      </trkpt>
      <trkpt lat="43.55034" lon="6.38669">
        <ele>377</ele>
        <time>2023-10-11T12:44:41.000Z</time>
      </trkpt>
      <trkpt lat="43.55042" lon="6.38662">
        <ele>377.7</ele>
        <time>2023-10-11T12:44:48.000Z</time>
      </trkpt>
      <trkpt lat="43.5505" lon="6.38655">
        <ele>378.1</ele>
        <time>2023-10-11T12:44:56.000Z</time>
      </trkpt>
      <trkpt lat="43.5506" lon="6.38649">
        <ele>378.3</ele>
        <time>2023-10-11T12:45:03.000Z</time>
      </trkpt>
      <trkpt lat="43.55067" lon="6.38641">
        <ele>378.3</ele>
        <time>2023-10-11T12:45:10.000Z</time>
      </trkpt>
      <trkpt lat="43.55069" lon="6.38633">
        <ele>378.6</ele>
        <time>2023-10-11T12:45:28.000Z</time>
      </trkpt>
      <trkpt lat="43.55069" lon="6.38634">
        <ele>378.6</ele>
        <time>2023-10-11T12:45:43.000Z</time>
      </trkpt>
      <trkpt lat="43.55067" lon="6.38636">
        <ele>378.6</ele>
        <time>2023-10-11T12:45:49.000Z</time>
      </trkpt>
      <trkpt lat="43.55067" lon="6.38636">
        <ele>378.6</ele>
        <time>2023-10-11T12:45:53.000Z</time>
      </trkpt>
      <trkpt lat="43.55066" lon="6.38635">
        <ele>378.6</ele>
        <time>2023-10-11T12:45:55.000Z</time>
      </trkpt>
      <trkpt lat="43.55066" lon="6.38636">
        <ele>378.6</ele>
        <time>2023-10-11T12:46:02.000Z</time>
      </trkpt>
      <trkpt lat="43.55066" lon="6.38636">
        <ele>378.6</ele>
        <time>2023-10-11T12:46:03.000Z</time>
      </trkpt>
      <trkpt lat="43.55066" lon="6.38636">
        <ele>378.6</ele>
        <time>2023-10-11T12:46:04.000Z</time>
      </trkpt>
      <trkpt lat="43.55066" lon="6.38636">
        <ele>378.6</ele>
        <time>2023-10-11T12:46:06.000Z</time>
      </trkpt>
      <trkpt lat="43.55066" lon="6.38636">
        <ele>378.6</ele>
        <time>2023-10-11T12:46:09.000Z</time>
      </trkpt>
      <trkpt lat="43.55066" lon="6.38636">
        <ele>378.5</ele>
        <time>2023-10-11T12:46:12.000Z</time>
      </trkpt>
      <trkpt lat="43.55067" lon="6.38635">
        <ele>378.5</ele>
        <time>2023-10-11T12:46:17.000Z</time>
      </trkpt>
      <trkpt lat="43.55067" lon="6.38635">
        <ele>378.5</ele>
        <time>2023-10-11T12:46:19.000Z</time>
      </trkpt>
      <trkpt lat="43.55066" lon="6.38635">
        <ele>378.5</ele>
        <time>2023-10-11T12:46:25.000Z</time>
      </trkpt>
      <trkpt lat="43.55066" lon="6.38635">
        <ele>378.5</ele>
        <time>2023-10-11T12:46:26.000Z</time>
      </trkpt>
      <trkpt lat="43.55066" lon="6.38635">
        <ele>378.5</ele>
        <time>2023-10-11T12:46:31.000Z</time>
      </trkpt>
      <trkpt lat="43.55066" lon="6.38635">
        <ele>378.5</ele>
        <time>2023-10-11T12:46:32.000Z</time>
      </trkpt>
      <trkpt lat="43.55066" lon="6.38635">
        <ele>378.5</ele>
        <time>2023-10-11T12:46:33.000Z</time>
      </trkpt>
      <trkpt lat="43.55066" lon="6.38634">
        <ele>378.5</ele>
        <time>2023-10-11T12:46:34.000Z</time>
      </trkpt>
      <trkpt lat="43.55066" lon="6.38634">
        <ele>378.5</ele>
        <time>2023-10-11T12:46:57.000Z</time>
      </trkpt>
      <trkpt lat="43.55066" lon="6.38634">
        <ele>378.5</ele>
        <time>2023-10-11T12:46:58.000Z</time>
      </trkpt>
      <trkpt lat="43.55067" lon="6.38634">
        <ele>378.5</ele>
        <time>2023-10-11T12:47:21.000Z</time>
      </trkpt>
      <trkpt lat="43.55067" lon="6.38634">
        <ele>378.5</ele>
        <time>2023-10-11T12:47:22.000Z</time>
      </trkpt>
      <trkpt lat="43.55067" lon="6.38633">
        <ele>378.5</ele>
        <time>2023-10-11T12:47:26.000Z</time>
      </trkpt>
      <trkpt lat="43.55067" lon="6.38633">
        <ele>378.5</ele>
        <time>2023-10-11T12:47:27.000Z</time>
      </trkpt>
      <trkpt lat="43.55067" lon="6.38633">
        <ele>378.5</ele>
        <time>2023-10-11T12:47:46.000Z</time>
      </trkpt>
      <trkpt lat="43.55068" lon="6.38633">
        <ele>378.4</ele>
        <time>2023-10-11T12:47:49.000Z</time>
      </trkpt>
      <trkpt lat="43.55068" lon="6.38632">
        <ele>378.4</ele>
        <time>2023-10-11T12:47:57.000Z</time>
      </trkpt>
      <trkpt lat="43.55067" lon="6.38632">
        <ele>378.4</ele>
        <time>2023-10-11T12:48:00.000Z</time>
      </trkpt>
      <trkpt lat="43.55067" lon="6.38632">
        <ele>378.4</ele>
        <time>2023-10-11T12:48:06.000Z</time>
      </trkpt>
      <trkpt lat="43.55067" lon="6.38632">
        <ele>378.4</ele>
        <time>2023-10-11T12:48:07.000Z</time>
      </trkpt>
      <trkpt lat="43.55067" lon="6.38632">
        <ele>378.4</ele>
        <time>2023-10-11T12:48:09.000Z</time>
      </trkpt>
      <trkpt lat="43.55067" lon="6.38632">
        <ele>378.4</ele>
        <time>2023-10-11T12:48:11.000Z</time>
      </trkpt>
      <trkpt lat="43.55067" lon="6.38632">
        <ele>378.4</ele>
        <time>2023-10-11T12:48:51.000Z</time>
      </trkpt>
      <trkpt lat="43.55067" lon="6.38631">
        <ele>378.4</ele>
        <time>2023-10-11T12:48:52.000Z</time>
      </trkpt>
      <trkpt lat="43.55068" lon="6.38631">
        <ele>378.4</ele>
        <time>2023-10-11T12:48:55.000Z</time>
      </trkpt>
      <trkpt lat="43.55068" lon="6.38631">
        <ele>378.4</ele>
        <time>2023-10-11T12:48:56.000Z</time>
      </trkpt>
      <trkpt lat="43.55068" lon="6.38631">
        <ele>378.4</ele>
        <time>2023-10-11T12:48:58.000Z</time>
      </trkpt>
      <trkpt lat="43.55068" lon="6.3863">
        <ele>378.3</ele>
        <time>2023-10-11T12:49:00.000Z</time>
      </trkpt>
      <trkpt lat="43.55068" lon="6.3863">
        <ele>378.3</ele>
        <time>2023-10-11T12:49:14.000Z</time>
      </trkpt>
      <trkpt lat="43.55068" lon="6.3863">
        <ele>378.3</ele>
        <time>2023-10-11T12:49:17.000Z</time>
      </trkpt>
      <trkpt lat="43.55068" lon="6.3863">
        <ele>378.3</ele>
        <time>2023-10-11T12:49:18.000Z</time>
      </trkpt>
      <trkpt lat="43.55067" lon="6.3863">
        <ele>378.3</ele>
        <time>2023-10-11T12:49:20.000Z</time>
      </trkpt>
      <trkpt lat="43.55068" lon="6.38631">
        <ele>378.3</ele>
        <time>2023-10-11T12:49:22.000Z</time>
      </trkpt>
      <trkpt lat="43.55068" lon="6.38631">
        <ele>378.3</ele>
        <time>2023-10-11T12:49:24.000Z</time>
      </trkpt>
      <trkpt lat="43.55068" lon="6.38631">
        <ele>378.3</ele>
        <time>2023-10-11T12:49:26.000Z</time>
      </trkpt>
      <trkpt lat="43.55077" lon="6.38627">
        <ele>378.2</ele>
        <time>2023-10-11T12:49:38.000Z</time>
      </trkpt>
      <trkpt lat="43.55085" lon="6.3862">
        <ele>378.2</ele>
        <time>2023-10-11T12:49:45.000Z</time>
      </trkpt>
      <trkpt lat="43.55093" lon="6.38612">
        <ele>378.1</ele>
        <time>2023-10-11T12:49:52.000Z</time>
      </trkpt>
      <trkpt lat="43.55102" lon="6.38606">
        <ele>378.2</ele>
        <time>2023-10-11T12:49:58.000Z</time>
      </trkpt>
      <trkpt lat="43.5511" lon="6.38599">
        <ele>378.3</ele>
        <time>2023-10-11T12:50:07.000Z</time>
      </trkpt>
      <trkpt lat="43.55119" lon="6.38594">
        <ele>378.3</ele>
        <time>2023-10-11T12:50:13.000Z</time>
      </trkpt>
      <trkpt lat="43.55129" lon="6.3859">
        <ele>378.9</ele>
        <time>2023-10-11T12:50:28.000Z</time>
      </trkpt>
      <trkpt lat="43.55138" lon="6.38587">
        <ele>379.8</ele>
        <time>2023-10-11T12:50:40.000Z</time>
      </trkpt>
      <trkpt lat="43.55147" lon="6.38584">
        <ele>380.3</ele>
        <time>2023-10-11T12:50:46.000Z</time>
      </trkpt>
      <trkpt lat="43.55156" lon="6.3859">
        <ele>381.3</ele>
        <time>2023-10-11T12:50:55.000Z</time>
      </trkpt>
      <trkpt lat="43.55163" lon="6.38597">
        <ele>382.4</ele>
        <time>2023-10-11T12:51:05.000Z</time>
      </trkpt>
      <trkpt lat="43.55172" lon="6.38603">
        <ele>383.7</ele>
        <time>2023-10-11T12:51:15.000Z</time>
      </trkpt>
      <trkpt lat="43.55181" lon="6.38602">
        <ele>385.5</ele>
        <time>2023-10-11T12:51:26.000Z</time>
      </trkpt>
      <trkpt lat="43.55191" lon="6.38597">
        <ele>387.5</ele>
        <time>2023-10-11T12:51:36.000Z</time>
      </trkpt>
      <trkpt lat="43.55199" lon="6.38592">
        <ele>388.6</ele>
        <time>2023-10-11T12:51:44.000Z</time>
      </trkpt>
      <trkpt lat="43.55208" lon="6.38585">
        <ele>389.6</ele>
        <time>2023-10-11T12:51:51.000Z</time>
      </trkpt>
      <trkpt lat="43.55217" lon="6.3858">
        <ele>390.4</ele>
        <time>2023-10-11T12:51:59.000Z</time>
      </trkpt>
      <trkpt lat="43.55225" lon="6.38574">
        <ele>391.1</ele>
        <time>2023-10-11T12:52:06.000Z</time>
      </trkpt>
      <trkpt lat="43.55234" lon="6.3857">
        <ele>392</ele>
        <time>2023-10-11T12:52:17.000Z</time>
      </trkpt>
      <trkpt lat="43.55242" lon="6.38564">
        <ele>392.9</ele>
        <time>2023-10-11T12:52:27.000Z</time>
      </trkpt>
      <trkpt lat="43.55249" lon="6.38555">
        <ele>393.5</ele>
        <time>2023-10-11T12:52:34.000Z</time>
      </trkpt>
      <trkpt lat="43.55255" lon="6.38545">
        <ele>394.2</ele>
        <time>2023-10-11T12:52:43.000Z</time>
      </trkpt>
      <trkpt lat="43.55262" lon="6.38537">
        <ele>394.7</ele>
        <time>2023-10-11T12:52:49.000Z</time>
      </trkpt>
      <trkpt lat="43.55271" lon="6.38531">
        <ele>395.4</ele>
        <time>2023-10-11T12:52:58.000Z</time>
      </trkpt>
      <trkpt lat="43.55277" lon="6.3852">
        <ele>396.1</ele>
        <time>2023-10-11T12:53:06.000Z</time>
      </trkpt>
      <trkpt lat="43.55282" lon="6.38509">
        <ele>397.1</ele>
        <time>2023-10-11T12:53:15.000Z</time>
      </trkpt>
      <trkpt lat="43.55286" lon="6.38497">
        <ele>398.5</ele>
        <time>2023-10-11T12:53:27.000Z</time>
      </trkpt>
      <trkpt lat="43.55293" lon="6.3849">
        <ele>399.5</ele>
        <time>2023-10-11T12:53:35.000Z</time>
      </trkpt>
      <trkpt lat="43.55302" lon="6.38486">
        <ele>400.5</ele>
        <time>2023-10-11T12:53:43.000Z</time>
      </trkpt>
      <trkpt lat="43.5531" lon="6.38478">
        <ele>401.3</ele>
        <time>2023-10-11T12:53:52.000Z</time>
      </trkpt>
      <trkpt lat="43.55317" lon="6.38468">
        <ele>401.8</ele>
        <time>2023-10-11T12:54:00.000Z</time>
      </trkpt>
      <trkpt lat="43.55324" lon="6.38462">
        <ele>402.2</ele>
        <time>2023-10-11T12:54:06.000Z</time>
      </trkpt>
      <trkpt lat="43.5533" lon="6.38451">
        <ele>402.8</ele>
        <time>2023-10-11T12:54:14.000Z</time>
      </trkpt>
      <trkpt lat="43.55334" lon="6.3844">
        <ele>403.5</ele>
        <time>2023-10-11T12:54:26.000Z</time>
      </trkpt>
      <trkpt lat="43.55341" lon="6.38431">
        <ele>404.1</ele>
        <time>2023-10-11T12:54:34.000Z</time>
      </trkpt>
      <trkpt lat="43.5535" lon="6.38426">
        <ele>405.1</ele>
        <time>2023-10-11T12:54:44.000Z</time>
      </trkpt>
      <trkpt lat="43.55358" lon="6.38419">
        <ele>406.4</ele>
        <time>2023-10-11T12:54:54.000Z</time>
      </trkpt>
      <trkpt lat="43.55368" lon="6.38417">
        <ele>407.2</ele>
        <time>2023-10-11T12:55:04.000Z</time>
      </trkpt>
      <trkpt lat="43.55377" lon="6.38416">
        <ele>407.8</ele>
        <time>2023-10-11T12:55:14.000Z</time>
      </trkpt>
      <trkpt lat="43.55386" lon="6.38417">
        <ele>408.1</ele>
        <time>2023-10-11T12:55:22.000Z</time>
      </trkpt>
      <trkpt lat="43.55395" lon="6.38413">
        <ele>408.2</ele>
        <time>2023-10-11T12:55:30.000Z</time>
      </trkpt>
      <trkpt lat="43.55404" lon="6.38408">
        <ele>408.7</ele>
        <time>2023-10-11T12:55:40.000Z</time>
      </trkpt>
      <trkpt lat="43.55413" lon="6.38405">
        <ele>409.2</ele>
        <time>2023-10-11T12:55:49.000Z</time>
      </trkpt>
      <trkpt lat="43.55423" lon="6.38403">
        <ele>410</ele>
        <time>2023-10-11T12:55:59.000Z</time>
      </trkpt>
      <trkpt lat="43.55432" lon="6.38404">
        <ele>411.2</ele>
        <time>2023-10-11T12:56:10.000Z</time>
      </trkpt>
      <trkpt lat="43.55441" lon="6.38402">
        <ele>412.1</ele>
        <time>2023-10-11T12:56:17.000Z</time>
      </trkpt>
      <trkpt lat="43.5545" lon="6.38405">
        <ele>413.6</ele>
        <time>2023-10-11T12:56:26.000Z</time>
      </trkpt>
      <trkpt lat="43.5546" lon="6.38405">
        <ele>415</ele>
        <time>2023-10-11T12:56:35.000Z</time>
      </trkpt>
      <trkpt lat="43.55469" lon="6.38403">
        <ele>415.9</ele>
        <time>2023-10-11T12:56:43.000Z</time>
      </trkpt>
      <trkpt lat="43.55478" lon="6.38398">
        <ele>416.7</ele>
        <time>2023-10-11T12:56:50.000Z</time>
      </trkpt>
      <trkpt lat="43.55487" lon="6.38393">
        <ele>417.8</ele>
        <time>2023-10-11T12:56:59.000Z</time>
      </trkpt>
      <trkpt lat="43.55496" lon="6.38393">
        <ele>418.5</ele>
        <time>2023-10-11T12:57:08.000Z</time>
      </trkpt>
      <trkpt lat="43.55505" lon="6.38388">
        <ele>419.2</ele>
        <time>2023-10-11T12:57:17.000Z</time>
      </trkpt>
      <trkpt lat="43.55507" lon="6.38384">
        <ele>419.4</ele>
        <time>2023-10-11T12:57:24.000Z</time>
      </trkpt>
      <trkpt lat="43.55507" lon="6.38384">
        <ele>419.6</ele>
        <time>2023-10-11T12:57:34.000Z</time>
      </trkpt>
      <trkpt lat="43.55507" lon="6.38384">
        <ele>419.7</ele>
        <time>2023-10-11T12:57:36.000Z</time>
      </trkpt>
      <trkpt lat="43.55508" lon="6.38383">
        <ele>419.7</ele>
        <time>2023-10-11T12:57:37.000Z</time>
      </trkpt>
      <trkpt lat="43.55508" lon="6.38383">
        <ele>419.7</ele>
        <time>2023-10-11T12:57:41.000Z</time>
      </trkpt>
      <trkpt lat="43.55508" lon="6.38383">
        <ele>419.7</ele>
        <time>2023-10-11T12:57:45.000Z</time>
      </trkpt>
      <trkpt lat="43.55508" lon="6.38383">
        <ele>419.7</ele>
        <time>2023-10-11T12:57:46.000Z</time>
      </trkpt>
      <trkpt lat="43.55507" lon="6.38383">
        <ele>419.8</ele>
        <time>2023-10-11T12:58:00.000Z</time>
      </trkpt>
      <trkpt lat="43.55506" lon="6.38382">
        <ele>419.8</ele>
        <time>2023-10-11T12:58:07.000Z</time>
      </trkpt>
      <trkpt lat="43.55505" lon="6.38382">
        <ele>419.8</ele>
        <time>2023-10-11T12:58:19.000Z</time>
      </trkpt>
      <trkpt lat="43.55505" lon="6.38382">
        <ele>419.8</ele>
        <time>2023-10-11T12:58:20.000Z</time>
      </trkpt>
      <trkpt lat="43.55505" lon="6.38381">
        <ele>419.8</ele>
        <time>2023-10-11T12:58:24.000Z</time>
      </trkpt>
      <trkpt lat="43.55507" lon="6.3838">
        <ele>419.8</ele>
        <time>2023-10-11T12:58:38.000Z</time>
      </trkpt>
      <trkpt lat="43.55506" lon="6.38379">
        <ele>419.8</ele>
        <time>2023-10-11T12:58:39.000Z</time>
      </trkpt>
      <trkpt lat="43.55507" lon="6.38379">
        <ele>419.8</ele>
        <time>2023-10-11T12:58:42.000Z</time>
      </trkpt>
      <trkpt lat="43.55507" lon="6.38379">
        <ele>419.8</ele>
        <time>2023-10-11T12:58:50.000Z</time>
      </trkpt>
      <trkpt lat="43.55507" lon="6.3838">
        <ele>419.8</ele>
        <time>2023-10-11T12:58:52.000Z</time>
      </trkpt>
      <trkpt lat="43.55506" lon="6.3838">
        <ele>419.8</ele>
        <time>2023-10-11T12:58:53.000Z</time>
      </trkpt>
      <trkpt lat="43.55507" lon="6.38381">
        <ele>419.8</ele>
        <time>2023-10-11T12:58:58.000Z</time>
      </trkpt>
      <trkpt lat="43.55507" lon="6.38381">
        <ele>419.8</ele>
        <time>2023-10-11T12:59:04.000Z</time>
      </trkpt>
      <trkpt lat="43.55507" lon="6.38381">
        <ele>419.8</ele>
        <time>2023-10-11T12:59:06.000Z</time>
      </trkpt>
      <trkpt lat="43.55507" lon="6.38381">
        <ele>419.8</ele>
        <time>2023-10-11T12:59:08.000Z</time>
      </trkpt>
      <trkpt lat="43.55507" lon="6.38381">
        <ele>419.8</ele>
        <time>2023-10-11T12:59:10.000Z</time>
      </trkpt>
      <trkpt lat="43.55507" lon="6.3838">
        <ele>419.8</ele>
        <time>2023-10-11T12:59:15.000Z</time>
      </trkpt>
      <trkpt lat="43.55507" lon="6.3838">
        <ele>419.8</ele>
        <time>2023-10-11T12:59:16.000Z</time>
      </trkpt>
      <trkpt lat="43.55507" lon="6.3838">
        <ele>419.8</ele>
        <time>2023-10-11T12:59:20.000Z</time>
      </trkpt>
      <trkpt lat="43.55505" lon="6.38381">
        <ele>419.8</ele>
        <time>2023-10-11T12:59:24.000Z</time>
      </trkpt>
      <trkpt lat="43.55505" lon="6.38381">
        <ele>419.8</ele>
        <time>2023-10-11T12:59:28.000Z</time>
      </trkpt>
      <trkpt lat="43.55505" lon="6.38381">
        <ele>419.8</ele>
        <time>2023-10-11T12:59:29.000Z</time>
      </trkpt>
      <trkpt lat="43.55505" lon="6.38381">
        <ele>419.8</ele>
        <time>2023-10-11T12:59:33.000Z</time>
      </trkpt>
      <trkpt lat="43.55505" lon="6.38382">
        <ele>419.9</ele>
        <time>2023-10-11T12:59:43.000Z</time>
      </trkpt>
      <trkpt lat="43.55505" lon="6.38382">
        <ele>419.9</ele>
        <time>2023-10-11T12:59:46.000Z</time>
      </trkpt>
      <trkpt lat="43.55505" lon="6.38382">
        <ele>419.9</ele>
        <time>2023-10-11T12:59:47.000Z</time>
      </trkpt>
      <trkpt lat="43.55505" lon="6.38383">
        <ele>419.9</ele>
        <time>2023-10-11T12:59:49.000Z</time>
      </trkpt>
      <trkpt lat="43.55501" lon="6.38383">
        <ele>419.8</ele>
        <time>2023-10-11T13:00:18.000Z</time>
      </trkpt>
      <trkpt lat="43.55501" lon="6.38383">
        <ele>419.8</ele>
        <time>2023-10-11T13:00:20.000Z</time>
      </trkpt>
      <trkpt lat="43.55503" lon="6.38381">
        <ele>419.8</ele>
        <time>2023-10-11T13:00:23.000Z</time>
      </trkpt>
      <trkpt lat="43.55503" lon="6.38381">
        <ele>419.8</ele>
        <time>2023-10-11T13:00:25.000Z</time>
      </trkpt>
      <trkpt lat="43.55503" lon="6.38381">
        <ele>419.8</ele>
        <time>2023-10-11T13:00:27.000Z</time>
      </trkpt>
      <trkpt lat="43.55503" lon="6.38381">
        <ele>419.8</ele>
        <time>2023-10-11T13:00:31.000Z</time>
      </trkpt>
      <trkpt lat="43.55504" lon="6.38381">
        <ele>419.8</ele>
        <time>2023-10-11T13:00:37.000Z</time>
      </trkpt>
      <trkpt lat="43.55504" lon="6.38381">
        <ele>419.8</ele>
        <time>2023-10-11T13:00:38.000Z</time>
      </trkpt>
      <trkpt lat="43.55504" lon="6.38381">
        <ele>419.8</ele>
        <time>2023-10-11T13:00:39.000Z</time>
      </trkpt>
      <trkpt lat="43.55504" lon="6.38381">
        <ele>419.7</ele>
        <time>2023-10-11T13:00:43.000Z</time>
      </trkpt>
      <trkpt lat="43.55513" lon="6.38379">
        <ele>419.7</ele>
        <time>2023-10-11T13:00:55.000Z</time>
      </trkpt>
      <trkpt lat="43.55524" lon="6.38381">
        <ele>419.7</ele>
        <time>2023-10-11T13:01:04.000Z</time>
      </trkpt>
      <trkpt lat="43.55534" lon="6.38382">
        <ele>419.8</ele>
        <time>2023-10-11T13:01:14.000Z</time>
      </trkpt>
      <trkpt lat="43.55543" lon="6.3838">
        <ele>419.9</ele>
        <time>2023-10-11T13:01:21.000Z</time>
      </trkpt>
      <trkpt lat="43.55551" lon="6.38375">
        <ele>420</ele>
        <time>2023-10-11T13:01:30.000Z</time>
      </trkpt>
      <trkpt lat="43.55561" lon="6.38374">
        <ele>420.1</ele>
        <time>2023-10-11T13:01:39.000Z</time>
      </trkpt>
      <trkpt lat="43.55571" lon="6.38374">
        <ele>420.2</ele>
        <time>2023-10-11T13:01:46.000Z</time>
      </trkpt>
      <trkpt lat="43.5558" lon="6.38371">
        <ele>420.4</ele>
        <time>2023-10-11T13:01:54.000Z</time>
      </trkpt>
      <trkpt lat="43.5559" lon="6.38369">
        <ele>420.5</ele>
        <time>2023-10-11T13:02:02.000Z</time>
      </trkpt>
      <trkpt lat="43.5559" lon="6.38369">
        <ele>420.5</ele>
        <time>2023-10-11T13:02:03.000Z</time>
      </trkpt>
      <trkpt lat="43.55591" lon="6.38369">
        <ele>420.5</ele>
        <time>2023-10-11T13:02:04.000Z</time>
      </trkpt>
      <trkpt lat="43.55601" lon="6.38366">
        <ele>420.5</ele>
        <time>2023-10-11T13:02:10.000Z</time>
      </trkpt>
      <trkpt lat="43.5561" lon="6.38361">
        <ele>420.4</ele>
        <time>2023-10-11T13:02:18.000Z</time>
      </trkpt>
      <trkpt lat="43.55619" lon="6.38353">
        <ele>420.4</ele>
        <time>2023-10-11T13:02:26.000Z</time>
      </trkpt>
      <trkpt lat="43.55627" lon="6.38348">
        <ele>420.3</ele>
        <time>2023-10-11T13:02:35.000Z</time>
      </trkpt>
      <trkpt lat="43.55636" lon="6.38343">
        <ele>420.3</ele>
        <time>2023-10-11T13:02:41.000Z</time>
      </trkpt>
      <trkpt lat="43.55644" lon="6.38338">
        <ele>420.2</ele>
        <time>2023-10-11T13:02:46.000Z</time>
      </trkpt>
      <trkpt lat="43.55652" lon="6.38331">
        <ele>420.1</ele>
        <time>2023-10-11T13:02:55.000Z</time>
      </trkpt>
      <trkpt lat="43.55662" lon="6.38326">
        <ele>420.1</ele>
        <time>2023-10-11T13:03:04.000Z</time>
      </trkpt>
      <trkpt lat="43.55671" lon="6.38322">
        <ele>420.2</ele>
        <time>2023-10-11T13:03:10.000Z</time>
      </trkpt>
      <trkpt lat="43.55681" lon="6.38319">
        <ele>420.2</ele>
        <time>2023-10-11T13:03:17.000Z</time>
      </trkpt>
      <trkpt lat="43.55691" lon="6.38314">
        <ele>420.3</ele>
        <time>2023-10-11T13:03:24.000Z</time>
      </trkpt>
      <trkpt lat="43.557" lon="6.38309">
        <ele>420.6</ele>
        <time>2023-10-11T13:03:34.000Z</time>
      </trkpt>
      <trkpt lat="43.5571" lon="6.38305">
        <ele>421</ele>
        <time>2023-10-11T13:03:43.000Z</time>
      </trkpt>
      <trkpt lat="43.5572" lon="6.38306">
        <ele>421.4</ele>
        <time>2023-10-11T13:03:52.000Z</time>
      </trkpt>
      <trkpt lat="43.55729" lon="6.38302">
        <ele>421.6</ele>
        <time>2023-10-11T13:04:00.000Z</time>
      </trkpt>
      <trkpt lat="43.55738" lon="6.383">
        <ele>421.7</ele>
        <time>2023-10-11T13:04:07.000Z</time>
      </trkpt>
      <trkpt lat="43.55747" lon="6.38293">
        <ele>421.6</ele>
        <time>2023-10-11T13:04:15.000Z</time>
      </trkpt>
      <trkpt lat="43.55756" lon="6.38287">
        <ele>421.5</ele>
        <time>2023-10-11T13:04:24.000Z</time>
      </trkpt>
      <trkpt lat="43.55765" lon="6.38283">
        <ele>421.4</ele>
        <time>2023-10-11T13:04:31.000Z</time>
      </trkpt>
      <trkpt lat="43.55774" lon="6.38276">
        <ele>421.3</ele>
        <time>2023-10-11T13:04:39.000Z</time>
      </trkpt>
      <trkpt lat="43.55782" lon="6.3827">
        <ele>421.4</ele>
        <time>2023-10-11T13:04:48.000Z</time>
      </trkpt>
      <trkpt lat="43.55791" lon="6.3827">
        <ele>421.5</ele>
        <time>2023-10-11T13:04:56.000Z</time>
      </trkpt>
      <trkpt lat="43.558" lon="6.3827">
        <ele>421.8</ele>
        <time>2023-10-11T13:05:02.000Z</time>
      </trkpt>
      <trkpt lat="43.55807" lon="6.38262">
        <ele>422.6</ele>
        <time>2023-10-11T13:05:10.000Z</time>
      </trkpt>
      <trkpt lat="43.55804" lon="6.38249">
        <ele>423.6</ele>
        <time>2023-10-11T13:05:19.000Z</time>
      </trkpt>
      <trkpt lat="43.55806" lon="6.3825">
        <ele>424.1</ele>
        <time>2023-10-11T13:05:39.000Z</time>
      </trkpt>
      <trkpt lat="43.55807" lon="6.3825">
        <ele>424.1</ele>
        <time>2023-10-11T13:05:43.000Z</time>
      </trkpt>
      <trkpt lat="43.55808" lon="6.38249">
        <ele>424.1</ele>
        <time>2023-10-11T13:05:46.000Z</time>
      </trkpt>
      <trkpt lat="43.55808" lon="6.38249">
        <ele>424.1</ele>
        <time>2023-10-11T13:05:47.000Z</time>
      </trkpt>
      <trkpt lat="43.55808" lon="6.38253">
        <ele>424.2</ele>
        <time>2023-10-11T13:05:54.000Z</time>
      </trkpt>
      <trkpt lat="43.55808" lon="6.38252">
        <ele>424.2</ele>
        <time>2023-10-11T13:05:55.000Z</time>
      </trkpt>
      <trkpt lat="43.55808" lon="6.38252">
        <ele>424.2</ele>
        <time>2023-10-11T13:05:57.000Z</time>
      </trkpt>
      <trkpt lat="43.55809" lon="6.38252">
        <ele>424.3</ele>
        <time>2023-10-11T13:06:04.000Z</time>
      </trkpt>
      <trkpt lat="43.55809" lon="6.38251">
        <ele>424.3</ele>
        <time>2023-10-11T13:06:05.000Z</time>
      </trkpt>
      <trkpt lat="43.55809" lon="6.38251">
        <ele>424.3</ele>
        <time>2023-10-11T13:06:07.000Z</time>
      </trkpt>
      <trkpt lat="43.55809" lon="6.38251">
        <ele>424.3</ele>
        <time>2023-10-11T13:06:08.000Z</time>
      </trkpt>
      <trkpt lat="43.55808" lon="6.38252">
        <ele>424.3</ele>
        <time>2023-10-11T13:06:17.000Z</time>
      </trkpt>
      <trkpt lat="43.55808" lon="6.38252">
        <ele>424.3</ele>
        <time>2023-10-11T13:06:20.000Z</time>
      </trkpt>
      <trkpt lat="43.55808" lon="6.38252">
        <ele>424.4</ele>
        <time>2023-10-11T13:06:32.000Z</time>
      </trkpt>
      <trkpt lat="43.55808" lon="6.38252">
        <ele>424.4</ele>
        <time>2023-10-11T13:06:36.000Z</time>
      </trkpt>
      <trkpt lat="43.55808" lon="6.38253">
        <ele>424.4</ele>
        <time>2023-10-11T13:06:37.000Z</time>
      </trkpt>
      <trkpt lat="43.55807" lon="6.38252">
        <ele>424.4</ele>
        <time>2023-10-11T13:06:43.000Z</time>
      </trkpt>
      <trkpt lat="43.55807" lon="6.38252">
        <ele>424.4</ele>
        <time>2023-10-11T13:06:52.000Z</time>
      </trkpt>
      <trkpt lat="43.55807" lon="6.38252">
        <ele>424.4</ele>
        <time>2023-10-11T13:06:56.000Z</time>
      </trkpt>
      <trkpt lat="43.55807" lon="6.38252">
        <ele>424.4</ele>
        <time>2023-10-11T13:06:57.000Z</time>
      </trkpt>
      <trkpt lat="43.55807" lon="6.38252">
        <ele>424.4</ele>
        <time>2023-10-11T13:06:58.000Z</time>
      </trkpt>
      <trkpt lat="43.55807" lon="6.38252">
        <ele>424.4</ele>
        <time>2023-10-11T13:07:20.000Z</time>
      </trkpt>
      <trkpt lat="43.55807" lon="6.38265">
        <ele>424.4</ele>
        <time>2023-10-11T13:07:30.000Z</time>
      </trkpt>
      <trkpt lat="43.55804" lon="6.3827">
        <ele>424.3</ele>
        <time>2023-10-11T13:07:39.000Z</time>
      </trkpt>
      <trkpt lat="43.55804" lon="6.3827">
        <ele>424.2</ele>
        <time>2023-10-11T13:07:42.000Z</time>
      </trkpt>
      <trkpt lat="43.55804" lon="6.3827">
        <ele>424.2</ele>
        <time>2023-10-11T13:07:43.000Z</time>
      </trkpt>
      <trkpt lat="43.55804" lon="6.3827">
        <ele>424.2</ele>
        <time>2023-10-11T13:07:49.000Z</time>
      </trkpt>
      <trkpt lat="43.55804" lon="6.3827">
        <ele>424.1</ele>
        <time>2023-10-11T13:07:50.000Z</time>
      </trkpt>
      <trkpt lat="43.55804" lon="6.3827">
        <ele>424.1</ele>
        <time>2023-10-11T13:07:51.000Z</time>
      </trkpt>
      <trkpt lat="43.55804" lon="6.3827">
        <ele>424.1</ele>
        <time>2023-10-11T13:07:52.000Z</time>
      </trkpt>
      <trkpt lat="43.55804" lon="6.38269">
        <ele>424.1</ele>
        <time>2023-10-11T13:07:57.000Z</time>
      </trkpt>
      <trkpt lat="43.55804" lon="6.3827">
        <ele>424</ele>
        <time>2023-10-11T13:08:01.000Z</time>
      </trkpt>
      <trkpt lat="43.55804" lon="6.3827">
        <ele>424</ele>
        <time>2023-10-11T13:08:04.000Z</time>
      </trkpt>
      <trkpt lat="43.55802" lon="6.38283">
        <ele>423.9</ele>
        <time>2023-10-11T13:08:12.000Z</time>
      </trkpt>
      <trkpt lat="43.55799" lon="6.38296">
        <ele>423.8</ele>
        <time>2023-10-11T13:08:21.000Z</time>
      </trkpt>
      <trkpt lat="43.55796" lon="6.38309">
        <ele>423.6</ele>
        <time>2023-10-11T13:08:30.000Z</time>
      </trkpt>
      <trkpt lat="43.55793" lon="6.3832">
        <ele>423.6</ele>
        <time>2023-10-11T13:08:38.000Z</time>
      </trkpt>
      <trkpt lat="43.55791" lon="6.38333">
        <ele>423.6</ele>
        <time>2023-10-11T13:08:47.000Z</time>
      </trkpt>
      <trkpt lat="43.55787" lon="6.38345">
        <ele>423.7</ele>
        <time>2023-10-11T13:08:55.000Z</time>
      </trkpt>
      <trkpt lat="43.55784" lon="6.38357">
        <ele>423.8</ele>
        <time>2023-10-11T13:09:02.000Z</time>
      </trkpt>
      <trkpt lat="43.55782" lon="6.38371">
        <ele>423.8</ele>
        <time>2023-10-11T13:09:10.000Z</time>
      </trkpt>
      <trkpt lat="43.5578" lon="6.38383">
        <ele>423.8</ele>
        <time>2023-10-11T13:09:16.000Z</time>
      </trkpt>
      <trkpt lat="43.55775" lon="6.38394">
        <ele>423.8</ele>
        <time>2023-10-11T13:09:25.000Z</time>
      </trkpt>
      <trkpt lat="43.55772" lon="6.38407">
        <ele>423.7</ele>
        <time>2023-10-11T13:09:32.000Z</time>
      </trkpt>
      <trkpt lat="43.55768" lon="6.38419">
        <ele>423.6</ele>
        <time>2023-10-11T13:09:40.000Z</time>
      </trkpt>
      <trkpt lat="43.55764" lon="6.38431">
        <ele>423.3</ele>
        <time>2023-10-11T13:09:48.000Z</time>
      </trkpt>
      <trkpt lat="43.5576" lon="6.38444">
        <ele>422.9</ele>
        <time>2023-10-11T13:09:57.000Z</time>
      </trkpt>
      <trkpt lat="43.55756" lon="6.38456">
        <ele>422.6</ele>
        <time>2023-10-11T13:10:05.000Z</time>
      </trkpt>
      <trkpt lat="43.55754" lon="6.38465">
        <ele>422.3</ele>
        <time>2023-10-11T13:10:15.000Z</time>
      </trkpt>
      <trkpt lat="43.55754" lon="6.38465">
        <ele>422</ele>
        <time>2023-10-11T13:10:21.000Z</time>
      </trkpt>
      <trkpt lat="43.55755" lon="6.38466">
        <ele>421.9</ele>
        <time>2023-10-11T13:10:23.000Z</time>
      </trkpt>
      <trkpt lat="43.55755" lon="6.38466">
        <ele>421.8</ele>
        <time>2023-10-11T13:10:26.000Z</time>
      </trkpt>
      <trkpt lat="43.5575" lon="6.38478">
        <ele>421.5</ele>
        <time>2023-10-11T13:10:36.000Z</time>
      </trkpt>
      <trkpt lat="43.55749" lon="6.3849">
        <ele>421.2</ele>
        <time>2023-10-11T13:10:46.000Z</time>
      </trkpt>
      <trkpt lat="43.55743" lon="6.38502">
        <ele>420.7</ele>
        <time>2023-10-11T13:10:53.000Z</time>
      </trkpt>
      <trkpt lat="43.55742" lon="6.38515">
        <ele>420.2</ele>
        <time>2023-10-11T13:11:00.000Z</time>
      </trkpt>
      <trkpt lat="43.55738" lon="6.38528">
        <ele>419.3</ele>
        <time>2023-10-11T13:11:09.000Z</time>
      </trkpt>
      <trkpt lat="43.55736" lon="6.3854">
        <ele>418.5</ele>
        <time>2023-10-11T13:11:18.000Z</time>
      </trkpt>
      <trkpt lat="43.55732" lon="6.38552">
        <ele>417.6</ele>
        <time>2023-10-11T13:11:26.000Z</time>
      </trkpt>
      <trkpt lat="43.55732" lon="6.38567">
        <ele>416.4</ele>
        <time>2023-10-11T13:11:36.000Z</time>
      </trkpt>
      <trkpt lat="43.55734" lon="6.3858">
        <ele>415.2</ele>
        <time>2023-10-11T13:11:44.000Z</time>
      </trkpt>
      <trkpt lat="43.55739" lon="6.38592">
        <ele>414.1</ele>
        <time>2023-10-11T13:11:51.000Z</time>
      </trkpt>
      <trkpt lat="43.55742" lon="6.38605">
        <ele>413.2</ele>
        <time>2023-10-11T13:11:58.000Z</time>
      </trkpt>
      <trkpt lat="43.55743" lon="6.38619">
        <ele>412.4</ele>
        <time>2023-10-11T13:12:05.000Z</time>
      </trkpt>
      <trkpt lat="43.55745" lon="6.38631">
        <ele>411.7</ele>
        <time>2023-10-11T13:12:12.000Z</time>
      </trkpt>
      <trkpt lat="43.55743" lon="6.38646">
        <ele>411.2</ele>
        <time>2023-10-11T13:12:22.000Z</time>
      </trkpt>
      <trkpt lat="43.55742" lon="6.38659">
        <ele>411</ele>
        <time>2023-10-11T13:12:31.000Z</time>
      </trkpt>
      <trkpt lat="43.55739" lon="6.38672">
        <ele>410.9</ele>
        <time>2023-10-11T13:12:39.000Z</time>
      </trkpt>
      <trkpt lat="43.55739" lon="6.38686">
        <ele>410.8</ele>
        <time>2023-10-11T13:12:47.000Z</time>
      </trkpt>
      <trkpt lat="43.55746" lon="6.38697">
        <ele>410.7</ele>
        <time>2023-10-11T13:12:54.000Z</time>
      </trkpt>
      <trkpt lat="43.55746" lon="6.38712">
        <ele>410.6</ele>
        <time>2023-10-11T13:13:02.000Z</time>
      </trkpt>
      <trkpt lat="43.55745" lon="6.38725">
        <ele>410.4</ele>
        <time>2023-10-11T13:13:10.000Z</time>
      </trkpt>
      <trkpt lat="43.55742" lon="6.38737">
        <ele>410.4</ele>
        <time>2023-10-11T13:13:19.000Z</time>
      </trkpt>
      <trkpt lat="43.55736" lon="6.38747">
        <ele>410.3</ele>
        <time>2023-10-11T13:13:27.000Z</time>
      </trkpt>
      <trkpt lat="43.55734" lon="6.38761">
        <ele>410.3</ele>
        <time>2023-10-11T13:13:34.000Z</time>
      </trkpt>
      <trkpt lat="43.55736" lon="6.38774">
        <ele>410.3</ele>
        <time>2023-10-11T13:13:41.000Z</time>
      </trkpt>
      <trkpt lat="43.55736" lon="6.38787">
        <ele>410.4</ele>
        <time>2023-10-11T13:13:49.000Z</time>
      </trkpt>
      <trkpt lat="43.55736" lon="6.38801">
        <ele>410.5</ele>
        <time>2023-10-11T13:13:57.000Z</time>
      </trkpt>
      <trkpt lat="43.55736" lon="6.38815">
        <ele>410.6</ele>
        <time>2023-10-11T13:14:05.000Z</time>
      </trkpt>
      <trkpt lat="43.55736" lon="6.38828">
        <ele>410.7</ele>
        <time>2023-10-11T13:14:13.000Z</time>
      </trkpt>
      <trkpt lat="43.55735" lon="6.38842">
        <ele>410.8</ele>
        <time>2023-10-11T13:14:19.000Z</time>
      </trkpt>
      <trkpt lat="43.55735" lon="6.38855">
        <ele>410.9</ele>
        <time>2023-10-11T13:14:26.000Z</time>
      </trkpt>
      <trkpt lat="43.55736" lon="6.38869">
        <ele>411.2</ele>
        <time>2023-10-11T13:14:33.000Z</time>
      </trkpt>
      <trkpt lat="43.55736" lon="6.38882">
        <ele>411.5</ele>
        <time>2023-10-11T13:14:41.000Z</time>
      </trkpt>
      <trkpt lat="43.55736" lon="6.38894">
        <ele>411.6</ele>
        <time>2023-10-11T13:14:50.000Z</time>
      </trkpt>
      <trkpt lat="43.55731" lon="6.38906">
        <ele>411.5</ele>
        <time>2023-10-11T13:14:59.000Z</time>
      </trkpt>
      <trkpt lat="43.55723" lon="6.38912">
        <ele>411.4</ele>
        <time>2023-10-11T13:15:07.000Z</time>
      </trkpt>
      <trkpt lat="43.55716" lon="6.38923">
        <ele>411.2</ele>
        <time>2023-10-11T13:15:15.000Z</time>
      </trkpt>
      <trkpt lat="43.55709" lon="6.38932">
        <ele>411</ele>
        <time>2023-10-11T13:15:24.000Z</time>
      </trkpt>
      <trkpt lat="43.55702" lon="6.3894">
        <ele>410.8</ele>
        <time>2023-10-11T13:15:31.000Z</time>
      </trkpt>
      <trkpt lat="43.55695" lon="6.38951">
        <ele>410.6</ele>
        <time>2023-10-11T13:15:38.000Z</time>
      </trkpt>
      <trkpt lat="43.55687" lon="6.38958">
        <ele>410.3</ele>
        <time>2023-10-11T13:15:45.000Z</time>
      </trkpt>
      <trkpt lat="43.5568" lon="6.38965">
        <ele>409.9</ele>
        <time>2023-10-11T13:15:52.000Z</time>
      </trkpt>
      <trkpt lat="43.55672" lon="6.38974">
        <ele>409.5</ele>
        <time>2023-10-11T13:15:59.000Z</time>
      </trkpt>
      <trkpt lat="43.55665" lon="6.38984">
        <ele>409.1</ele>
        <time>2023-10-11T13:16:06.000Z</time>
      </trkpt>
      <trkpt lat="43.55658" lon="6.38993">
        <ele>408.4</ele>
        <time>2023-10-11T13:16:15.000Z</time>
      </trkpt>
      <trkpt lat="43.55648" lon="6.38998">
        <ele>407.8</ele>
        <time>2023-10-11T13:16:22.000Z</time>
      </trkpt>
      <trkpt lat="43.5564" lon="6.39004">
        <ele>407.2</ele>
        <time>2023-10-11T13:16:30.000Z</time>
      </trkpt>
      <trkpt lat="43.55631" lon="6.39011">
        <ele>406.4</ele>
        <time>2023-10-11T13:16:39.000Z</time>
      </trkpt>
      <trkpt lat="43.55621" lon="6.39012">
        <ele>406</ele>
        <time>2023-10-11T13:16:46.000Z</time>
      </trkpt>
      <trkpt lat="43.55612" lon="6.39018">
        <ele>405.6</ele>
        <time>2023-10-11T13:16:54.000Z</time>
      </trkpt>
      <trkpt lat="43.55603" lon="6.39024">
        <ele>405</ele>
        <time>2023-10-11T13:17:02.000Z</time>
      </trkpt>
      <trkpt lat="43.55596" lon="6.39032">
        <ele>404.3</ele>
        <time>2023-10-11T13:17:09.000Z</time>
      </trkpt>
      <trkpt lat="43.5559" lon="6.39041">
        <ele>403.4</ele>
        <time>2023-10-11T13:17:16.000Z</time>
      </trkpt>
      <trkpt lat="43.55582" lon="6.39048">
        <ele>402.7</ele>
        <time>2023-10-11T13:17:22.000Z</time>
      </trkpt>
      <trkpt lat="43.55576" lon="6.39058">
        <ele>401.6</ele>
        <time>2023-10-11T13:17:30.000Z</time>
      </trkpt>
      <trkpt lat="43.5557" lon="6.39066">
        <ele>400.6</ele>
        <time>2023-10-11T13:17:37.000Z</time>
      </trkpt>
      <trkpt lat="43.55562" lon="6.39075">
        <ele>399.8</ele>
        <time>2023-10-11T13:17:45.000Z</time>
      </trkpt>
      <trkpt lat="43.55555" lon="6.39084">
        <ele>399.1</ele>
        <time>2023-10-11T13:17:53.000Z</time>
      </trkpt>
      <trkpt lat="43.55548" lon="6.39092">
        <ele>398.5</ele>
        <time>2023-10-11T13:18:00.000Z</time>
      </trkpt>
      <trkpt lat="43.55544" lon="6.39103">
        <ele>397.7</ele>
        <time>2023-10-11T13:18:07.000Z</time>
      </trkpt>
      <trkpt lat="43.55541" lon="6.39115">
        <ele>396.8</ele>
        <time>2023-10-11T13:18:14.000Z</time>
      </trkpt>
      <trkpt lat="43.55539" lon="6.39128">
        <ele>395.8</ele>
        <time>2023-10-11T13:18:21.000Z</time>
      </trkpt>
      <trkpt lat="43.55541" lon="6.3914">
        <ele>394.8</ele>
        <time>2023-10-11T13:18:27.000Z</time>
      </trkpt>
      <trkpt lat="43.55544" lon="6.39153">
        <ele>394.2</ele>
        <time>2023-10-11T13:18:33.000Z</time>
      </trkpt>
      <trkpt lat="43.55549" lon="6.39165">
        <ele>393.3</ele>
        <time>2023-10-11T13:18:41.000Z</time>
      </trkpt>
      <trkpt lat="43.55555" lon="6.39176">
        <ele>392.4</ele>
        <time>2023-10-11T13:18:49.000Z</time>
      </trkpt>
      <trkpt lat="43.55562" lon="6.39184">
        <ele>391.6</ele>
        <time>2023-10-11T13:18:57.000Z</time>
      </trkpt>
      <trkpt lat="43.55571" lon="6.39191">
        <ele>390.8</ele>
        <time>2023-10-11T13:19:05.000Z</time>
      </trkpt>
      <trkpt lat="43.55578" lon="6.39199">
        <ele>389.8</ele>
        <time>2023-10-11T13:19:13.000Z</time>
      </trkpt>
      <trkpt lat="43.55586" lon="6.39208">
        <ele>389</ele>
        <time>2023-10-11T13:19:21.000Z</time>
      </trkpt>
      <trkpt lat="43.55594" lon="6.39216">
        <ele>388.3</ele>
        <time>2023-10-11T13:19:29.000Z</time>
      </trkpt>
      <trkpt lat="43.55598" lon="6.39219">
        <ele>387.7</ele>
        <time>2023-10-11T13:19:38.000Z</time>
      </trkpt>
      <trkpt lat="43.55599" lon="6.3922">
        <ele>387.7</ele>
        <time>2023-10-11T13:19:39.000Z</time>
      </trkpt>
      <trkpt lat="43.55608" lon="6.39225">
        <ele>387.3</ele>
        <time>2023-10-11T13:19:48.000Z</time>
      </trkpt>
      <trkpt lat="43.55617" lon="6.39232">
        <ele>386.7</ele>
        <time>2023-10-11T13:19:57.000Z</time>
      </trkpt>
      <trkpt lat="43.55624" lon="6.39238">
        <ele>386.4</ele>
        <time>2023-10-11T13:20:05.000Z</time>
      </trkpt>
      <trkpt lat="43.55626" lon="6.39241">
        <ele>385.9</ele>
        <time>2023-10-11T13:20:10.000Z</time>
      </trkpt>
      <trkpt lat="43.55626" lon="6.39241">
        <ele>385.6</ele>
        <time>2023-10-11T13:20:15.000Z</time>
      </trkpt>
      <trkpt lat="43.55626" lon="6.39241">
        <ele>385.5</ele>
        <time>2023-10-11T13:20:16.000Z</time>
      </trkpt>
      <trkpt lat="43.55627" lon="6.39241">
        <ele>385.4</ele>
        <time>2023-10-11T13:20:18.000Z</time>
      </trkpt>
      <trkpt lat="43.55634" lon="6.39249">
        <ele>384.7</ele>
        <time>2023-10-11T13:20:30.000Z</time>
      </trkpt>
      <trkpt lat="43.55637" lon="6.39253">
        <ele>384.3</ele>
        <time>2023-10-11T13:20:37.000Z</time>
      </trkpt>
      <trkpt lat="43.55638" lon="6.39253">
        <ele>384.2</ele>
        <time>2023-10-11T13:20:39.000Z</time>
      </trkpt>
      <trkpt lat="43.55641" lon="6.39265">
        <ele>383.8</ele>
        <time>2023-10-11T13:20:48.000Z</time>
      </trkpt>
      <trkpt lat="43.55646" lon="6.39278">
        <ele>383.4</ele>
        <time>2023-10-11T13:20:56.000Z</time>
      </trkpt>
      <trkpt lat="43.55651" lon="6.3929">
        <ele>383.1</ele>
        <time>2023-10-11T13:21:04.000Z</time>
      </trkpt>
      <trkpt lat="43.55652" lon="6.39303">
        <ele>382.8</ele>
        <time>2023-10-11T13:21:12.000Z</time>
      </trkpt>
      <trkpt lat="43.55651" lon="6.39316">
        <ele>382.7</ele>
        <time>2023-10-11T13:21:21.000Z</time>
      </trkpt>
      <trkpt lat="43.5565" lon="6.39329">
        <ele>382.5</ele>
        <time>2023-10-11T13:21:30.000Z</time>
      </trkpt>
      <trkpt lat="43.55648" lon="6.39341">
        <ele>382.4</ele>
        <time>2023-10-11T13:21:40.000Z</time>
      </trkpt>
      <trkpt lat="43.55648" lon="6.39341">
        <ele>382.3</ele>
        <time>2023-10-11T13:21:41.000Z</time>
      </trkpt>
      <trkpt lat="43.55648" lon="6.39341">
        <ele>382.3</ele>
        <time>2023-10-11T13:21:45.000Z</time>
      </trkpt>
      <trkpt lat="43.55647" lon="6.39341">
        <ele>382.3</ele>
        <time>2023-10-11T13:21:52.000Z</time>
      </trkpt>
      <trkpt lat="43.55645" lon="6.39354">
        <ele>382.4</ele>
        <time>2023-10-11T13:22:01.000Z</time>
      </trkpt>
      <trkpt lat="43.55643" lon="6.39368">
        <ele>382.4</ele>
        <time>2023-10-11T13:22:08.000Z</time>
      </trkpt>
      <trkpt lat="43.55643" lon="6.39381">
        <ele>382.5</ele>
        <time>2023-10-11T13:22:16.000Z</time>
      </trkpt>
      <trkpt lat="43.55643" lon="6.39395">
        <ele>382.5</ele>
        <time>2023-10-11T13:22:25.000Z</time>
      </trkpt>
      <trkpt lat="43.5564" lon="6.39408">
        <ele>382.6</ele>
        <time>2023-10-11T13:22:33.000Z</time>
      </trkpt>
      <trkpt lat="43.55637" lon="6.39419">
        <ele>382.6</ele>
        <time>2023-10-11T13:22:42.000Z</time>
      </trkpt>
      <trkpt lat="43.55633" lon="6.39433">
        <ele>382.6</ele>
        <time>2023-10-11T13:22:49.000Z</time>
      </trkpt>
      <trkpt lat="43.5563" lon="6.39445">
        <ele>382.6</ele>
        <time>2023-10-11T13:22:56.000Z</time>
      </trkpt>
      <trkpt lat="43.55629" lon="6.39458">
        <ele>382.5</ele>
        <time>2023-10-11T13:23:04.000Z</time>
      </trkpt>
      <trkpt lat="43.55628" lon="6.3947">
        <ele>382.4</ele>
        <time>2023-10-11T13:23:11.000Z</time>
      </trkpt>
      <trkpt lat="43.55628" lon="6.39484">
        <ele>382.3</ele>
        <time>2023-10-11T13:23:19.000Z</time>
      </trkpt>
      <trkpt lat="43.55629" lon="6.39497">
        <ele>382.2</ele>
        <time>2023-10-11T13:23:28.000Z</time>
      </trkpt>
      <trkpt lat="43.55631" lon="6.3951">
        <ele>382</ele>
        <time>2023-10-11T13:23:34.000Z</time>
      </trkpt>
      <trkpt lat="43.55633" lon="6.39522">
        <ele>381.8</ele>
        <time>2023-10-11T13:23:42.000Z</time>
      </trkpt>
      <trkpt lat="43.55633" lon="6.39526">
        <ele>381.5</ele>
        <time>2023-10-11T13:23:51.000Z</time>
      </trkpt>
      <trkpt lat="43.55634" lon="6.39526">
        <ele>381.5</ele>
        <time>2023-10-11T13:23:52.000Z</time>
      </trkpt>
      <trkpt lat="43.55633" lon="6.39527">
        <ele>381.4</ele>
        <time>2023-10-11T13:23:56.000Z</time>
      </trkpt>
      <trkpt lat="43.55633" lon="6.39527">
        <ele>381.2</ele>
        <time>2023-10-11T13:24:04.000Z</time>
      </trkpt>
      <trkpt lat="43.55633" lon="6.39527">
        <ele>381.2</ele>
        <time>2023-10-11T13:24:05.000Z</time>
      </trkpt>
      <trkpt lat="43.55632" lon="6.39527">
        <ele>381.1</ele>
        <time>2023-10-11T13:24:10.000Z</time>
      </trkpt>
      <trkpt lat="43.55632" lon="6.39527">
        <ele>381</ele>
        <time>2023-10-11T13:24:11.000Z</time>
      </trkpt>
      <trkpt lat="43.55632" lon="6.39526">
        <ele>380.8</ele>
        <time>2023-10-11T13:24:21.000Z</time>
      </trkpt>
      <trkpt lat="43.55633" lon="6.39526">
        <ele>380.8</ele>
        <time>2023-10-11T13:24:23.000Z</time>
      </trkpt>
      <trkpt lat="43.55632" lon="6.39525">
        <ele>380.7</ele>
        <time>2023-10-11T13:24:28.000Z</time>
      </trkpt>
      <trkpt lat="43.55634" lon="6.39526">
        <ele>380.6</ele>
        <time>2023-10-11T13:24:36.000Z</time>
      </trkpt>
      <trkpt lat="43.55634" lon="6.39525">
        <ele>380.6</ele>
        <time>2023-10-11T13:24:37.000Z</time>
      </trkpt>
      <trkpt lat="43.55634" lon="6.39525">
        <ele>380.6</ele>
        <time>2023-10-11T13:24:38.000Z</time>
      </trkpt>
      <trkpt lat="43.55634" lon="6.39525">
        <ele>380.6</ele>
        <time>2023-10-11T13:24:39.000Z</time>
      </trkpt>
      <trkpt lat="43.55634" lon="6.39524">
        <ele>380.5</ele>
        <time>2023-10-11T13:24:49.000Z</time>
      </trkpt>
      <trkpt lat="43.55634" lon="6.39524">
        <ele>380.4</ele>
        <time>2023-10-11T13:25:04.000Z</time>
      </trkpt>
      <trkpt lat="43.55634" lon="6.39524">
        <ele>380.4</ele>
        <time>2023-10-11T13:25:06.000Z</time>
      </trkpt>
      <trkpt lat="43.55634" lon="6.39524">
        <ele>380.3</ele>
        <time>2023-10-11T13:25:16.000Z</time>
      </trkpt>
      <trkpt lat="43.55636" lon="6.39525">
        <ele>380.3</ele>
        <time>2023-10-11T13:25:23.000Z</time>
      </trkpt>
      <trkpt lat="43.55636" lon="6.39525">
        <ele>380.2</ele>
        <time>2023-10-11T13:25:36.000Z</time>
      </trkpt>
      <trkpt lat="43.55635" lon="6.39524">
        <ele>380.2</ele>
        <time>2023-10-11T13:25:44.000Z</time>
      </trkpt>
      <trkpt lat="43.55635" lon="6.39524">
        <ele>380.2</ele>
        <time>2023-10-11T13:25:46.000Z</time>
      </trkpt>
      <trkpt lat="43.55634" lon="6.39524">
        <ele>380.2</ele>
        <time>2023-10-11T13:25:49.000Z</time>
      </trkpt>
      <trkpt lat="43.55634" lon="6.39524">
        <ele>380.1</ele>
        <time>2023-10-11T13:26:05.000Z</time>
      </trkpt>
      <trkpt lat="43.55634" lon="6.39524">
        <ele>380.1</ele>
        <time>2023-10-11T13:26:06.000Z</time>
      </trkpt>
      <trkpt lat="43.55634" lon="6.39524">
        <ele>380.1</ele>
        <time>2023-10-11T13:26:07.000Z</time>
      </trkpt>
      <trkpt lat="43.55633" lon="6.39525">
        <ele>380</ele>
        <time>2023-10-11T13:26:09.000Z</time>
      </trkpt>
      <trkpt lat="43.55633" lon="6.39525">
        <ele>380</ele>
        <time>2023-10-11T13:26:12.000Z</time>
      </trkpt>
      <trkpt lat="43.55633" lon="6.39525">
        <ele>380</ele>
        <time>2023-10-11T13:26:13.000Z</time>
      </trkpt>
      <trkpt lat="43.55633" lon="6.39525">
        <ele>380</ele>
        <time>2023-10-11T13:26:14.000Z</time>
      </trkpt>
      <trkpt lat="43.55631" lon="6.39525">
        <ele>380</ele>
        <time>2023-10-11T13:26:19.000Z</time>
      </trkpt>
      <trkpt lat="43.55632" lon="6.39525">
        <ele>380</ele>
        <time>2023-10-11T13:26:20.000Z</time>
      </trkpt>
      <trkpt lat="43.55631" lon="6.39525">
        <ele>380</ele>
        <time>2023-10-11T13:26:23.000Z</time>
      </trkpt>
      <trkpt lat="43.55631" lon="6.39525">
        <ele>380</ele>
        <time>2023-10-11T13:26:24.000Z</time>
      </trkpt>
      <trkpt lat="43.55631" lon="6.39524">
        <ele>380</ele>
        <time>2023-10-11T13:26:26.000Z</time>
      </trkpt>
      <trkpt lat="43.55632" lon="6.39524">
        <ele>380</ele>
        <time>2023-10-11T13:26:34.000Z</time>
      </trkpt>
      <trkpt lat="43.55632" lon="6.39524">
        <ele>380</ele>
        <time>2023-10-11T13:26:35.000Z</time>
      </trkpt>
      <trkpt lat="43.55632" lon="6.39525">
        <ele>380</ele>
        <time>2023-10-11T13:26:40.000Z</time>
      </trkpt>
      <trkpt lat="43.55632" lon="6.39525">
        <ele>380</ele>
        <time>2023-10-11T13:26:41.000Z</time>
      </trkpt>
      <trkpt lat="43.55632" lon="6.39525">
        <ele>380</ele>
        <time>2023-10-11T13:26:43.000Z</time>
      </trkpt>
      <trkpt lat="43.55632" lon="6.39525">
        <ele>380</ele>
        <time>2023-10-11T13:26:44.000Z</time>
      </trkpt>
      <trkpt lat="43.55632" lon="6.39524">
        <ele>380</ele>
        <time>2023-10-11T13:26:47.000Z</time>
      </trkpt>
      <trkpt lat="43.55632" lon="6.39523">
        <ele>380</ele>
        <time>2023-10-11T13:26:50.000Z</time>
      </trkpt>
      <trkpt lat="43.55632" lon="6.39523">
        <ele>380</ele>
        <time>2023-10-11T13:26:53.000Z</time>
      </trkpt>
      <trkpt lat="43.55632" lon="6.39523">
        <ele>380</ele>
        <time>2023-10-11T13:26:54.000Z</time>
      </trkpt>
      <trkpt lat="43.55632" lon="6.39523">
        <ele>380</ele>
        <time>2023-10-11T13:26:55.000Z</time>
      </trkpt>
      <trkpt lat="43.55632" lon="6.39523">
        <ele>380</ele>
        <time>2023-10-11T13:26:56.000Z</time>
      </trkpt>
      <trkpt lat="43.55633" lon="6.39523">
        <ele>380</ele>
        <time>2023-10-11T13:27:01.000Z</time>
      </trkpt>
      <trkpt lat="43.55633" lon="6.39523">
        <ele>380</ele>
        <time>2023-10-11T13:27:02.000Z</time>
      </trkpt>
      <trkpt lat="43.55633" lon="6.39523">
        <ele>380</ele>
        <time>2023-10-11T13:27:04.000Z</time>
      </trkpt>
      <trkpt lat="43.55633" lon="6.39523">
        <ele>380</ele>
        <time>2023-10-11T13:27:06.000Z</time>
      </trkpt>
      <trkpt lat="43.55633" lon="6.39522">
        <ele>379.9</ele>
        <time>2023-10-11T13:27:10.000Z</time>
      </trkpt>
      <trkpt lat="43.55633" lon="6.39522">
        <ele>379.9</ele>
        <time>2023-10-11T13:27:13.000Z</time>
      </trkpt>
      <trkpt lat="43.55633" lon="6.39522">
        <ele>379.9</ele>
        <time>2023-10-11T13:27:14.000Z</time>
      </trkpt>
      <trkpt lat="43.55633" lon="6.39522">
        <ele>379.9</ele>
        <time>2023-10-11T13:27:17.000Z</time>
      </trkpt>
      <trkpt lat="43.55633" lon="6.39522">
        <ele>379.9</ele>
        <time>2023-10-11T13:27:22.000Z</time>
      </trkpt>
      <trkpt lat="43.55633" lon="6.39522">
        <ele>379.9</ele>
        <time>2023-10-11T13:27:23.000Z</time>
      </trkpt>
      <trkpt lat="43.55633" lon="6.39522">
        <ele>379.9</ele>
        <time>2023-10-11T13:27:35.000Z</time>
      </trkpt>
      <trkpt lat="43.55633" lon="6.39522">
        <ele>379.9</ele>
        <time>2023-10-11T13:27:36.000Z</time>
      </trkpt>
      <trkpt lat="43.55633" lon="6.39522">
        <ele>379.9</ele>
        <time>2023-10-11T13:27:39.000Z</time>
      </trkpt>
      <trkpt lat="43.55633" lon="6.39522">
        <ele>379.9</ele>
        <time>2023-10-11T13:27:42.000Z</time>
      </trkpt>
      <trkpt lat="43.55633" lon="6.39522">
        <ele>379.9</ele>
        <time>2023-10-11T13:27:51.000Z</time>
      </trkpt>
      <trkpt lat="43.55633" lon="6.39522">
        <ele>379.9</ele>
        <time>2023-10-11T13:27:52.000Z</time>
      </trkpt>
      <trkpt lat="43.55632" lon="6.39522">
        <ele>379.9</ele>
        <time>2023-10-11T13:27:54.000Z</time>
      </trkpt>
      <trkpt lat="43.55632" lon="6.39522">
        <ele>379.9</ele>
        <time>2023-10-11T13:27:56.000Z</time>
      </trkpt>
      <trkpt lat="43.55632" lon="6.39522">
        <ele>379.9</ele>
        <time>2023-10-11T13:27:58.000Z</time>
      </trkpt>
      <trkpt lat="43.55626" lon="6.39531">
        <ele>379.9</ele>
        <time>2023-10-11T13:28:07.000Z</time>
      </trkpt>
      <trkpt lat="43.55619" lon="6.39541">
        <ele>379.8</ele>
        <time>2023-10-11T13:28:15.000Z</time>
      </trkpt>
      <trkpt lat="43.55612" lon="6.39551">
        <ele>379.8</ele>
        <time>2023-10-11T13:28:23.000Z</time>
      </trkpt>
      <trkpt lat="43.55605" lon="6.39561">
        <ele>379.7</ele>
        <time>2023-10-11T13:28:32.000Z</time>
      </trkpt>
      <trkpt lat="43.55599" lon="6.39572">
        <ele>379.7</ele>
        <time>2023-10-11T13:28:40.000Z</time>
      </trkpt>
      <trkpt lat="43.5559" lon="6.39577">
        <ele>379.7</ele>
        <time>2023-10-11T13:28:49.000Z</time>
      </trkpt>
      <trkpt lat="43.5558" lon="6.39572">
        <ele>379.9</ele>
        <time>2023-10-11T13:28:59.000Z</time>
      </trkpt>
      <trkpt lat="43.55572" lon="6.39566">
        <ele>380.1</ele>
        <time>2023-10-11T13:29:07.000Z</time>
      </trkpt>
      <trkpt lat="43.55566" lon="6.39555">
        <ele>380</ele>
        <time>2023-10-11T13:29:15.000Z</time>
      </trkpt>
      <trkpt lat="43.55565" lon="6.39541">
        <ele>379.6</ele>
        <time>2023-10-11T13:29:25.000Z</time>
      </trkpt>
      <trkpt lat="43.55559" lon="6.39532">
        <ele>378.6</ele>
        <time>2023-10-11T13:29:34.000Z</time>
      </trkpt>
      <trkpt lat="43.55549" lon="6.39529">
        <ele>377.7</ele>
        <time>2023-10-11T13:29:40.000Z</time>
      </trkpt>
      <trkpt lat="43.5554" lon="6.39526">
        <ele>376.5</ele>
        <time>2023-10-11T13:29:48.000Z</time>
      </trkpt>
      <trkpt lat="43.55534" lon="6.39517">
        <ele>375.3</ele>
        <time>2023-10-11T13:29:57.000Z</time>
      </trkpt>
      <trkpt lat="43.55529" lon="6.39506">
        <ele>374</ele>
        <time>2023-10-11T13:30:05.000Z</time>
      </trkpt>
      <trkpt lat="43.55524" lon="6.39496">
        <ele>372.9</ele>
        <time>2023-10-11T13:30:12.000Z</time>
      </trkpt>
      <trkpt lat="43.55516" lon="6.39488">
        <ele>372.1</ele>
        <time>2023-10-11T13:30:18.000Z</time>
      </trkpt>
      <trkpt lat="43.55507" lon="6.39488">
        <ele>371.2</ele>
        <time>2023-10-11T13:30:24.000Z</time>
      </trkpt>
      <trkpt lat="43.55498" lon="6.39489">
        <ele>370.5</ele>
        <time>2023-10-11T13:30:30.000Z</time>
      </trkpt>
      <trkpt lat="43.55488" lon="6.39491">
        <ele>369.8</ele>
        <time>2023-10-11T13:30:38.000Z</time>
      </trkpt>
      <trkpt lat="43.55479" lon="6.39496">
        <ele>369.4</ele>
        <time>2023-10-11T13:30:45.000Z</time>
      </trkpt>
      <trkpt lat="43.5547" lon="6.39498">
        <ele>369</ele>
        <time>2023-10-11T13:30:53.000Z</time>
      </trkpt>
      <trkpt lat="43.55461" lon="6.39504">
        <ele>368.6</ele>
        <time>2023-10-11T13:31:02.000Z</time>
      </trkpt>
      <trkpt lat="43.55452" lon="6.39506">
        <ele>368.4</ele>
        <time>2023-10-11T13:31:11.000Z</time>
      </trkpt>
      <trkpt lat="43.55443" lon="6.39509">
        <ele>368.1</ele>
        <time>2023-10-11T13:31:19.000Z</time>
      </trkpt>
      <trkpt lat="43.55437" lon="6.39519">
        <ele>367.9</ele>
        <time>2023-10-11T13:31:26.000Z</time>
      </trkpt>
      <trkpt lat="43.55434" lon="6.39531">
        <ele>367.7</ele>
        <time>2023-10-11T13:31:32.000Z</time>
      </trkpt>
      <trkpt lat="43.55432" lon="6.39532">
        <ele>367.5</ele>
        <time>2023-10-11T13:31:35.000Z</time>
      </trkpt>
      <trkpt lat="43.55432" lon="6.39532">
        <ele>367.4</ele>
        <time>2023-10-11T13:31:37.000Z</time>
      </trkpt>
      <trkpt lat="43.55432" lon="6.39532">
        <ele>367.3</ele>
        <time>2023-10-11T13:31:39.000Z</time>
      </trkpt>
      <trkpt lat="43.55432" lon="6.39532">
        <ele>367.3</ele>
        <time>2023-10-11T13:31:40.000Z</time>
      </trkpt>
      <trkpt lat="43.55429" lon="6.39531">
        <ele>366.9</ele>
        <time>2023-10-11T13:31:48.000Z</time>
      </trkpt>
      <trkpt lat="43.55429" lon="6.39531">
        <ele>366.8</ele>
        <time>2023-10-11T13:31:49.000Z</time>
      </trkpt>
      <trkpt lat="43.5543" lon="6.3953">
        <ele>366.6</ele>
        <time>2023-10-11T13:31:52.000Z</time>
      </trkpt>
      <trkpt lat="43.5543" lon="6.3953">
        <ele>366.5</ele>
        <time>2023-10-11T13:31:55.000Z</time>
      </trkpt>
      <trkpt lat="43.5543" lon="6.3953">
        <ele>366.5</ele>
        <time>2023-10-11T13:31:56.000Z</time>
      </trkpt>
      <trkpt lat="43.5543" lon="6.3953">
        <ele>366.4</ele>
        <time>2023-10-11T13:31:59.000Z</time>
      </trkpt>
      <trkpt lat="43.55423" lon="6.39521">
        <ele>365.7</ele>
        <time>2023-10-11T13:32:12.000Z</time>
      </trkpt>
      <trkpt lat="43.55415" lon="6.39515">
        <ele>365.1</ele>
        <time>2023-10-11T13:32:21.000Z</time>
      </trkpt>
      <trkpt lat="43.55407" lon="6.39508">
        <ele>363.5</ele>
        <time>2023-10-11T13:32:32.000Z</time>
      </trkpt>
      <trkpt lat="43.55399" lon="6.395">
        <ele>361.4</ele>
        <time>2023-10-11T13:32:42.000Z</time>
      </trkpt>
      <trkpt lat="43.55393" lon="6.39489">
        <ele>359.2</ele>
        <time>2023-10-11T13:32:51.000Z</time>
      </trkpt>
      <trkpt lat="43.55388" lon="6.39478">
        <ele>357.4</ele>
        <time>2023-10-11T13:32:59.000Z</time>
      </trkpt>
      <trkpt lat="43.55385" lon="6.39465">
        <ele>355.9</ele>
        <time>2023-10-11T13:33:06.000Z</time>
      </trkpt>
      <trkpt lat="43.55387" lon="6.39459">
        <ele>354.1</ele>
        <time>2023-10-11T13:33:16.000Z</time>
      </trkpt>
      <trkpt lat="43.55387" lon="6.39459">
        <ele>353.8</ele>
        <time>2023-10-11T13:33:20.000Z</time>
      </trkpt>
      <trkpt lat="43.55388" lon="6.39459">
        <ele>353.5</ele>
        <time>2023-10-11T13:33:24.000Z</time>
      </trkpt>
      <trkpt lat="43.55387" lon="6.39459">
        <ele>353.4</ele>
        <time>2023-10-11T13:33:25.000Z</time>
      </trkpt>
      <trkpt lat="43.55386" lon="6.39461">
        <ele>353</ele>
        <time>2023-10-11T13:33:32.000Z</time>
      </trkpt>
      <trkpt lat="43.55386" lon="6.39462">
        <ele>352.9</ele>
        <time>2023-10-11T13:33:34.000Z</time>
      </trkpt>
      <trkpt lat="43.55387" lon="6.39466">
        <ele>352.7</ele>
        <time>2023-10-11T13:33:41.000Z</time>
      </trkpt>
      <trkpt lat="43.55387" lon="6.39466">
        <ele>352.6</ele>
        <time>2023-10-11T13:33:58.000Z</time>
      </trkpt>
      <trkpt lat="43.55385" lon="6.39463">
        <ele>352.6</ele>
        <time>2023-10-11T13:34:09.000Z</time>
      </trkpt>
      <trkpt lat="43.55385" lon="6.39464">
        <ele>352.5</ele>
        <time>2023-10-11T13:34:13.000Z</time>
      </trkpt>
      <trkpt lat="43.55387" lon="6.39465">
        <ele>352.5</ele>
        <time>2023-10-11T13:34:18.000Z</time>
      </trkpt>
      <trkpt lat="43.55387" lon="6.39465">
        <ele>352.5</ele>
        <time>2023-10-11T13:34:32.000Z</time>
      </trkpt>
      <trkpt lat="43.55387" lon="6.39465">
        <ele>352.5</ele>
        <time>2023-10-11T13:34:33.000Z</time>
      </trkpt>
      <trkpt lat="43.55387" lon="6.39465">
        <ele>352.5</ele>
        <time>2023-10-11T13:35:05.000Z</time>
      </trkpt>
      <trkpt lat="43.55387" lon="6.39465">
        <ele>352.5</ele>
        <time>2023-10-11T13:35:07.000Z</time>
      </trkpt>
      <trkpt lat="43.55388" lon="6.39465">
        <ele>352.5</ele>
        <time>2023-10-11T13:35:11.000Z</time>
      </trkpt>
      <trkpt lat="43.55388" lon="6.39465">
        <ele>352.5</ele>
        <time>2023-10-11T13:35:12.000Z</time>
      </trkpt>
      <trkpt lat="43.55388" lon="6.39465">
        <ele>352.5</ele>
        <time>2023-10-11T13:35:13.000Z</time>
      </trkpt>
      <trkpt lat="43.55386" lon="6.39453">
        <ele>352.4</ele>
        <time>2023-10-11T13:35:23.000Z</time>
      </trkpt>
      <trkpt lat="43.55377" lon="6.39446">
        <ele>352.1</ele>
        <time>2023-10-11T13:35:30.000Z</time>
      </trkpt>
      <trkpt lat="43.55368" lon="6.39451">
        <ele>351</ele>
        <time>2023-10-11T13:35:37.000Z</time>
      </trkpt>
      <trkpt lat="43.5536" lon="6.39459">
        <ele>348.2</ele>
        <time>2023-10-11T13:35:47.000Z</time>
      </trkpt>
      <trkpt lat="43.55351" lon="6.39463">
        <ele>345.9</ele>
        <time>2023-10-11T13:35:55.000Z</time>
      </trkpt>
      <trkpt lat="43.55342" lon="6.3947">
        <ele>343.9</ele>
        <time>2023-10-11T13:36:09.000Z</time>
      </trkpt>
      <trkpt lat="43.55333" lon="6.39473">
        <ele>343.3</ele>
        <time>2023-10-11T13:36:19.000Z</time>
      </trkpt>
      <trkpt lat="43.55324" lon="6.39477">
        <ele>342.8</ele>
        <time>2023-10-11T13:36:29.000Z</time>
      </trkpt>
      <trkpt lat="43.55316" lon="6.39484">
        <ele>342.5</ele>
        <time>2023-10-11T13:36:39.000Z</time>
      </trkpt>
      <trkpt lat="43.55306" lon="6.39483">
        <ele>342.3</ele>
        <time>2023-10-11T13:36:47.000Z</time>
      </trkpt>
      <trkpt lat="43.55298" lon="6.39489">
        <ele>342.2</ele>
        <time>2023-10-11T13:36:55.000Z</time>
      </trkpt>
      <trkpt lat="43.55291" lon="6.39498">
        <ele>342.2</ele>
        <time>2023-10-11T13:37:05.000Z</time>
      </trkpt>
      <trkpt lat="43.55282" lon="6.39504">
        <ele>342.4</ele>
        <time>2023-10-11T13:37:13.000Z</time>
      </trkpt>
      <trkpt lat="43.55275" lon="6.39511">
        <ele>342.8</ele>
        <time>2023-10-11T13:37:26.000Z</time>
      </trkpt>
      <trkpt lat="43.55265" lon="6.39512">
        <ele>343</ele>
        <time>2023-10-11T13:37:34.000Z</time>
      </trkpt>
      <trkpt lat="43.55256" lon="6.39516">
        <ele>343.1</ele>
        <time>2023-10-11T13:37:41.000Z</time>
      </trkpt>
      <trkpt lat="43.55248" lon="6.39521">
        <ele>343.2</ele>
        <time>2023-10-11T13:37:52.000Z</time>
      </trkpt>
      <trkpt lat="43.55241" lon="6.3953">
        <ele>343.3</ele>
        <time>2023-10-11T13:38:01.000Z</time>
      </trkpt>
      <trkpt lat="43.55233" lon="6.39536">
        <ele>343.5</ele>
        <time>2023-10-11T13:38:09.000Z</time>
      </trkpt>
      <trkpt lat="43.55223" lon="6.3954">
        <ele>343.7</ele>
        <time>2023-10-11T13:38:17.000Z</time>
      </trkpt>
      <trkpt lat="43.55215" lon="6.39545">
        <ele>344.2</ele>
        <time>2023-10-11T13:38:27.000Z</time>
      </trkpt>
      <trkpt lat="43.55206" lon="6.39548">
        <ele>344.9</ele>
        <time>2023-10-11T13:38:35.000Z</time>
      </trkpt>
      <trkpt lat="43.55198" lon="6.39557">
        <ele>345.4</ele>
        <time>2023-10-11T13:38:42.000Z</time>
      </trkpt>
      <trkpt lat="43.55189" lon="6.39556">
        <ele>345.8</ele>
        <time>2023-10-11T13:38:48.000Z</time>
      </trkpt>
      <trkpt lat="43.55179" lon="6.39558">
        <ele>346.4</ele>
        <time>2023-10-11T13:38:57.000Z</time>
      </trkpt>
      <trkpt lat="43.55174" lon="6.39564">
        <ele>348.1</ele>
        <time>2023-10-11T13:39:12.000Z</time>
      </trkpt>
      <trkpt lat="43.55174" lon="6.39564">
        <ele>348.2</ele>
        <time>2023-10-11T13:39:13.000Z</time>
      </trkpt>
      <trkpt lat="43.55174" lon="6.39564">
        <ele>348.3</ele>
        <time>2023-10-11T13:39:14.000Z</time>
      </trkpt>
      <trkpt lat="43.55174" lon="6.39565">
        <ele>348.5</ele>
        <time>2023-10-11T13:39:16.000Z</time>
      </trkpt>
      <trkpt lat="43.55174" lon="6.39565">
        <ele>348.6</ele>
        <time>2023-10-11T13:39:17.000Z</time>
      </trkpt>
      <trkpt lat="43.55174" lon="6.39565">
        <ele>348.6</ele>
        <time>2023-10-11T13:39:18.000Z</time>
      </trkpt>
      <trkpt lat="43.55174" lon="6.39564">
        <ele>348.7</ele>
        <time>2023-10-11T13:39:21.000Z</time>
      </trkpt>
      <trkpt lat="43.55173" lon="6.39565">
        <ele>348.8</ele>
        <time>2023-10-11T13:39:23.000Z</time>
      </trkpt>
      <trkpt lat="43.55173" lon="6.39565">
        <ele>348.8</ele>
        <time>2023-10-11T13:39:25.000Z</time>
      </trkpt>
      <trkpt lat="43.55173" lon="6.39565">
        <ele>348.8</ele>
        <time>2023-10-11T13:39:27.000Z</time>
      </trkpt>
      <trkpt lat="43.55173" lon="6.39565">
        <ele>348.9</ele>
        <time>2023-10-11T13:39:29.000Z</time>
      </trkpt>
      <trkpt lat="43.55173" lon="6.39566">
        <ele>348.9</ele>
        <time>2023-10-11T13:39:32.000Z</time>
      </trkpt>
      <trkpt lat="43.55173" lon="6.39566">
        <ele>348.9</ele>
        <time>2023-10-11T13:39:33.000Z</time>
      </trkpt>
      <trkpt lat="43.55173" lon="6.39566">
        <ele>348.9</ele>
        <time>2023-10-11T13:39:34.000Z</time>
      </trkpt>
      <trkpt lat="43.55173" lon="6.39567">
        <ele>348.9</ele>
        <time>2023-10-11T13:39:36.000Z</time>
      </trkpt>
      <trkpt lat="43.55173" lon="6.39566">
        <ele>348.9</ele>
        <time>2023-10-11T13:39:39.000Z</time>
      </trkpt>
      <trkpt lat="43.55166" lon="6.39559">
        <ele>348.5</ele>
        <time>2023-10-11T13:39:53.000Z</time>
      </trkpt>
      <trkpt lat="43.55169" lon="6.39547">
        <ele>347.7</ele>
        <time>2023-10-11T13:40:02.000Z</time>
      </trkpt>
      <trkpt lat="43.5516" lon="6.39548">
        <ele>345.1</ele>
        <time>2023-10-11T13:40:17.000Z</time>
      </trkpt>
      <trkpt lat="43.55151" lon="6.39552">
        <ele>343.1</ele>
        <time>2023-10-11T13:40:29.000Z</time>
      </trkpt>
      <trkpt lat="43.55153" lon="6.3954">
        <ele>340.7</ele>
        <time>2023-10-11T13:40:47.000Z</time>
      </trkpt>
      <trkpt lat="43.55153" lon="6.39527">
        <ele>339.6</ele>
        <time>2023-10-11T13:40:57.000Z</time>
      </trkpt>
      <trkpt lat="43.55152" lon="6.39526">
        <ele>339.2</ele>
        <time>2023-10-11T13:41:00.000Z</time>
      </trkpt>
      <trkpt lat="43.55152" lon="6.39526">
        <ele>339.1</ele>
        <time>2023-10-11T13:41:01.000Z</time>
      </trkpt>
      <trkpt lat="43.55146" lon="6.39515">
        <ele>337.6</ele>
        <time>2023-10-11T13:41:13.000Z</time>
      </trkpt>
      <trkpt lat="43.55137" lon="6.3952">
        <ele>335.5</ele>
        <time>2023-10-11T13:41:26.000Z</time>
      </trkpt>
      <trkpt lat="43.55129" lon="6.39513">
        <ele>331.7</ele>
        <time>2023-10-11T13:41:51.000Z</time>
      </trkpt>
      <trkpt lat="43.55123" lon="6.39504">
        <ele>329.9</ele>
        <time>2023-10-11T13:42:04.000Z</time>
      </trkpt>
      <trkpt lat="43.55117" lon="6.39494">
        <ele>328.6</ele>
        <time>2023-10-11T13:42:14.000Z</time>
      </trkpt>
      <trkpt lat="43.55109" lon="6.39487">
        <ele>326.8</ele>
        <time>2023-10-11T13:42:28.000Z</time>
      </trkpt>
      <trkpt lat="43.55103" lon="6.39487">
        <ele>325.9</ele>
        <time>2023-10-11T13:42:37.000Z</time>
      </trkpt>
      <trkpt lat="43.55104" lon="6.39488">
        <ele>325.7</ele>
        <time>2023-10-11T13:42:41.000Z</time>
      </trkpt>
      <trkpt lat="43.55105" lon="6.39488">
        <ele>325.8</ele>
        <time>2023-10-11T13:42:46.000Z</time>
      </trkpt>
      <trkpt lat="43.55105" lon="6.39488">
        <ele>325.8</ele>
        <time>2023-10-11T13:42:55.000Z</time>
      </trkpt>
      <trkpt lat="43.55104" lon="6.39493">
        <ele>325.6</ele>
        <time>2023-10-11T13:43:03.000Z</time>
      </trkpt>
      <trkpt lat="43.55104" lon="6.39493">
        <ele>325.4</ele>
        <time>2023-10-11T13:43:14.000Z</time>
      </trkpt>
      <trkpt lat="43.55104" lon="6.39493">
        <ele>325.4</ele>
        <time>2023-10-11T13:43:15.000Z</time>
      </trkpt>
      <trkpt lat="43.55104" lon="6.39494">
        <ele>325.4</ele>
        <time>2023-10-11T13:43:22.000Z</time>
      </trkpt>
      <trkpt lat="43.55104" lon="6.39494">
        <ele>325.4</ele>
        <time>2023-10-11T13:43:23.000Z</time>
      </trkpt>
      <trkpt lat="43.55104" lon="6.39493">
        <ele>325.3</ele>
        <time>2023-10-11T13:43:25.000Z</time>
      </trkpt>
      <trkpt lat="43.55104" lon="6.39493">
        <ele>325.3</ele>
        <time>2023-10-11T13:43:26.000Z</time>
      </trkpt>
      <trkpt lat="43.55104" lon="6.39493">
        <ele>325.3</ele>
        <time>2023-10-11T13:43:39.000Z</time>
      </trkpt>
      <trkpt lat="43.55104" lon="6.39493">
        <ele>325.3</ele>
        <time>2023-10-11T13:43:40.000Z</time>
      </trkpt>
      <trkpt lat="43.55104" lon="6.39493">
        <ele>325.3</ele>
        <time>2023-10-11T13:43:41.000Z</time>
      </trkpt>
      <trkpt lat="43.55105" lon="6.39493">
        <ele>325.3</ele>
        <time>2023-10-11T13:43:44.000Z</time>
      </trkpt>
      <trkpt lat="43.55105" lon="6.39493">
        <ele>325.3</ele>
        <time>2023-10-11T13:43:45.000Z</time>
      </trkpt>
      <trkpt lat="43.55105" lon="6.39493">
        <ele>325.3</ele>
        <time>2023-10-11T13:43:47.000Z</time>
      </trkpt>
      <trkpt lat="43.55105" lon="6.39493">
        <ele>325.3</ele>
        <time>2023-10-11T13:43:48.000Z</time>
      </trkpt>
      <trkpt lat="43.55105" lon="6.39493">
        <ele>325.3</ele>
        <time>2023-10-11T13:43:50.000Z</time>
      </trkpt>
      <trkpt lat="43.55105" lon="6.39494">
        <ele>325.3</ele>
        <time>2023-10-11T13:43:55.000Z</time>
      </trkpt>
      <trkpt lat="43.55105" lon="6.39494">
        <ele>325.3</ele>
        <time>2023-10-11T13:43:56.000Z</time>
      </trkpt>
      <trkpt lat="43.55105" lon="6.39493">
        <ele>325.3</ele>
        <time>2023-10-11T13:44:19.000Z</time>
      </trkpt>
      <trkpt lat="43.55105" lon="6.39493">
        <ele>325.3</ele>
        <time>2023-10-11T13:44:20.000Z</time>
      </trkpt>
      <trkpt lat="43.55105" lon="6.39493">
        <ele>325.3</ele>
        <time>2023-10-11T13:44:25.000Z</time>
      </trkpt>
      <trkpt lat="43.55105" lon="6.39492">
        <ele>325.3</ele>
        <time>2023-10-11T13:44:27.000Z</time>
      </trkpt>
      <trkpt lat="43.55105" lon="6.39492">
        <ele>325.3</ele>
        <time>2023-10-11T13:44:39.000Z</time>
      </trkpt>
      <trkpt lat="43.55105" lon="6.39492">
        <ele>325.3</ele>
        <time>2023-10-11T13:44:41.000Z</time>
      </trkpt>
      <trkpt lat="43.55105" lon="6.39492">
        <ele>325.3</ele>
        <time>2023-10-11T13:44:51.000Z</time>
      </trkpt>
      <trkpt lat="43.55105" lon="6.39492">
        <ele>325.3</ele>
        <time>2023-10-11T13:44:52.000Z</time>
      </trkpt>
      <trkpt lat="43.55105" lon="6.39492">
        <ele>325.4</ele>
        <time>2023-10-11T13:45:04.000Z</time>
      </trkpt>
      <trkpt lat="43.55106" lon="6.39492">
        <ele>325.4</ele>
        <time>2023-10-11T13:45:09.000Z</time>
      </trkpt>
      <trkpt lat="43.55106" lon="6.39492">
        <ele>325.4</ele>
        <time>2023-10-11T13:45:17.000Z</time>
      </trkpt>
      <trkpt lat="43.55106" lon="6.39492">
        <ele>325.4</ele>
        <time>2023-10-11T13:45:18.000Z</time>
      </trkpt>
      <trkpt lat="43.55106" lon="6.39492">
        <ele>325.4</ele>
        <time>2023-10-11T13:45:30.000Z</time>
      </trkpt>
      <trkpt lat="43.55106" lon="6.39492">
        <ele>325.4</ele>
        <time>2023-10-11T13:45:31.000Z</time>
      </trkpt>
      <trkpt lat="43.55106" lon="6.39492">
        <ele>325.4</ele>
        <time>2023-10-11T13:45:38.000Z</time>
      </trkpt>
      <trkpt lat="43.55106" lon="6.39493">
        <ele>325.4</ele>
        <time>2023-10-11T13:45:39.000Z</time>
      </trkpt>
      <trkpt lat="43.55106" lon="6.39493">
        <ele>325.4</ele>
        <time>2023-10-11T13:45:42.000Z</time>
      </trkpt>
      <trkpt lat="43.55106" lon="6.39493">
        <ele>325.4</ele>
        <time>2023-10-11T13:45:43.000Z</time>
      </trkpt>
      <trkpt lat="43.55105" lon="6.39493">
        <ele>325.4</ele>
        <time>2023-10-11T13:45:45.000Z</time>
      </trkpt>
      <trkpt lat="43.55108" lon="6.3948">
        <ele>325.3</ele>
        <time>2023-10-11T13:45:58.000Z</time>
      </trkpt>
      <trkpt lat="43.55112" lon="6.39468">
        <ele>325.1</ele>
        <time>2023-10-11T13:46:10.000Z</time>
      </trkpt>
      <trkpt lat="43.55115" lon="6.39455">
        <ele>324.8</ele>
        <time>2023-10-11T13:46:16.000Z</time>
      </trkpt>
      <trkpt lat="43.55117" lon="6.39442">
        <ele>324</ele>
        <time>2023-10-11T13:46:26.000Z</time>
      </trkpt>
      <trkpt lat="43.55119" lon="6.39429">
        <ele>323.2</ele>
        <time>2023-10-11T13:46:34.000Z</time>
      </trkpt>
      <trkpt lat="43.55122" lon="6.39416">
        <ele>322.2</ele>
        <time>2023-10-11T13:46:44.000Z</time>
      </trkpt>
      <trkpt lat="43.55127" lon="6.39404">
        <ele>321.5</ele>
        <time>2023-10-11T13:46:52.000Z</time>
      </trkpt>
      <trkpt lat="43.55128" lon="6.39391">
        <ele>321.2</ele>
        <time>2023-10-11T13:46:58.000Z</time>
      </trkpt>
      <trkpt lat="43.55133" lon="6.3938">
        <ele>320.9</ele>
        <time>2023-10-11T13:47:05.000Z</time>
      </trkpt>
      <trkpt lat="43.55125" lon="6.39374">
        <ele>320.7</ele>
        <time>2023-10-11T13:47:19.000Z</time>
      </trkpt>
      <trkpt lat="43.55117" lon="6.39378">
        <ele>320.6</ele>
        <time>2023-10-11T13:47:29.000Z</time>
      </trkpt>
      <trkpt lat="43.55109" lon="6.39385">
        <ele>320.5</ele>
        <time>2023-10-11T13:47:38.000Z</time>
      </trkpt>
      <trkpt lat="43.55101" lon="6.39394">
        <ele>320.6</ele>
        <time>2023-10-11T13:47:44.000Z</time>
      </trkpt>
      <trkpt lat="43.55094" lon="6.39401">
        <ele>320.6</ele>
        <time>2023-10-11T13:47:51.000Z</time>
      </trkpt>
      <trkpt lat="43.55086" lon="6.39407">
        <ele>320.7</ele>
        <time>2023-10-11T13:48:00.000Z</time>
      </trkpt>
      <trkpt lat="43.55085" lon="6.39407">
        <ele>320.7</ele>
        <time>2023-10-11T13:48:02.000Z</time>
      </trkpt>
      <trkpt lat="43.55084" lon="6.39407">
        <ele>320.7</ele>
        <time>2023-10-11T13:48:03.000Z</time>
      </trkpt>
      <trkpt lat="43.55075" lon="6.39412">
        <ele>320.8</ele>
        <time>2023-10-11T13:48:10.000Z</time>
      </trkpt>
      <trkpt lat="43.55066" lon="6.39417">
        <ele>320.9</ele>
        <time>2023-10-11T13:48:20.000Z</time>
      </trkpt>
      <trkpt lat="43.55057" lon="6.39422">
        <ele>321</ele>
        <time>2023-10-11T13:48:30.000Z</time>
      </trkpt>
      <trkpt lat="43.55049" lon="6.39425">
        <ele>321.1</ele>
        <time>2023-10-11T13:48:35.000Z</time>
      </trkpt>
      <trkpt lat="43.55039" lon="6.39427">
        <ele>321.3</ele>
        <time>2023-10-11T13:48:41.000Z</time>
      </trkpt>
      <trkpt lat="43.55032" lon="6.39419">
        <ele>321.5</ele>
        <time>2023-10-11T13:48:52.000Z</time>
      </trkpt>
      <trkpt lat="43.55025" lon="6.39411">
        <ele>321.8</ele>
        <time>2023-10-11T13:49:00.000Z</time>
      </trkpt>
      <trkpt lat="43.55016" lon="6.39402">
        <ele>321.9</ele>
        <time>2023-10-11T13:49:07.000Z</time>
      </trkpt>
      <trkpt lat="43.55007" lon="6.39398">
        <ele>322</ele>
        <time>2023-10-11T13:49:12.000Z</time>
      </trkpt>
      <trkpt lat="43.54999" lon="6.3939">
        <ele>321.9</ele>
        <time>2023-10-11T13:49:22.000Z</time>
      </trkpt>
      <trkpt lat="43.5499" lon="6.39387">
        <ele>321.8</ele>
        <time>2023-10-11T13:49:28.000Z</time>
      </trkpt>
      <trkpt lat="43.54982" lon="6.3938">
        <ele>321.7</ele>
        <time>2023-10-11T13:49:34.000Z</time>
      </trkpt>
      <trkpt lat="43.54974" lon="6.39373">
        <ele>321.5</ele>
        <time>2023-10-11T13:49:41.000Z</time>
      </trkpt>
      <trkpt lat="43.54966" lon="6.39367">
        <ele>321.2</ele>
        <time>2023-10-11T13:49:50.000Z</time>
      </trkpt>
      <trkpt lat="43.5496" lon="6.39356">
        <ele>320.9</ele>
        <time>2023-10-11T13:49:57.000Z</time>
      </trkpt>
      <trkpt lat="43.54953" lon="6.39347">
        <ele>320.6</ele>
        <time>2023-10-11T13:50:05.000Z</time>
      </trkpt>
      <trkpt lat="43.54945" lon="6.3934">
        <ele>320.4</ele>
        <time>2023-10-11T13:50:12.000Z</time>
      </trkpt>
      <trkpt lat="43.54938" lon="6.39331">
        <ele>320.3</ele>
        <time>2023-10-11T13:50:21.000Z</time>
      </trkpt>
      <trkpt lat="43.54932" lon="6.39322">
        <ele>320.2</ele>
        <time>2023-10-11T13:50:31.000Z</time>
      </trkpt>
      <trkpt lat="43.54923" lon="6.39318">
        <ele>320.4</ele>
        <time>2023-10-11T13:50:38.000Z</time>
      </trkpt>
      <trkpt lat="43.54914" lon="6.39319">
        <ele>320.7</ele>
        <time>2023-10-11T13:50:46.000Z</time>
      </trkpt>
      <trkpt lat="43.54904" lon="6.39316">
        <ele>321.2</ele>
        <time>2023-10-11T13:50:54.000Z</time>
      </trkpt>
      <trkpt lat="43.54894" lon="6.39315">
        <ele>321.9</ele>
        <time>2023-10-11T13:51:01.000Z</time>
      </trkpt>
      <trkpt lat="43.54885" lon="6.3931">
        <ele>323.5</ele>
        <time>2023-10-11T13:51:11.000Z</time>
      </trkpt>
      <trkpt lat="43.54875" lon="6.39307">
        <ele>324.6</ele>
        <time>2023-10-11T13:51:19.000Z</time>
      </trkpt>
      <trkpt lat="43.54866" lon="6.39306">
        <ele>325.8</ele>
        <time>2023-10-11T13:51:27.000Z</time>
      </trkpt>
      <trkpt lat="43.54857" lon="6.39303">
        <ele>327.8</ele>
        <time>2023-10-11T13:51:40.000Z</time>
      </trkpt>
      <trkpt lat="43.54848" lon="6.39305">
        <ele>328.9</ele>
        <time>2023-10-11T13:51:48.000Z</time>
      </trkpt>
      <trkpt lat="43.54838" lon="6.39306">
        <ele>330.1</ele>
        <time>2023-10-11T13:51:57.000Z</time>
      </trkpt>
      <trkpt lat="43.54829" lon="6.39311">
        <ele>331.1</ele>
        <time>2023-10-11T13:52:06.000Z</time>
      </trkpt>
      <trkpt lat="43.5482" lon="6.39317">
        <ele>332</ele>
        <time>2023-10-11T13:52:14.000Z</time>
      </trkpt>
      <trkpt lat="43.54811" lon="6.39321">
        <ele>333.3</ele>
        <time>2023-10-11T13:52:24.000Z</time>
      </trkpt>
      <trkpt lat="43.54802" lon="6.39323">
        <ele>334.9</ele>
        <time>2023-10-11T13:52:37.000Z</time>
      </trkpt>
      <trkpt lat="43.548" lon="6.39336">
        <ele>336.7</ele>
        <time>2023-10-11T13:52:52.000Z</time>
      </trkpt>
      <trkpt lat="43.54791" lon="6.39339">
        <ele>337.7</ele>
        <time>2023-10-11T13:53:01.000Z</time>
      </trkpt>
      <trkpt lat="43.54782" lon="6.39342">
        <ele>338.2</ele>
        <time>2023-10-11T13:53:06.000Z</time>
      </trkpt>
      <trkpt lat="43.54774" lon="6.39349">
        <ele>338.9</ele>
        <time>2023-10-11T13:53:13.000Z</time>
      </trkpt>
      <trkpt lat="43.54766" lon="6.39356">
        <ele>339.6</ele>
        <time>2023-10-11T13:53:20.000Z</time>
      </trkpt>
      <trkpt lat="43.54757" lon="6.39361">
        <ele>340.3</ele>
        <time>2023-10-11T13:53:28.000Z</time>
      </trkpt>
      <trkpt lat="43.54748" lon="6.39364">
        <ele>341</ele>
        <time>2023-10-11T13:53:37.000Z</time>
      </trkpt>
      <trkpt lat="43.54739" lon="6.39366">
        <ele>341.4</ele>
        <time>2023-10-11T13:53:42.000Z</time>
      </trkpt>
      <trkpt lat="43.5473" lon="6.39371">
        <ele>342</ele>
        <time>2023-10-11T13:53:54.000Z</time>
      </trkpt>
      <trkpt lat="43.54723" lon="6.39379">
        <ele>342.6</ele>
        <time>2023-10-11T13:54:05.000Z</time>
      </trkpt>
      <trkpt lat="43.54713" lon="6.3938">
        <ele>342.8</ele>
        <time>2023-10-11T13:54:12.000Z</time>
      </trkpt>
      <trkpt lat="43.54705" lon="6.39374">
        <ele>343</ele>
        <time>2023-10-11T13:54:19.000Z</time>
      </trkpt>
      <trkpt lat="43.54695" lon="6.39375">
        <ele>343</ele>
        <time>2023-10-11T13:54:27.000Z</time>
      </trkpt>
      <trkpt lat="43.54686" lon="6.39377">
        <ele>342.9</ele>
        <time>2023-10-11T13:54:33.000Z</time>
      </trkpt>
      <trkpt lat="43.54675" lon="6.39376">
        <ele>342.5</ele>
        <time>2023-10-11T13:54:40.000Z</time>
      </trkpt>
      <trkpt lat="43.54666" lon="6.39377">
        <ele>341.8</ele>
        <time>2023-10-11T13:54:49.000Z</time>
      </trkpt>
      <trkpt lat="43.54658" lon="6.39384">
        <ele>341.3</ele>
        <time>2023-10-11T13:54:56.000Z</time>
      </trkpt>
      <trkpt lat="43.54648" lon="6.3939">
        <ele>341</ele>
        <time>2023-10-11T13:55:03.000Z</time>
      </trkpt>
      <trkpt lat="43.54638" lon="6.39396">
        <ele>340.8</ele>
        <time>2023-10-11T13:55:07.000Z</time>
      </trkpt>
      <trkpt lat="43.54635" lon="6.39408">
        <ele>340.7</ele>
        <time>2023-10-11T13:55:16.000Z</time>
      </trkpt>
      <trkpt lat="43.5463" lon="6.39421">
        <ele>340.7</ele>
        <time>2023-10-11T13:55:23.000Z</time>
      </trkpt>
      <trkpt lat="43.54622" lon="6.39428">
        <ele>340.9</ele>
        <time>2023-10-11T13:55:31.000Z</time>
      </trkpt>
      <trkpt lat="43.54617" lon="6.39439">
        <ele>340.9</ele>
        <time>2023-10-11T13:55:42.000Z</time>
      </trkpt>
      <trkpt lat="43.54609" lon="6.39444">
        <ele>340.7</ele>
        <time>2023-10-11T13:55:50.000Z</time>
      </trkpt>
      <trkpt lat="43.54599" lon="6.39445">
        <ele>340.2</ele>
        <time>2023-10-11T13:55:58.000Z</time>
      </trkpt>
      <trkpt lat="43.5459" lon="6.3945">
        <ele>338.9</ele>
        <time>2023-10-11T13:56:06.000Z</time>
      </trkpt>
      <trkpt lat="43.54582" lon="6.39456">
        <ele>337.4</ele>
        <time>2023-10-11T13:56:14.000Z</time>
      </trkpt>
      <trkpt lat="43.54574" lon="6.39463">
        <ele>336.3</ele>
        <time>2023-10-11T13:56:24.000Z</time>
      </trkpt>
      <trkpt lat="43.54565" lon="6.39467">
        <ele>335.7</ele>
        <time>2023-10-11T13:56:33.000Z</time>
      </trkpt>
      <trkpt lat="43.54559" lon="6.39477">
        <ele>335.4</ele>
        <time>2023-10-11T13:56:40.000Z</time>
      </trkpt>
      <trkpt lat="43.5455" lon="6.39484">
        <ele>335.2</ele>
        <time>2023-10-11T13:56:51.000Z</time>
      </trkpt>
      <trkpt lat="43.54541" lon="6.39488">
        <ele>335.1</ele>
        <time>2023-10-11T13:56:59.000Z</time>
      </trkpt>
      <trkpt lat="43.54533" lon="6.39497">
        <ele>335</ele>
        <time>2023-10-11T13:57:08.000Z</time>
      </trkpt>
      <trkpt lat="43.54525" lon="6.39505">
        <ele>335</ele>
        <time>2023-10-11T13:57:15.000Z</time>
      </trkpt>
      <trkpt lat="43.54519" lon="6.39516">
        <ele>335</ele>
        <time>2023-10-11T13:57:22.000Z</time>
      </trkpt>
      <trkpt lat="43.54511" lon="6.39524">
        <ele>335.1</ele>
        <time>2023-10-11T13:57:32.000Z</time>
      </trkpt>
      <trkpt lat="43.54506" lon="6.39536">
        <ele>335.1</ele>
        <time>2023-10-11T13:57:39.000Z</time>
      </trkpt>
      <trkpt lat="43.54499" lon="6.39544">
        <ele>335.2</ele>
        <time>2023-10-11T13:57:46.000Z</time>
      </trkpt>
      <trkpt lat="43.54492" lon="6.3955">
        <ele>335.4</ele>
        <time>2023-10-11T13:57:54.000Z</time>
      </trkpt>
      <trkpt lat="43.54483" lon="6.39559">
        <ele>335.5</ele>
        <time>2023-10-11T13:58:02.000Z</time>
      </trkpt>
      <trkpt lat="43.54475" lon="6.39565">
        <ele>335.8</ele>
        <time>2023-10-11T13:58:11.000Z</time>
      </trkpt>
      <trkpt lat="43.54467" lon="6.39573">
        <ele>336.2</ele>
        <time>2023-10-11T13:58:19.000Z</time>
      </trkpt>
      <trkpt lat="43.54458" lon="6.39577">
        <ele>336.5</ele>
        <time>2023-10-11T13:58:28.000Z</time>
      </trkpt>
      <trkpt lat="43.54449" lon="6.39582">
        <ele>336.8</ele>
        <time>2023-10-11T13:58:38.000Z</time>
      </trkpt>
      <trkpt lat="43.54441" lon="6.39586">
        <ele>336.9</ele>
        <time>2023-10-11T13:58:45.000Z</time>
      </trkpt>
      <trkpt lat="43.54432" lon="6.39591">
        <ele>337</ele>
        <time>2023-10-11T13:58:51.000Z</time>
      </trkpt>
      <trkpt lat="43.54426" lon="6.39601">
        <ele>337.2</ele>
        <time>2023-10-11T13:58:59.000Z</time>
      </trkpt>
      <trkpt lat="43.54417" lon="6.39607">
        <ele>337.3</ele>
        <time>2023-10-11T13:59:07.000Z</time>
      </trkpt>
      <trkpt lat="43.54409" lon="6.39613">
        <ele>337.5</ele>
        <time>2023-10-11T13:59:15.000Z</time>
      </trkpt>
      <trkpt lat="43.54402" lon="6.39622">
        <ele>337.7</ele>
        <time>2023-10-11T13:59:24.000Z</time>
      </trkpt>
      <trkpt lat="43.54397" lon="6.39632">
        <ele>337.9</ele>
        <time>2023-10-11T13:59:30.000Z</time>
      </trkpt>
      <trkpt lat="43.54388" lon="6.39637">
        <ele>338.2</ele>
        <time>2023-10-11T13:59:37.000Z</time>
      </trkpt>
      <trkpt lat="43.5438" lon="6.39642">
        <ele>339.1</ele>
        <time>2023-10-11T13:59:49.000Z</time>
      </trkpt>
      <trkpt lat="43.5437" lon="6.39645">
        <ele>340.2</ele>
        <time>2023-10-11T13:59:58.000Z</time>
      </trkpt>
      <trkpt lat="43.54362" lon="6.39648">
        <ele>341.3</ele>
        <time>2023-10-11T14:00:06.000Z</time>
      </trkpt>
      <trkpt lat="43.54352" lon="6.39652">
        <ele>342</ele>
        <time>2023-10-11T14:00:13.000Z</time>
      </trkpt>
      <trkpt lat="43.54346" lon="6.39659">
        <ele>342.5</ele>
        <time>2023-10-11T14:00:22.000Z</time>
      </trkpt>
      <trkpt lat="43.54346" lon="6.39658">
        <ele>342.9</ele>
        <time>2023-10-11T14:00:38.000Z</time>
      </trkpt>
      <trkpt lat="43.54346" lon="6.39658">
        <ele>342.9</ele>
        <time>2023-10-11T14:00:39.000Z</time>
      </trkpt>
      <trkpt lat="43.54346" lon="6.39659">
        <ele>343</ele>
        <time>2023-10-11T14:00:49.000Z</time>
      </trkpt>
      <trkpt lat="43.54347" lon="6.39651">
        <ele>343.2</ele>
        <time>2023-10-11T14:00:55.000Z</time>
      </trkpt>
      <trkpt lat="43.54347" lon="6.3965">
        <ele>343.3</ele>
        <time>2023-10-11T14:01:04.000Z</time>
      </trkpt>
      <trkpt lat="43.54347" lon="6.3965">
        <ele>343.3</ele>
        <time>2023-10-11T14:01:05.000Z</time>
      </trkpt>
      <trkpt lat="43.54347" lon="6.3965">
        <ele>343.4</ele>
        <time>2023-10-11T14:01:11.000Z</time>
      </trkpt>
      <trkpt lat="43.54347" lon="6.3965">
        <ele>343.4</ele>
        <time>2023-10-11T14:01:12.000Z</time>
      </trkpt>
      <trkpt lat="43.54347" lon="6.3965">
        <ele>343.4</ele>
        <time>2023-10-11T14:01:16.000Z</time>
      </trkpt>
      <trkpt lat="43.54347" lon="6.39647">
        <ele>343.5</ele>
        <time>2023-10-11T14:01:19.000Z</time>
      </trkpt>
      <trkpt lat="43.54347" lon="6.39647">
        <ele>343.5</ele>
        <time>2023-10-11T14:01:22.000Z</time>
      </trkpt>
      <trkpt lat="43.54347" lon="6.39647">
        <ele>343.5</ele>
        <time>2023-10-11T14:01:23.000Z</time>
      </trkpt>
      <trkpt lat="43.54347" lon="6.39647">
        <ele>343.5</ele>
        <time>2023-10-11T14:01:26.000Z</time>
      </trkpt>
      <trkpt lat="43.54347" lon="6.39647">
        <ele>343.5</ele>
        <time>2023-10-11T14:01:29.000Z</time>
      </trkpt>
      <trkpt lat="43.54347" lon="6.39647">
        <ele>343.5</ele>
        <time>2023-10-11T14:01:35.000Z</time>
      </trkpt>
      <trkpt lat="43.54354" lon="6.39647">
        <ele>343.5</ele>
        <time>2023-10-11T14:01:57.000Z</time>
      </trkpt>
      <trkpt lat="43.54354" lon="6.39647">
        <ele>343.4</ele>
        <time>2023-10-11T14:02:01.000Z</time>
      </trkpt>
      <trkpt lat="43.54353" lon="6.39647">
        <ele>343.4</ele>
        <time>2023-10-11T14:02:03.000Z</time>
      </trkpt>
      <trkpt lat="43.54353" lon="6.39647">
        <ele>343.4</ele>
        <time>2023-10-11T14:02:04.000Z</time>
      </trkpt>
      <trkpt lat="43.54352" lon="6.39647">
        <ele>343.4</ele>
        <time>2023-10-11T14:02:07.000Z</time>
      </trkpt>
      <trkpt lat="43.54352" lon="6.39646">
        <ele>343.4</ele>
        <time>2023-10-11T14:02:08.000Z</time>
      </trkpt>
      <trkpt lat="43.5435" lon="6.39648">
        <ele>343.4</ele>
        <time>2023-10-11T14:02:15.000Z</time>
      </trkpt>
      <trkpt lat="43.5435" lon="6.39648">
        <ele>343.4</ele>
        <time>2023-10-11T14:02:16.000Z</time>
      </trkpt>
      <trkpt lat="43.54349" lon="6.39649">
        <ele>343.4</ele>
        <time>2023-10-11T14:02:19.000Z</time>
      </trkpt>
      <trkpt lat="43.54349" lon="6.39649">
        <ele>343.4</ele>
        <time>2023-10-11T14:02:27.000Z</time>
      </trkpt>
      <trkpt lat="43.54349" lon="6.39649">
        <ele>343.4</ele>
        <time>2023-10-11T14:02:28.000Z</time>
      </trkpt>
      <trkpt lat="43.54349" lon="6.39648">
        <ele>343.4</ele>
        <time>2023-10-11T14:02:31.000Z</time>
      </trkpt>
      <trkpt lat="43.54349" lon="6.39648">
        <ele>343.4</ele>
        <time>2023-10-11T14:02:32.000Z</time>
      </trkpt>
      <trkpt lat="43.5435" lon="6.39648">
        <ele>343.4</ele>
        <time>2023-10-11T14:02:35.000Z</time>
      </trkpt>
      <trkpt lat="43.5435" lon="6.39647">
        <ele>343.4</ele>
        <time>2023-10-11T14:02:37.000Z</time>
      </trkpt>
      <trkpt lat="43.5435" lon="6.39647">
        <ele>343.4</ele>
        <time>2023-10-11T14:02:38.000Z</time>
      </trkpt>
      <trkpt lat="43.5435" lon="6.39647">
        <ele>343.4</ele>
        <time>2023-10-11T14:02:40.000Z</time>
      </trkpt>
      <trkpt lat="43.5435" lon="6.39647">
        <ele>343.4</ele>
        <time>2023-10-11T14:02:42.000Z</time>
      </trkpt>
      <trkpt lat="43.5435" lon="6.39647">
        <ele>343.4</ele>
        <time>2023-10-11T14:02:44.000Z</time>
      </trkpt>
      <trkpt lat="43.5435" lon="6.39647">
        <ele>343.4</ele>
        <time>2023-10-11T14:02:45.000Z</time>
      </trkpt>
      <trkpt lat="43.5435" lon="6.39647">
        <ele>343.4</ele>
        <time>2023-10-11T14:02:46.000Z</time>
      </trkpt>
      <trkpt lat="43.5435" lon="6.39647">
        <ele>343.4</ele>
        <time>2023-10-11T14:02:48.000Z</time>
      </trkpt>
      <trkpt lat="43.54351" lon="6.39646">
        <ele>343.4</ele>
        <time>2023-10-11T14:02:53.000Z</time>
      </trkpt>
      <trkpt lat="43.54351" lon="6.39646">
        <ele>343.4</ele>
        <time>2023-10-11T14:02:58.000Z</time>
      </trkpt>
      <trkpt lat="43.54351" lon="6.39645">
        <ele>343.4</ele>
        <time>2023-10-11T14:03:00.000Z</time>
      </trkpt>
      <trkpt lat="43.54352" lon="6.39645">
        <ele>343.4</ele>
        <time>2023-10-11T14:03:01.000Z</time>
      </trkpt>
      <trkpt lat="43.54352" lon="6.39645">
        <ele>343.4</ele>
        <time>2023-10-11T14:03:02.000Z</time>
      </trkpt>
      <trkpt lat="43.54351" lon="6.39644">
        <ele>343.4</ele>
        <time>2023-10-11T14:03:03.000Z</time>
      </trkpt>
      <trkpt lat="43.54345" lon="6.39635">
        <ele>343.4</ele>
        <time>2023-10-11T14:03:13.000Z</time>
      </trkpt>
      <trkpt lat="43.5434" lon="6.39623">
        <ele>343.5</ele>
        <time>2023-10-11T14:03:20.000Z</time>
      </trkpt>
      <trkpt lat="43.54337" lon="6.39611">
        <ele>343.5</ele>
        <time>2023-10-11T14:03:29.000Z</time>
      </trkpt>
      <trkpt lat="43.54331" lon="6.39601">
        <ele>343.3</ele>
        <time>2023-10-11T14:03:38.000Z</time>
      </trkpt>
      <trkpt lat="43.54327" lon="6.39589">
        <ele>343.1</ele>
        <time>2023-10-11T14:03:44.000Z</time>
      </trkpt>
      <trkpt lat="43.54323" lon="6.39576">
        <ele>342.3</ele>
        <time>2023-10-11T14:03:52.000Z</time>
      </trkpt>
      <trkpt lat="43.5432" lon="6.39564">
        <ele>341</ele>
        <time>2023-10-11T14:03:59.000Z</time>
      </trkpt>
      <trkpt lat="43.54317" lon="6.39552">
        <ele>338.5</ele>
        <time>2023-10-11T14:04:09.000Z</time>
      </trkpt>
      <trkpt lat="43.54312" lon="6.39542">
        <ele>337</ele>
        <time>2023-10-11T14:04:17.000Z</time>
      </trkpt>
      <trkpt lat="43.54307" lon="6.3953">
        <ele>335.5</ele>
        <time>2023-10-11T14:04:28.000Z</time>
      </trkpt>
      <trkpt lat="43.54303" lon="6.39518">
        <ele>334.7</ele>
        <time>2023-10-11T14:04:36.000Z</time>
      </trkpt>
      <trkpt lat="43.54297" lon="6.39506">
        <ele>334</ele>
        <time>2023-10-11T14:04:44.000Z</time>
      </trkpt>
      <trkpt lat="43.54292" lon="6.39495">
        <ele>333.4</ele>
        <time>2023-10-11T14:04:53.000Z</time>
      </trkpt>
      <trkpt lat="43.54288" lon="6.39484">
        <ele>333.1</ele>
        <time>2023-10-11T14:05:00.000Z</time>
      </trkpt>
      <trkpt lat="43.54283" lon="6.39473">
        <ele>332.9</ele>
        <time>2023-10-11T14:05:09.000Z</time>
      </trkpt>
      <trkpt lat="43.54279" lon="6.39461">
        <ele>332.8</ele>
        <time>2023-10-11T14:05:18.000Z</time>
      </trkpt>
      <trkpt lat="43.54273" lon="6.3945">
        <ele>332.7</ele>
        <time>2023-10-11T14:05:26.000Z</time>
      </trkpt>
      <trkpt lat="43.54266" lon="6.39442">
        <ele>332.5</ele>
        <time>2023-10-11T14:05:33.000Z</time>
      </trkpt>
      <trkpt lat="43.54256" lon="6.39438">
        <ele>332.2</ele>
        <time>2023-10-11T14:05:40.000Z</time>
      </trkpt>
      <trkpt lat="43.54247" lon="6.39442">
        <ele>331.4</ele>
        <time>2023-10-11T14:05:48.000Z</time>
      </trkpt>
      <trkpt lat="43.54237" lon="6.39443">
        <ele>330.4</ele>
        <time>2023-10-11T14:05:57.000Z</time>
      </trkpt>
      <trkpt lat="43.54228" lon="6.39444">
        <ele>329.4</ele>
        <time>2023-10-11T14:06:05.000Z</time>
      </trkpt>
      <trkpt lat="43.54219" lon="6.39438">
        <ele>328.4</ele>
        <time>2023-10-11T14:06:15.000Z</time>
      </trkpt>
      <trkpt lat="43.54213" lon="6.39429">
        <ele>327.9</ele>
        <time>2023-10-11T14:06:22.000Z</time>
      </trkpt>
      <trkpt lat="43.54205" lon="6.3942">
        <ele>327.5</ele>
        <time>2023-10-11T14:06:29.000Z</time>
      </trkpt>
      <trkpt lat="43.542" lon="6.3941">
        <ele>327.3</ele>
        <time>2023-10-11T14:06:37.000Z</time>
      </trkpt>
      <trkpt lat="43.54194" lon="6.394">
        <ele>327.2</ele>
        <time>2023-10-11T14:06:44.000Z</time>
      </trkpt>
      <trkpt lat="43.54187" lon="6.39389">
        <ele>327.2</ele>
        <time>2023-10-11T14:06:52.000Z</time>
      </trkpt>
      <trkpt lat="43.54179" lon="6.39383">
        <ele>327</ele>
        <time>2023-10-11T14:06:58.000Z</time>
      </trkpt>
      <trkpt lat="43.54171" lon="6.39378">
        <ele>326.6</ele>
        <time>2023-10-11T14:07:07.000Z</time>
      </trkpt>
      <trkpt lat="43.54163" lon="6.39369">
        <ele>326.3</ele>
        <time>2023-10-11T14:07:14.000Z</time>
      </trkpt>
      <trkpt lat="43.54157" lon="6.39357">
        <ele>326.1</ele>
        <time>2023-10-11T14:07:23.000Z</time>
      </trkpt>
      <trkpt lat="43.5415" lon="6.39348">
        <ele>325.8</ele>
        <time>2023-10-11T14:07:33.000Z</time>
      </trkpt>
      <trkpt lat="43.54143" lon="6.39341">
        <ele>325.6</ele>
        <time>2023-10-11T14:07:40.000Z</time>
      </trkpt>
      <trkpt lat="43.54134" lon="6.39334">
        <ele>325.2</ele>
        <time>2023-10-11T14:07:47.000Z</time>
      </trkpt>
      <trkpt lat="43.54125" lon="6.3933">
        <ele>324.6</ele>
        <time>2023-10-11T14:07:57.000Z</time>
      </trkpt>
      <trkpt lat="43.54116" lon="6.39324">
        <ele>323.8</ele>
        <time>2023-10-11T14:08:08.000Z</time>
      </trkpt>
      <trkpt lat="43.54109" lon="6.39317">
        <ele>323.4</ele>
        <time>2023-10-11T14:08:13.000Z</time>
      </trkpt>
      <trkpt lat="43.54101" lon="6.39311">
        <ele>322.3</ele>
        <time>2023-10-11T14:08:21.000Z</time>
      </trkpt>
      <trkpt lat="43.54094" lon="6.39301">
        <ele>321</ele>
        <time>2023-10-11T14:08:29.000Z</time>
      </trkpt>
      <trkpt lat="43.54089" lon="6.3929">
        <ele>319.7</ele>
        <time>2023-10-11T14:08:37.000Z</time>
      </trkpt>
      <trkpt lat="43.54084" lon="6.39279">
        <ele>318.9</ele>
        <time>2023-10-11T14:08:46.000Z</time>
      </trkpt>
      <trkpt lat="43.54076" lon="6.39271">
        <ele>318.4</ele>
        <time>2023-10-11T14:08:55.000Z</time>
      </trkpt>
      <trkpt lat="43.54066" lon="6.39273">
        <ele>318.3</ele>
        <time>2023-10-11T14:09:04.000Z</time>
      </trkpt>
      <trkpt lat="43.54056" lon="6.3927">
        <ele>318.4</ele>
        <time>2023-10-11T14:09:12.000Z</time>
      </trkpt>
      <trkpt lat="43.54046" lon="6.39271">
        <ele>318.6</ele>
        <time>2023-10-11T14:09:21.000Z</time>
      </trkpt>
      <trkpt lat="43.54037" lon="6.39273">
        <ele>319.1</ele>
        <time>2023-10-11T14:09:31.000Z</time>
      </trkpt>
      <trkpt lat="43.54028" lon="6.39278">
        <ele>319.9</ele>
        <time>2023-10-11T14:09:39.000Z</time>
      </trkpt>
      <trkpt lat="43.5402" lon="6.39283">
        <ele>320.5</ele>
        <time>2023-10-11T14:09:46.000Z</time>
      </trkpt>
      <trkpt lat="43.54011" lon="6.3929">
        <ele>321.4</ele>
        <time>2023-10-11T14:09:54.000Z</time>
      </trkpt>
      <trkpt lat="43.54002" lon="6.39295">
        <ele>322.4</ele>
        <time>2023-10-11T14:10:04.000Z</time>
      </trkpt>
      <trkpt lat="43.53992" lon="6.39298">
        <ele>323.3</ele>
        <time>2023-10-11T14:10:12.000Z</time>
      </trkpt>
      <trkpt lat="43.53983" lon="6.39298">
        <ele>324</ele>
        <time>2023-10-11T14:10:19.000Z</time>
      </trkpt>
      <trkpt lat="43.53974" lon="6.39299">
        <ele>324.8</ele>
        <time>2023-10-11T14:10:29.000Z</time>
      </trkpt>
      <trkpt lat="43.53969" lon="6.39304">
        <ele>324.9</ele>
        <time>2023-10-11T14:10:38.000Z</time>
      </trkpt>
      <trkpt lat="43.53968" lon="6.39304">
        <ele>324.9</ele>
        <time>2023-10-11T14:10:40.000Z</time>
      </trkpt>
      <trkpt lat="43.53969" lon="6.39304">
        <ele>324.9</ele>
        <time>2023-10-11T14:10:44.000Z</time>
      </trkpt>
      <trkpt lat="43.53968" lon="6.39303">
        <ele>325</ele>
        <time>2023-10-11T14:10:49.000Z</time>
      </trkpt>
      <trkpt lat="43.53968" lon="6.39303">
        <ele>325</ele>
        <time>2023-10-11T14:10:50.000Z</time>
      </trkpt>
      <trkpt lat="43.53968" lon="6.39304">
        <ele>325</ele>
        <time>2023-10-11T14:10:52.000Z</time>
      </trkpt>
      <trkpt lat="43.53968" lon="6.39305">
        <ele>325</ele>
        <time>2023-10-11T14:10:55.000Z</time>
      </trkpt>
      <trkpt lat="43.53968" lon="6.39305">
        <ele>325</ele>
        <time>2023-10-11T14:11:03.000Z</time>
      </trkpt>
      <trkpt lat="43.53968" lon="6.39305">
        <ele>325</ele>
        <time>2023-10-11T14:11:04.000Z</time>
      </trkpt>
      <trkpt lat="43.53968" lon="6.39305">
        <ele>325</ele>
        <time>2023-10-11T14:11:18.000Z</time>
      </trkpt>
      <trkpt lat="43.53959" lon="6.39303">
        <ele>325.1</ele>
        <time>2023-10-11T14:11:25.000Z</time>
      </trkpt>
      <trkpt lat="43.53949" lon="6.39301">
        <ele>325</ele>
        <time>2023-10-11T14:11:35.000Z</time>
      </trkpt>
      <trkpt lat="43.5394" lon="6.39305">
        <ele>325</ele>
        <time>2023-10-11T14:11:42.000Z</time>
      </trkpt>
      <trkpt lat="43.5393" lon="6.39305">
        <ele>324.9</ele>
        <time>2023-10-11T14:11:52.000Z</time>
      </trkpt>
      <trkpt lat="43.53922" lon="6.39311">
        <ele>324.9</ele>
        <time>2023-10-11T14:12:00.000Z</time>
      </trkpt>
      <trkpt lat="43.53913" lon="6.39314">
        <ele>324.7</ele>
        <time>2023-10-11T14:12:08.000Z</time>
      </trkpt>
      <trkpt lat="43.53904" lon="6.39317">
        <ele>324.1</ele>
        <time>2023-10-11T14:12:16.000Z</time>
      </trkpt>
      <trkpt lat="43.53903" lon="6.3932">
        <ele>323.8</ele>
        <time>2023-10-11T14:12:20.000Z</time>
      </trkpt>
      <trkpt lat="43.53903" lon="6.3932">
        <ele>323.7</ele>
        <time>2023-10-11T14:12:21.000Z</time>
      </trkpt>
      <trkpt lat="43.53903" lon="6.39319">
        <ele>323.3</ele>
        <time>2023-10-11T14:12:26.000Z</time>
      </trkpt>
      <trkpt lat="43.53902" lon="6.39319">
        <ele>323.1</ele>
        <time>2023-10-11T14:12:30.000Z</time>
      </trkpt>
      <trkpt lat="43.53893" lon="6.39325">
        <ele>322.4</ele>
        <time>2023-10-11T14:12:43.000Z</time>
      </trkpt>
      <trkpt lat="43.53883" lon="6.39328">
        <ele>321.8</ele>
        <time>2023-10-11T14:12:51.000Z</time>
      </trkpt>
      <trkpt lat="43.53873" lon="6.3933">
        <ele>320.7</ele>
        <time>2023-10-11T14:13:02.000Z</time>
      </trkpt>
      <trkpt lat="43.53864" lon="6.39326">
        <ele>319.8</ele>
        <time>2023-10-11T14:13:11.000Z</time>
      </trkpt>
      <trkpt lat="43.53855" lon="6.39319">
        <ele>319.3</ele>
        <time>2023-10-11T14:13:20.000Z</time>
      </trkpt>
      <trkpt lat="43.53846" lon="6.39314">
        <ele>319.1</ele>
        <time>2023-10-11T14:13:26.000Z</time>
      </trkpt>
      <trkpt lat="43.53839" lon="6.39307">
        <ele>318.9</ele>
        <time>2023-10-11T14:13:34.000Z</time>
      </trkpt>
      <trkpt lat="43.5383" lon="6.39299">
        <ele>319</ele>
        <time>2023-10-11T14:13:44.000Z</time>
      </trkpt>
      <trkpt lat="43.53823" lon="6.39292">
        <ele>319.1</ele>
        <time>2023-10-11T14:13:52.000Z</time>
      </trkpt>
      <trkpt lat="43.53814" lon="6.39286">
        <ele>319.3</ele>
        <time>2023-10-11T14:14:01.000Z</time>
      </trkpt>
      <trkpt lat="43.53805" lon="6.39284">
        <ele>319.3</ele>
        <time>2023-10-11T14:14:11.000Z</time>
      </trkpt>
      <trkpt lat="43.53797" lon="6.3928">
        <ele>319.2</ele>
        <time>2023-10-11T14:14:19.000Z</time>
      </trkpt>
      <trkpt lat="43.53787" lon="6.39277">
        <ele>319</ele>
        <time>2023-10-11T14:14:27.000Z</time>
      </trkpt>
      <trkpt lat="43.53777" lon="6.39275">
        <ele>318.3</ele>
        <time>2023-10-11T14:14:37.000Z</time>
      </trkpt>
      <trkpt lat="43.53768" lon="6.39275">
        <ele>317.2</ele>
        <time>2023-10-11T14:14:45.000Z</time>
      </trkpt>
      <trkpt lat="43.5376" lon="6.3927">
        <ele>316.1</ele>
        <time>2023-10-11T14:14:55.000Z</time>
      </trkpt>
      <trkpt lat="43.5375" lon="6.39265">
        <ele>315.7</ele>
        <time>2023-10-11T14:15:02.000Z</time>
      </trkpt>
      <trkpt lat="43.53742" lon="6.39259">
        <ele>315.5</ele>
        <time>2023-10-11T14:15:09.000Z</time>
      </trkpt>
      <trkpt lat="43.53733" lon="6.39253">
        <ele>315.5</ele>
        <time>2023-10-11T14:15:16.000Z</time>
      </trkpt>
      <trkpt lat="43.53724" lon="6.39252">
        <ele>315.6</ele>
        <time>2023-10-11T14:15:23.000Z</time>
      </trkpt>
      <trkpt lat="43.53716" lon="6.39259">
        <ele>316</ele>
        <time>2023-10-11T14:15:32.000Z</time>
      </trkpt>
      <trkpt lat="43.5371" lon="6.39269">
        <ele>316.9</ele>
        <time>2023-10-11T14:15:41.000Z</time>
      </trkpt>
      <trkpt lat="43.53701" lon="6.39274">
        <ele>318.7</ele>
        <time>2023-10-11T14:15:51.000Z</time>
      </trkpt>
      <trkpt lat="43.53692" lon="6.39278">
        <ele>320.6</ele>
        <time>2023-10-11T14:16:01.000Z</time>
      </trkpt>
      <trkpt lat="43.53684" lon="6.39272">
        <ele>322</ele>
        <time>2023-10-11T14:16:13.000Z</time>
      </trkpt>
      <trkpt lat="43.53675" lon="6.39267">
        <ele>322.7</ele>
        <time>2023-10-11T14:16:22.000Z</time>
      </trkpt>
      <trkpt lat="43.53665" lon="6.39267">
        <ele>323.1</ele>
        <time>2023-10-11T14:16:28.000Z</time>
      </trkpt>
      <trkpt lat="43.53657" lon="6.39273">
        <ele>323.5</ele>
        <time>2023-10-11T14:16:39.000Z</time>
      </trkpt>
      <trkpt lat="43.53648" lon="6.39279">
        <ele>323.4</ele>
        <time>2023-10-11T14:16:48.000Z</time>
      </trkpt>
      <trkpt lat="43.53639" lon="6.39284">
        <ele>323.2</ele>
        <time>2023-10-11T14:16:56.000Z</time>
      </trkpt>
      <trkpt lat="43.5363" lon="6.3929">
        <ele>323</ele>
        <time>2023-10-11T14:17:03.000Z</time>
      </trkpt>
      <trkpt lat="43.53622" lon="6.39296">
        <ele>322.9</ele>
        <time>2023-10-11T14:17:11.000Z</time>
      </trkpt>
      <trkpt lat="43.53613" lon="6.39302">
        <ele>322.7</ele>
        <time>2023-10-11T14:17:19.000Z</time>
      </trkpt>
      <trkpt lat="43.53604" lon="6.39306">
        <ele>322.4</ele>
        <time>2023-10-11T14:17:28.000Z</time>
      </trkpt>
      <trkpt lat="43.53594" lon="6.39309">
        <ele>322</ele>
        <time>2023-10-11T14:17:37.000Z</time>
      </trkpt>
      <trkpt lat="43.53585" lon="6.39312">
        <ele>321.7</ele>
        <time>2023-10-11T14:17:46.000Z</time>
      </trkpt>
      <trkpt lat="43.53576" lon="6.39318">
        <ele>321.5</ele>
        <time>2023-10-11T14:17:56.000Z</time>
      </trkpt>
      <trkpt lat="43.53567" lon="6.39323">
        <ele>321.4</ele>
        <time>2023-10-11T14:18:10.000Z</time>
      </trkpt>
      <trkpt lat="43.53558" lon="6.39322">
        <ele>321.4</ele>
        <time>2023-10-11T14:18:18.000Z</time>
      </trkpt>
      <trkpt lat="43.5355" lon="6.3933">
        <ele>321.4</ele>
        <time>2023-10-11T14:18:24.000Z</time>
      </trkpt>
      <trkpt lat="43.53544" lon="6.39339">
        <ele>321.4</ele>
        <time>2023-10-11T14:18:31.000Z</time>
      </trkpt>
      <trkpt lat="43.53536" lon="6.39347">
        <ele>321.5</ele>
        <time>2023-10-11T14:18:38.000Z</time>
      </trkpt>
      <trkpt lat="43.5353" lon="6.39357">
        <ele>321.6</ele>
        <time>2023-10-11T14:18:45.000Z</time>
      </trkpt>
      <trkpt lat="43.53525" lon="6.39367">
        <ele>321.8</ele>
        <time>2023-10-11T14:18:53.000Z</time>
      </trkpt>
      <trkpt lat="43.53521" lon="6.39378">
        <ele>322.2</ele>
        <time>2023-10-11T14:19:02.000Z</time>
      </trkpt>
      <trkpt lat="43.53518" lon="6.3939">
        <ele>322.9</ele>
        <time>2023-10-11T14:19:10.000Z</time>
      </trkpt>
      <trkpt lat="43.53515" lon="6.39403">
        <ele>324.1</ele>
        <time>2023-10-11T14:19:20.000Z</time>
      </trkpt>
      <trkpt lat="43.53507" lon="6.39395">
        <ele>326.5</ele>
        <time>2023-10-11T14:19:39.000Z</time>
      </trkpt>
      <trkpt lat="43.53499" lon="6.39389">
        <ele>328.4</ele>
        <time>2023-10-11T14:19:52.000Z</time>
      </trkpt>
      <trkpt lat="43.5349" lon="6.39385">
        <ele>329.7</ele>
        <time>2023-10-11T14:20:03.000Z</time>
      </trkpt>
      <trkpt lat="43.53482" lon="6.39381">
        <ele>330.9</ele>
        <time>2023-10-11T14:20:13.000Z</time>
      </trkpt>
      <trkpt lat="43.53473" lon="6.39377">
        <ele>333.4</ele>
        <time>2023-10-11T14:20:29.000Z</time>
      </trkpt>
      <trkpt lat="43.5347" lon="6.39373">
        <ele>334.3</ele>
        <time>2023-10-11T14:20:34.000Z</time>
      </trkpt>
      <trkpt lat="43.5347" lon="6.39374">
        <ele>334.4</ele>
        <time>2023-10-11T14:20:35.000Z</time>
      </trkpt>
      <trkpt lat="43.5347" lon="6.39372">
        <ele>335</ele>
        <time>2023-10-11T14:20:44.000Z</time>
      </trkpt>
      <trkpt lat="43.5347" lon="6.39372">
        <ele>335.2</ele>
        <time>2023-10-11T14:20:48.000Z</time>
      </trkpt>
      <trkpt lat="43.53462" lon="6.39369">
        <ele>335.4</ele>
        <time>2023-10-11T14:20:59.000Z</time>
      </trkpt>
      <trkpt lat="43.53455" lon="6.39359">
        <ele>335.4</ele>
        <time>2023-10-11T14:21:08.000Z</time>
      </trkpt>
      <trkpt lat="43.5346" lon="6.39369">
        <ele>335.6</ele>
        <time>2023-10-11T14:21:28.000Z</time>
      </trkpt>
      <trkpt lat="43.53462" lon="6.39372">
        <ele>335.7</ele>
        <time>2023-10-11T14:21:41.000Z</time>
      </trkpt>
      <trkpt lat="43.53461" lon="6.39372">
        <ele>335.7</ele>
        <time>2023-10-11T14:21:42.000Z</time>
      </trkpt>
      <trkpt lat="43.53461" lon="6.39372">
        <ele>335.7</ele>
        <time>2023-10-11T14:21:43.000Z</time>
      </trkpt>
      <trkpt lat="43.53461" lon="6.39373">
        <ele>335.7</ele>
        <time>2023-10-11T14:21:44.000Z</time>
      </trkpt>
      <trkpt lat="43.53461" lon="6.39373">
        <ele>335.7</ele>
        <time>2023-10-11T14:21:45.000Z</time>
      </trkpt>
      <trkpt lat="43.53461" lon="6.39373">
        <ele>335.7</ele>
        <time>2023-10-11T14:21:46.000Z</time>
      </trkpt>
      <trkpt lat="43.53461" lon="6.39373">
        <ele>335.7</ele>
        <time>2023-10-11T14:21:47.000Z</time>
      </trkpt>
      <trkpt lat="43.53461" lon="6.39373">
        <ele>335.7</ele>
        <time>2023-10-11T14:21:48.000Z</time>
      </trkpt>
      <trkpt lat="43.53461" lon="6.39373">
        <ele>335.7</ele>
        <time>2023-10-11T14:21:49.000Z</time>
      </trkpt>
      <trkpt lat="43.53461" lon="6.39373">
        <ele>335.7</ele>
        <time>2023-10-11T14:21:50.000Z</time>
      </trkpt>
      <trkpt lat="43.53461" lon="6.39373">
        <ele>335.7</ele>
        <time>2023-10-11T14:21:51.000Z</time>
      </trkpt>
      <trkpt lat="43.53461" lon="6.39373">
        <ele>335.7</ele>
        <time>2023-10-11T14:21:52.000Z</time>
      </trkpt>
      <trkpt lat="43.53461" lon="6.39373">
        <ele>335.7</ele>
        <time>2023-10-11T14:21:53.000Z</time>
      </trkpt>
      <trkpt lat="43.5346" lon="6.39373">
        <ele>335.7</ele>
        <time>2023-10-11T14:21:56.000Z</time>
      </trkpt>
      <trkpt lat="43.5346" lon="6.39373">
        <ele>335.7</ele>
        <time>2023-10-11T14:21:57.000Z</time>
      </trkpt>
      <trkpt lat="43.5346" lon="6.39373">
        <ele>335.7</ele>
        <time>2023-10-11T14:22:06.000Z</time>
      </trkpt>
      <trkpt lat="43.5346" lon="6.39373">
        <ele>335.7</ele>
        <time>2023-10-11T14:22:07.000Z</time>
      </trkpt>
      <trkpt lat="43.5346" lon="6.39374">
        <ele>335.7</ele>
        <time>2023-10-11T14:22:08.000Z</time>
      </trkpt>
      <trkpt lat="43.53458" lon="6.39375">
        <ele>335.7</ele>
        <time>2023-10-11T14:22:20.000Z</time>
      </trkpt>
      <trkpt lat="43.53459" lon="6.39375">
        <ele>335.7</ele>
        <time>2023-10-11T14:22:23.000Z</time>
      </trkpt>
      <trkpt lat="43.53459" lon="6.39375">
        <ele>335.7</ele>
        <time>2023-10-11T14:22:25.000Z</time>
      </trkpt>
      <trkpt lat="43.5346" lon="6.39374">
        <ele>335.7</ele>
        <time>2023-10-11T14:22:26.000Z</time>
      </trkpt>
      <trkpt lat="43.53461" lon="6.39375">
        <ele>335.7</ele>
        <time>2023-10-11T14:22:40.000Z</time>
      </trkpt>
      <trkpt lat="43.5346" lon="6.39376">
        <ele>335.7</ele>
        <time>2023-10-11T14:22:42.000Z</time>
      </trkpt>
      <trkpt lat="43.53459" lon="6.39376">
        <ele>335.8</ele>
        <time>2023-10-11T14:22:45.000Z</time>
      </trkpt>
      <trkpt lat="43.53459" lon="6.39377">
        <ele>335.8</ele>
        <time>2023-10-11T14:22:46.000Z</time>
      </trkpt>
      <trkpt lat="43.53462" lon="6.39377">
        <ele>335.8</ele>
        <time>2023-10-11T14:22:55.000Z</time>
      </trkpt>
      <trkpt lat="43.53463" lon="6.39377">
        <ele>335.8</ele>
        <time>2023-10-11T14:22:57.000Z</time>
      </trkpt>
      <trkpt lat="43.53463" lon="6.39377">
        <ele>335.8</ele>
        <time>2023-10-11T14:22:59.000Z</time>
      </trkpt>
      <trkpt lat="43.53463" lon="6.39377">
        <ele>335.8</ele>
        <time>2023-10-11T14:23:03.000Z</time>
      </trkpt>
      <trkpt lat="43.53463" lon="6.39376">
        <ele>335.8</ele>
        <time>2023-10-11T14:23:07.000Z</time>
      </trkpt>
      <trkpt lat="43.53463" lon="6.39376">
        <ele>335.8</ele>
        <time>2023-10-11T14:23:15.000Z</time>
      </trkpt>
      <trkpt lat="43.53463" lon="6.39376">
        <ele>335.8</ele>
        <time>2023-10-11T14:23:16.000Z</time>
      </trkpt>
      <trkpt lat="43.53463" lon="6.39376">
        <ele>335.8</ele>
        <time>2023-10-11T14:23:19.000Z</time>
      </trkpt>
      <trkpt lat="43.53463" lon="6.39376">
        <ele>335.8</ele>
        <time>2023-10-11T14:23:20.000Z</time>
      </trkpt>
      <trkpt lat="43.53463" lon="6.39376">
        <ele>335.8</ele>
        <time>2023-10-11T14:23:23.000Z</time>
      </trkpt>
      <trkpt lat="43.53463" lon="6.39376">
        <ele>335.8</ele>
        <time>2023-10-11T14:23:24.000Z</time>
      </trkpt>
      <trkpt lat="43.53463" lon="6.39376">
        <ele>335.8</ele>
        <time>2023-10-11T14:23:27.000Z</time>
      </trkpt>
      <trkpt lat="43.53462" lon="6.39376">
        <ele>335.8</ele>
        <time>2023-10-11T14:23:29.000Z</time>
      </trkpt>
      <trkpt lat="43.53462" lon="6.39375">
        <ele>335.8</ele>
        <time>2023-10-11T14:23:33.000Z</time>
      </trkpt>
      <trkpt lat="43.53462" lon="6.39374">
        <ele>335.8</ele>
        <time>2023-10-11T14:23:39.000Z</time>
      </trkpt>
      <trkpt lat="43.53462" lon="6.39375">
        <ele>335.8</ele>
        <time>2023-10-11T14:23:40.000Z</time>
      </trkpt>
      <trkpt lat="43.53461" lon="6.39375">
        <ele>335.8</ele>
        <time>2023-10-11T14:23:43.000Z</time>
      </trkpt>
      <trkpt lat="43.53461" lon="6.39374">
        <ele>335.8</ele>
        <time>2023-10-11T14:23:45.000Z</time>
      </trkpt>
      <trkpt lat="43.53461" lon="6.39374">
        <ele>335.8</ele>
        <time>2023-10-11T14:23:46.000Z</time>
      </trkpt>
      <trkpt lat="43.53461" lon="6.39374">
        <ele>335.8</ele>
        <time>2023-10-11T14:23:48.000Z</time>
      </trkpt>
      <trkpt lat="43.53461" lon="6.39374">
        <ele>335.8</ele>
        <time>2023-10-11T14:23:49.000Z</time>
      </trkpt>
      <trkpt lat="43.53461" lon="6.39374">
        <ele>335.8</ele>
        <time>2023-10-11T14:23:50.000Z</time>
      </trkpt>
      <trkpt lat="43.53461" lon="6.39375">
        <ele>335.8</ele>
        <time>2023-10-11T14:23:52.000Z</time>
      </trkpt>
      <trkpt lat="43.53461" lon="6.39375">
        <ele>335.8</ele>
        <time>2023-10-11T14:23:53.000Z</time>
      </trkpt>
      <trkpt lat="43.53462" lon="6.39375">
        <ele>335.8</ele>
        <time>2023-10-11T14:23:55.000Z</time>
      </trkpt>
      <trkpt lat="43.53461" lon="6.39375">
        <ele>335.8</ele>
        <time>2023-10-11T14:23:56.000Z</time>
      </trkpt>
      <trkpt lat="43.53458" lon="6.39369">
        <ele>335.9</ele>
        <time>2023-10-11T14:24:11.000Z</time>
      </trkpt>
      <trkpt lat="43.53458" lon="6.39369">
        <ele>335.9</ele>
        <time>2023-10-11T14:24:12.000Z</time>
      </trkpt>
      <trkpt lat="43.53458" lon="6.39368">
        <ele>335.9</ele>
        <time>2023-10-11T14:24:15.000Z</time>
      </trkpt>
      <trkpt lat="43.53458" lon="6.39369">
        <ele>335.9</ele>
        <time>2023-10-11T14:24:27.000Z</time>
      </trkpt>
      <trkpt lat="43.53459" lon="6.39372">
        <ele>335.9</ele>
        <time>2023-10-11T14:24:38.000Z</time>
      </trkpt>
      <trkpt lat="43.53459" lon="6.39372">
        <ele>335.9</ele>
        <time>2023-10-11T14:24:40.000Z</time>
      </trkpt>
      <trkpt lat="43.53459" lon="6.39373">
        <ele>335.8</ele>
        <time>2023-10-11T14:24:43.000Z</time>
      </trkpt>
      <trkpt lat="43.53459" lon="6.39373">
        <ele>335.8</ele>
        <time>2023-10-11T14:24:45.000Z</time>
      </trkpt>
      <trkpt lat="43.53459" lon="6.39373">
        <ele>335.8</ele>
        <time>2023-10-11T14:24:46.000Z</time>
      </trkpt>
      <trkpt lat="43.53459" lon="6.39373">
        <ele>335.8</ele>
        <time>2023-10-11T14:24:51.000Z</time>
      </trkpt>
      <trkpt lat="43.5346" lon="6.39373">
        <ele>335.8</ele>
        <time>2023-10-11T14:24:53.000Z</time>
      </trkpt>
      <trkpt lat="43.5346" lon="6.39373">
        <ele>335.8</ele>
        <time>2023-10-11T14:24:57.000Z</time>
      </trkpt>
      <trkpt lat="43.5346" lon="6.39373">
        <ele>335.8</ele>
        <time>2023-10-11T14:24:58.000Z</time>
      </trkpt>
      <trkpt lat="43.5346" lon="6.39373">
        <ele>335.8</ele>
        <time>2023-10-11T14:25:10.000Z</time>
      </trkpt>
      <trkpt lat="43.5346" lon="6.39373">
        <ele>335.8</ele>
        <time>2023-10-11T14:25:13.000Z</time>
      </trkpt>
      <trkpt lat="43.53461" lon="6.39373">
        <ele>335.8</ele>
        <time>2023-10-11T14:25:14.000Z</time>
      </trkpt>
      <trkpt lat="43.53461" lon="6.39373">
        <ele>335.8</ele>
        <time>2023-10-11T14:25:15.000Z</time>
      </trkpt>
      <trkpt lat="43.53461" lon="6.39374">
        <ele>335.8</ele>
        <time>2023-10-11T14:25:19.000Z</time>
      </trkpt>
      <trkpt lat="43.53463" lon="6.39374">
        <ele>335.8</ele>
        <time>2023-10-11T14:25:27.000Z</time>
      </trkpt>
      <trkpt lat="43.53463" lon="6.39374">
        <ele>335.8</ele>
        <time>2023-10-11T14:25:30.000Z</time>
      </trkpt>
      <trkpt lat="43.53463" lon="6.39373">
        <ele>335.8</ele>
        <time>2023-10-11T14:25:37.000Z</time>
      </trkpt>
      <trkpt lat="43.53463" lon="6.39373">
        <ele>335.8</ele>
        <time>2023-10-11T14:25:38.000Z</time>
      </trkpt>
      <trkpt lat="43.53462" lon="6.39374">
        <ele>335.8</ele>
        <time>2023-10-11T14:25:44.000Z</time>
      </trkpt>
      <trkpt lat="43.53463" lon="6.39374">
        <ele>335.8</ele>
        <time>2023-10-11T14:25:46.000Z</time>
      </trkpt>
      <trkpt lat="43.53463" lon="6.39374">
        <ele>335.8</ele>
        <time>2023-10-11T14:25:47.000Z</time>
      </trkpt>
      <trkpt lat="43.53462" lon="6.39374">
        <ele>335.8</ele>
        <time>2023-10-11T14:25:49.000Z</time>
      </trkpt>
      <trkpt lat="43.53462" lon="6.39374">
        <ele>335.8</ele>
        <time>2023-10-11T14:25:50.000Z</time>
      </trkpt>
      <trkpt lat="43.53462" lon="6.39374">
        <ele>335.8</ele>
        <time>2023-10-11T14:25:58.000Z</time>
      </trkpt>
      <trkpt lat="43.53467" lon="6.39373">
        <ele>335.8</ele>
        <time>2023-10-11T14:26:09.000Z</time>
      </trkpt>
      <trkpt lat="43.53467" lon="6.39373">
        <ele>335.8</ele>
        <time>2023-10-11T14:26:10.000Z</time>
      </trkpt>
      <trkpt lat="43.53467" lon="6.39373">
        <ele>335.8</ele>
        <time>2023-10-11T14:26:14.000Z</time>
      </trkpt>
      <trkpt lat="43.53467" lon="6.39373">
        <ele>335.8</ele>
        <time>2023-10-11T14:26:15.000Z</time>
      </trkpt>
      <trkpt lat="43.53464" lon="6.39372">
        <ele>335.8</ele>
        <time>2023-10-11T14:26:21.000Z</time>
      </trkpt>
      <trkpt lat="43.53464" lon="6.39372">
        <ele>335.8</ele>
        <time>2023-10-11T14:26:22.000Z</time>
      </trkpt>
      <trkpt lat="43.53464" lon="6.39372">
        <ele>335.8</ele>
        <time>2023-10-11T14:26:24.000Z</time>
      </trkpt>
      <trkpt lat="43.53464" lon="6.39372">
        <ele>335.8</ele>
        <time>2023-10-11T14:26:27.000Z</time>
      </trkpt>
      <trkpt lat="43.53464" lon="6.39373">
        <ele>335.8</ele>
        <time>2023-10-11T14:26:28.000Z</time>
      </trkpt>
      <trkpt lat="43.53464" lon="6.39373">
        <ele>335.8</ele>
        <time>2023-10-11T14:26:29.000Z</time>
      </trkpt>
      <trkpt lat="43.53464" lon="6.39373">
        <ele>335.8</ele>
        <time>2023-10-11T14:26:33.000Z</time>
      </trkpt>
      <trkpt lat="43.53464" lon="6.39373">
        <ele>335.8</ele>
        <time>2023-10-11T14:26:34.000Z</time>
      </trkpt>
      <trkpt lat="43.53462" lon="6.39373">
        <ele>335.8</ele>
        <time>2023-10-11T14:26:38.000Z</time>
      </trkpt>
      <trkpt lat="43.53462" lon="6.39374">
        <ele>335.8</ele>
        <time>2023-10-11T14:26:39.000Z</time>
      </trkpt>
      <trkpt lat="43.53462" lon="6.39374">
        <ele>335.8</ele>
        <time>2023-10-11T14:26:41.000Z</time>
      </trkpt>
      <trkpt lat="43.53462" lon="6.39374">
        <ele>335.8</ele>
        <time>2023-10-11T14:26:43.000Z</time>
      </trkpt>
      <trkpt lat="43.53462" lon="6.39374">
        <ele>335.8</ele>
        <time>2023-10-11T14:26:44.000Z</time>
      </trkpt>
      <trkpt lat="43.53462" lon="6.39374">
        <ele>335.8</ele>
        <time>2023-10-11T14:26:48.000Z</time>
      </trkpt>
      <trkpt lat="43.53462" lon="6.39374">
        <ele>335.8</ele>
        <time>2023-10-11T14:26:49.000Z</time>
      </trkpt>
      <trkpt lat="43.53462" lon="6.39374">
        <ele>335.8</ele>
        <time>2023-10-11T14:26:52.000Z</time>
      </trkpt>
      <trkpt lat="43.53462" lon="6.39376">
        <ele>335.8</ele>
        <time>2023-10-11T14:26:59.000Z</time>
      </trkpt>
      <trkpt lat="43.53462" lon="6.39376">
        <ele>335.8</ele>
        <time>2023-10-11T14:27:01.000Z</time>
      </trkpt>
      <trkpt lat="43.53461" lon="6.39377">
        <ele>335.8</ele>
        <time>2023-10-11T14:27:09.000Z</time>
      </trkpt>
      <trkpt lat="43.53461" lon="6.39376">
        <ele>335.8</ele>
        <time>2023-10-11T14:27:13.000Z</time>
      </trkpt>
      <trkpt lat="43.53452" lon="6.3938">
        <ele>335.8</ele>
        <time>2023-10-11T14:27:27.000Z</time>
      </trkpt>
      <trkpt lat="43.53444" lon="6.39385">
        <ele>335.8</ele>
        <time>2023-10-11T14:27:37.000Z</time>
      </trkpt>
      <trkpt lat="43.5344" lon="6.39397">
        <ele>335.9</ele>
        <time>2023-10-11T14:27:50.000Z</time>
      </trkpt>
      <trkpt lat="43.5344" lon="6.39402">
        <ele>335.9</ele>
        <time>2023-10-11T14:27:57.000Z</time>
      </trkpt>
      <trkpt lat="43.5344" lon="6.39402">
        <ele>335.9</ele>
        <time>2023-10-11T14:27:58.000Z</time>
      </trkpt>
      <trkpt lat="43.5344" lon="6.39402">
        <ele>335.9</ele>
        <time>2023-10-11T14:28:00.000Z</time>
      </trkpt>
      <trkpt lat="43.5344" lon="6.39402">
        <ele>335.9</ele>
        <time>2023-10-11T14:28:02.000Z</time>
      </trkpt>
      <trkpt lat="43.53439" lon="6.39415">
        <ele>336</ele>
        <time>2023-10-11T14:28:24.000Z</time>
      </trkpt>
      <trkpt lat="43.53437" lon="6.39428">
        <ele>336</ele>
        <time>2023-10-11T14:28:34.000Z</time>
      </trkpt>
      <trkpt lat="43.53435" lon="6.3944">
        <ele>336</ele>
        <time>2023-10-11T14:28:46.000Z</time>
      </trkpt>
      <trkpt lat="43.53435" lon="6.3944">
        <ele>336.1</ele>
        <time>2023-10-11T14:28:49.000Z</time>
      </trkpt>
      <trkpt lat="43.53435" lon="6.39441">
        <ele>336.1</ele>
        <time>2023-10-11T14:28:50.000Z</time>
      </trkpt>
      <trkpt lat="43.53435" lon="6.39454">
        <ele>336.1</ele>
        <time>2023-10-11T14:29:01.000Z</time>
      </trkpt>
      <trkpt lat="43.53431" lon="6.39465">
        <ele>336</ele>
        <time>2023-10-11T14:29:13.000Z</time>
      </trkpt>
      <trkpt lat="43.53426" lon="6.39477">
        <ele>336</ele>
        <time>2023-10-11T14:29:25.000Z</time>
      </trkpt>
      <trkpt lat="43.53423" lon="6.39489">
        <ele>336</ele>
        <time>2023-10-11T14:29:34.000Z</time>
      </trkpt>
      <trkpt lat="43.53419" lon="6.395">
        <ele>335.8</ele>
        <time>2023-10-11T14:29:47.000Z</time>
      </trkpt>
      <trkpt lat="43.5342" lon="6.39501">
        <ele>335.8</ele>
        <time>2023-10-11T14:29:51.000Z</time>
      </trkpt>
      <trkpt lat="43.53421" lon="6.395">
        <ele>335.8</ele>
        <time>2023-10-11T14:29:53.000Z</time>
      </trkpt>
      <trkpt lat="43.53421" lon="6.395">
        <ele>335.8</ele>
        <time>2023-10-11T14:29:58.000Z</time>
      </trkpt>
      <trkpt lat="43.53421" lon="6.395">
        <ele>335.8</ele>
        <time>2023-10-11T14:30:00.000Z</time>
      </trkpt>
      <trkpt lat="43.53421" lon="6.395">
        <ele>335.8</ele>
        <time>2023-10-11T14:30:05.000Z</time>
      </trkpt>
      <trkpt lat="43.53421" lon="6.395">
        <ele>335.7</ele>
        <time>2023-10-11T14:30:14.000Z</time>
      </trkpt>
      <trkpt lat="43.53421" lon="6.395">
        <ele>335.7</ele>
        <time>2023-10-11T14:30:15.000Z</time>
      </trkpt>
      <trkpt lat="43.53421" lon="6.395">
        <ele>335.7</ele>
        <time>2023-10-11T14:30:16.000Z</time>
      </trkpt>
      <trkpt lat="43.53421" lon="6.395">
        <ele>335.7</ele>
        <time>2023-10-11T14:30:17.000Z</time>
      </trkpt>
      <trkpt lat="43.53422" lon="6.395">
        <ele>335.7</ele>
        <time>2023-10-11T14:30:20.000Z</time>
      </trkpt>
      <trkpt lat="43.53422" lon="6.395">
        <ele>335.7</ele>
        <time>2023-10-11T14:30:21.000Z</time>
      </trkpt>
      <trkpt lat="43.53422" lon="6.395">
        <ele>335.7</ele>
        <time>2023-10-11T14:30:33.000Z</time>
      </trkpt>
      <trkpt lat="43.53422" lon="6.395">
        <ele>335.7</ele>
        <time>2023-10-11T14:30:34.000Z</time>
      </trkpt>
      <trkpt lat="43.53422" lon="6.395">
        <ele>335.7</ele>
        <time>2023-10-11T14:30:37.000Z</time>
      </trkpt>
      <trkpt lat="43.53423" lon="6.395">
        <ele>335.7</ele>
        <time>2023-10-11T14:30:39.000Z</time>
      </trkpt>
      <trkpt lat="43.53423" lon="6.395">
        <ele>335.7</ele>
        <time>2023-10-11T14:30:40.000Z</time>
      </trkpt>
      <trkpt lat="43.53423" lon="6.395">
        <ele>335.7</ele>
        <time>2023-10-11T14:30:42.000Z</time>
      </trkpt>
      <trkpt lat="43.53423" lon="6.395">
        <ele>335.7</ele>
        <time>2023-10-11T14:31:03.000Z</time>
      </trkpt>
      <trkpt lat="43.53423" lon="6.395">
        <ele>335.7</ele>
        <time>2023-10-11T14:31:04.000Z</time>
      </trkpt>
      <trkpt lat="43.53423" lon="6.395">
        <ele>335.7</ele>
        <time>2023-10-11T14:31:08.000Z</time>
      </trkpt>
      <trkpt lat="43.53423" lon="6.395">
        <ele>335.7</ele>
        <time>2023-10-11T14:31:09.000Z</time>
      </trkpt>
      <trkpt lat="43.53423" lon="6.395">
        <ele>335.7</ele>
        <time>2023-10-11T14:31:11.000Z</time>
      </trkpt>
      <trkpt lat="43.53423" lon="6.395">
        <ele>335.7</ele>
        <time>2023-10-11T14:31:12.000Z</time>
      </trkpt>
      <trkpt lat="43.53423" lon="6.395">
        <ele>335.7</ele>
        <time>2023-10-11T14:31:20.000Z</time>
      </trkpt>
      <trkpt lat="43.53419" lon="6.39512">
        <ele>335.7</ele>
        <time>2023-10-11T14:31:32.000Z</time>
      </trkpt>
      <trkpt lat="43.53413" lon="6.39524">
        <ele>335.7</ele>
        <time>2023-10-11T14:31:42.000Z</time>
      </trkpt>
      <trkpt lat="43.53408" lon="6.39534">
        <ele>335.7</ele>
        <time>2023-10-11T14:31:51.000Z</time>
      </trkpt>
      <trkpt lat="43.5341" lon="6.39546">
        <ele>335.7</ele>
        <time>2023-10-11T14:32:00.000Z</time>
      </trkpt>
      <trkpt lat="43.53402" lon="6.39554">
        <ele>335.6</ele>
        <time>2023-10-11T14:32:08.000Z</time>
      </trkpt>
      <trkpt lat="43.53393" lon="6.39561">
        <ele>335.6</ele>
        <time>2023-10-11T14:32:15.000Z</time>
      </trkpt>
      <trkpt lat="43.53386" lon="6.3957">
        <ele>335.6</ele>
        <time>2023-10-11T14:32:25.000Z</time>
      </trkpt>
      <trkpt lat="43.53386" lon="6.3957">
        <ele>335.6</ele>
        <time>2023-10-11T14:32:26.000Z</time>
      </trkpt>
      <trkpt lat="43.53386" lon="6.3957">
        <ele>335.6</ele>
        <time>2023-10-11T14:32:27.000Z</time>
      </trkpt>
      <trkpt lat="43.53384" lon="6.39571">
        <ele>335.5</ele>
        <time>2023-10-11T14:32:44.000Z</time>
      </trkpt>
      <trkpt lat="43.53384" lon="6.39571">
        <ele>335.5</ele>
        <time>2023-10-11T14:32:46.000Z</time>
      </trkpt>
      <trkpt lat="43.53384" lon="6.39572">
        <ele>335.5</ele>
        <time>2023-10-11T14:32:49.000Z</time>
      </trkpt>
      <trkpt lat="43.53385" lon="6.39572">
        <ele>335.4</ele>
        <time>2023-10-11T14:32:53.000Z</time>
      </trkpt>
      <trkpt lat="43.53385" lon="6.39572">
        <ele>335.4</ele>
        <time>2023-10-11T14:32:54.000Z</time>
      </trkpt>
      <trkpt lat="43.53385" lon="6.39572">
        <ele>335.4</ele>
        <time>2023-10-11T14:32:57.000Z</time>
      </trkpt>
      <trkpt lat="43.53388" lon="6.39572">
        <ele>335.4</ele>
        <time>2023-10-11T14:33:04.000Z</time>
      </trkpt>
      <trkpt lat="43.53388" lon="6.39572">
        <ele>335.4</ele>
        <time>2023-10-11T14:33:05.000Z</time>
      </trkpt>
      <trkpt lat="43.53389" lon="6.39573">
        <ele>335.4</ele>
        <time>2023-10-11T14:33:07.000Z</time>
      </trkpt>
      <trkpt lat="43.53388" lon="6.39573">
        <ele>335.4</ele>
        <time>2023-10-11T14:33:13.000Z</time>
      </trkpt>
      <trkpt lat="43.53384" lon="6.39571">
        <ele>335.3</ele>
        <time>2023-10-11T14:33:24.000Z</time>
      </trkpt>
      <trkpt lat="43.53384" lon="6.39572">
        <ele>335.3</ele>
        <time>2023-10-11T14:33:25.000Z</time>
      </trkpt>
      <trkpt lat="43.53375" lon="6.39577">
        <ele>335.1</ele>
        <time>2023-10-11T14:33:49.000Z</time>
      </trkpt>
      <trkpt lat="43.53371" lon="6.39585">
        <ele>335</ele>
        <time>2023-10-11T14:34:04.000Z</time>
      </trkpt>
      <trkpt lat="43.53371" lon="6.39585">
        <ele>334.9</ele>
        <time>2023-10-11T14:34:05.000Z</time>
      </trkpt>
      <trkpt lat="43.53372" lon="6.39588">
        <ele>334.9</ele>
        <time>2023-10-11T14:34:10.000Z</time>
      </trkpt>
      <trkpt lat="43.53371" lon="6.39587">
        <ele>334.9</ele>
        <time>2023-10-11T14:34:12.000Z</time>
      </trkpt>
      <trkpt lat="43.53371" lon="6.39587">
        <ele>334.9</ele>
        <time>2023-10-11T14:34:15.000Z</time>
      </trkpt>
      <trkpt lat="43.53372" lon="6.39587">
        <ele>334.8</ele>
        <time>2023-10-11T14:34:22.000Z</time>
      </trkpt>
      <trkpt lat="43.53375" lon="6.39585">
        <ele>334.8</ele>
        <time>2023-10-11T14:34:29.000Z</time>
      </trkpt>
      <trkpt lat="43.53375" lon="6.39584">
        <ele>334.8</ele>
        <time>2023-10-11T14:34:30.000Z</time>
      </trkpt>
      <trkpt lat="43.53379" lon="6.39578">
        <ele>334.8</ele>
        <time>2023-10-11T14:34:44.000Z</time>
      </trkpt>
      <trkpt lat="43.53379" lon="6.39579">
        <ele>334.8</ele>
        <time>2023-10-11T14:34:45.000Z</time>
      </trkpt>
      <trkpt lat="43.5337" lon="6.39586">
        <ele>334.8</ele>
        <time>2023-10-11T14:34:54.000Z</time>
      </trkpt>
      <trkpt lat="43.53361" lon="6.39581">
        <ele>334.7</ele>
        <time>2023-10-11T14:35:05.000Z</time>
      </trkpt>
      <trkpt lat="43.53351" lon="6.3958">
        <ele>334.7</ele>
        <time>2023-10-11T14:35:16.000Z</time>
      </trkpt>
      <trkpt lat="43.53343" lon="6.39575">
        <ele>334.6</ele>
        <time>2023-10-11T14:35:23.000Z</time>
      </trkpt>
      <trkpt lat="43.53335" lon="6.39567">
        <ele>334.6</ele>
        <time>2023-10-11T14:35:32.000Z</time>
      </trkpt>
      <trkpt lat="43.53327" lon="6.39559">
        <ele>334.5</ele>
        <time>2023-10-11T14:35:40.000Z</time>
      </trkpt>
      <trkpt lat="43.53318" lon="6.39555">
        <ele>334.5</ele>
        <time>2023-10-11T14:35:52.000Z</time>
      </trkpt>
      <trkpt lat="43.53309" lon="6.39554">
        <ele>334.2</ele>
        <time>2023-10-11T14:36:08.000Z</time>
      </trkpt>
      <trkpt lat="43.53309" lon="6.39554">
        <ele>334.1</ele>
        <time>2023-10-11T14:36:09.000Z</time>
      </trkpt>
      <trkpt lat="43.53308" lon="6.39555">
        <ele>334.1</ele>
        <time>2023-10-11T14:36:10.000Z</time>
      </trkpt>
      <trkpt lat="43.53304" lon="6.39562">
        <ele>333</ele>
        <time>2023-10-11T14:36:22.000Z</time>
      </trkpt>
      <trkpt lat="43.53304" lon="6.39562">
        <ele>332.4</ele>
        <time>2023-10-11T14:36:25.000Z</time>
      </trkpt>
      <trkpt lat="43.53304" lon="6.39564">
        <ele>332</ele>
        <time>2023-10-11T14:36:29.000Z</time>
      </trkpt>
      <trkpt lat="43.53303" lon="6.39564">
        <ele>331.8</ele>
        <time>2023-10-11T14:36:32.000Z</time>
      </trkpt>
      <trkpt lat="43.53303" lon="6.39564">
        <ele>331.7</ele>
        <time>2023-10-11T14:36:33.000Z</time>
      </trkpt>
      <trkpt lat="43.53303" lon="6.39564">
        <ele>331.5</ele>
        <time>2023-10-11T14:36:36.000Z</time>
      </trkpt>
      <trkpt lat="43.53303" lon="6.39564">
        <ele>331.5</ele>
        <time>2023-10-11T14:36:37.000Z</time>
      </trkpt>
      <trkpt lat="43.53303" lon="6.39564">
        <ele>331.3</ele>
        <time>2023-10-11T14:36:40.000Z</time>
      </trkpt>
      <trkpt lat="43.53303" lon="6.39564">
        <ele>331.3</ele>
        <time>2023-10-11T14:36:41.000Z</time>
      </trkpt>
      <trkpt lat="43.53303" lon="6.39564">
        <ele>331</ele>
        <time>2023-10-11T14:36:46.000Z</time>
      </trkpt>
      <trkpt lat="43.53303" lon="6.39564">
        <ele>331</ele>
        <time>2023-10-11T14:36:47.000Z</time>
      </trkpt>
      <trkpt lat="43.53304" lon="6.39564">
        <ele>330.9</ele>
        <time>2023-10-11T14:36:53.000Z</time>
      </trkpt>
      <trkpt lat="43.53304" lon="6.39564">
        <ele>330.9</ele>
        <time>2023-10-11T14:36:54.000Z</time>
      </trkpt>
      <trkpt lat="43.53304" lon="6.39564">
        <ele>330.8</ele>
        <time>2023-10-11T14:37:00.000Z</time>
      </trkpt>
      <trkpt lat="43.53305" lon="6.39565">
        <ele>330.8</ele>
        <time>2023-10-11T14:37:05.000Z</time>
      </trkpt>
      <trkpt lat="43.53304" lon="6.39565">
        <ele>330.8</ele>
        <time>2023-10-11T14:37:09.000Z</time>
      </trkpt>
      <trkpt lat="43.53305" lon="6.39565">
        <ele>330.8</ele>
        <time>2023-10-11T14:37:13.000Z</time>
      </trkpt>
      <trkpt lat="43.53305" lon="6.39565">
        <ele>330.8</ele>
        <time>2023-10-11T14:37:19.000Z</time>
      </trkpt>
      <trkpt lat="43.53305" lon="6.39569">
        <ele>330.7</ele>
        <time>2023-10-11T14:37:34.000Z</time>
      </trkpt>
      <trkpt lat="43.53305" lon="6.39569">
        <ele>330.7</ele>
        <time>2023-10-11T14:37:36.000Z</time>
      </trkpt>
      <trkpt lat="43.53305" lon="6.39569">
        <ele>330.7</ele>
        <time>2023-10-11T14:37:37.000Z</time>
      </trkpt>
      <trkpt lat="43.53305" lon="6.39568">
        <ele>330.6</ele>
        <time>2023-10-11T14:37:43.000Z</time>
      </trkpt>
      <trkpt lat="43.53305" lon="6.39568">
        <ele>330.6</ele>
        <time>2023-10-11T14:37:44.000Z</time>
      </trkpt>
      <trkpt lat="43.53305" lon="6.39568">
        <ele>330.6</ele>
        <time>2023-10-11T14:37:45.000Z</time>
      </trkpt>
      <trkpt lat="43.53311" lon="6.39578">
        <ele>330.3</ele>
        <time>2023-10-11T14:37:56.000Z</time>
      </trkpt>
      <trkpt lat="43.53316" lon="6.39588">
        <ele>329.6</ele>
        <time>2023-10-11T14:38:07.000Z</time>
      </trkpt>
      <trkpt lat="43.5332" lon="6.39599">
        <ele>328.6</ele>
        <time>2023-10-11T14:38:16.000Z</time>
      </trkpt>
      <trkpt lat="43.53327" lon="6.39608">
        <ele>327.4</ele>
        <time>2023-10-11T14:38:29.000Z</time>
      </trkpt>
      <trkpt lat="43.53336" lon="6.39616">
        <ele>326.8</ele>
        <time>2023-10-11T14:38:38.000Z</time>
      </trkpt>
      <trkpt lat="43.53344" lon="6.39621">
        <ele>326.2</ele>
        <time>2023-10-11T14:38:49.000Z</time>
      </trkpt>
      <trkpt lat="43.53353" lon="6.39627">
        <ele>325.9</ele>
        <time>2023-10-11T14:38:57.000Z</time>
      </trkpt>
      <trkpt lat="43.53362" lon="6.39629">
        <ele>325.7</ele>
        <time>2023-10-11T14:39:07.000Z</time>
      </trkpt>
      <trkpt lat="43.5337" lon="6.39636">
        <ele>325.5</ele>
        <time>2023-10-11T14:39:17.000Z</time>
      </trkpt>
      <trkpt lat="43.53377" lon="6.39644">
        <ele>325.4</ele>
        <time>2023-10-11T14:39:24.000Z</time>
      </trkpt>
      <trkpt lat="43.53383" lon="6.39655">
        <ele>325.3</ele>
        <time>2023-10-11T14:39:31.000Z</time>
      </trkpt>
      <trkpt lat="43.53387" lon="6.39666">
        <ele>325.3</ele>
        <time>2023-10-11T14:39:42.000Z</time>
      </trkpt>
      <trkpt lat="43.53393" lon="6.39669">
        <ele>325.6</ele>
        <time>2023-10-11T14:40:07.000Z</time>
      </trkpt>
      <trkpt lat="43.53393" lon="6.39669">
        <ele>325.6</ele>
        <time>2023-10-11T14:40:08.000Z</time>
      </trkpt>
      <trkpt lat="43.53393" lon="6.39669">
        <ele>325.7</ele>
        <time>2023-10-11T14:40:11.000Z</time>
      </trkpt>
      <trkpt lat="43.53393" lon="6.39668">
        <ele>325.7</ele>
        <time>2023-10-11T14:40:12.000Z</time>
      </trkpt>
      <trkpt lat="43.53393" lon="6.39668">
        <ele>325.8</ele>
        <time>2023-10-11T14:40:13.000Z</time>
      </trkpt>
      <trkpt lat="43.53393" lon="6.39669">
        <ele>325.9</ele>
        <time>2023-10-11T14:40:16.000Z</time>
      </trkpt>
      <trkpt lat="43.53393" lon="6.39669">
        <ele>325.9</ele>
        <time>2023-10-11T14:40:19.000Z</time>
      </trkpt>
      <trkpt lat="43.53393" lon="6.39669">
        <ele>326</ele>
        <time>2023-10-11T14:40:22.000Z</time>
      </trkpt>
      <trkpt lat="43.53399" lon="6.39679">
        <ele>326.4</ele>
        <time>2023-10-11T14:40:45.000Z</time>
      </trkpt>
      <trkpt lat="43.53388" lon="6.39681">
        <ele>327</ele>
        <time>2023-10-11T14:40:54.000Z</time>
      </trkpt>
      <trkpt lat="43.53381" lon="6.39691">
        <ele>328.7</ele>
        <time>2023-10-11T14:41:07.000Z</time>
      </trkpt>
      <trkpt lat="43.53383" lon="6.39704">
        <ele>330.1</ele>
        <time>2023-10-11T14:41:16.000Z</time>
      </trkpt>
      <trkpt lat="43.53391" lon="6.3971">
        <ele>331.1</ele>
        <time>2023-10-11T14:41:25.000Z</time>
      </trkpt>
      <trkpt lat="43.53397" lon="6.39719">
        <ele>332.6</ele>
        <time>2023-10-11T14:41:36.000Z</time>
      </trkpt>
      <trkpt lat="43.53393" lon="6.3973">
        <ele>334.4</ele>
        <time>2023-10-11T14:41:50.000Z</time>
      </trkpt>
      <trkpt lat="43.53384" lon="6.39735">
        <ele>335.7</ele>
        <time>2023-10-11T14:41:59.000Z</time>
      </trkpt>
      <trkpt lat="43.53375" lon="6.39737">
        <ele>336.6</ele>
        <time>2023-10-11T14:42:08.000Z</time>
      </trkpt>
      <trkpt lat="43.53368" lon="6.39748">
        <ele>336.9</ele>
        <time>2023-10-11T14:42:17.000Z</time>
      </trkpt>
      <trkpt lat="43.53367" lon="6.3976">
        <ele>336.9</ele>
        <time>2023-10-11T14:42:26.000Z</time>
      </trkpt>
      <trkpt lat="43.53369" lon="6.39765">
        <ele>336.8</ele>
        <time>2023-10-11T14:42:38.000Z</time>
      </trkpt>
      <trkpt lat="43.5338" lon="6.39807">
        <ele>336.2</ele>
        <time>2023-10-11T14:54:39.000Z</time>
      </trkpt>
      <trkpt lat="43.53386" lon="6.39817">
        <ele>335.3</ele>
        <time>2023-10-11T14:54:52.000Z</time>
      </trkpt>
      <trkpt lat="43.53392" lon="6.39827">
        <ele>334</ele>
        <time>2023-10-11T14:54:59.000Z</time>
      </trkpt>
      <trkpt lat="43.53386" lon="6.39837">
        <ele>332.6</ele>
        <time>2023-10-11T14:55:07.000Z</time>
      </trkpt>
      <trkpt lat="43.53377" lon="6.39843">
        <ele>332</ele>
        <time>2023-10-11T14:55:17.000Z</time>
      </trkpt>
      <trkpt lat="43.53371" lon="6.39852">
        <ele>330.9</ele>
        <time>2023-10-11T14:55:41.000Z</time>
      </trkpt>
      <trkpt lat="43.53365" lon="6.39862">
        <ele>329.8</ele>
        <time>2023-10-11T14:55:52.000Z</time>
      </trkpt>
      <trkpt lat="43.53369" lon="6.39865">
        <ele>328.5</ele>
        <time>2023-10-11T14:56:09.000Z</time>
      </trkpt>
      <trkpt lat="43.5337" lon="6.39865">
        <ele>328.5</ele>
        <time>2023-10-11T14:56:10.000Z</time>
      </trkpt>
      <trkpt lat="43.5337" lon="6.39863">
        <ele>328.4</ele>
        <time>2023-10-11T14:56:15.000Z</time>
      </trkpt>
      <trkpt lat="43.5337" lon="6.39863">
        <ele>328.3</ele>
        <time>2023-10-11T14:56:16.000Z</time>
      </trkpt>
      <trkpt lat="43.53369" lon="6.39863">
        <ele>328.3</ele>
        <time>2023-10-11T14:56:19.000Z</time>
      </trkpt>
      <trkpt lat="43.53367" lon="6.39863">
        <ele>328.3</ele>
        <time>2023-10-11T14:56:20.000Z</time>
      </trkpt>
      <trkpt lat="43.53367" lon="6.39862">
        <ele>328.2</ele>
        <time>2023-10-11T14:56:24.000Z</time>
      </trkpt>
      <trkpt lat="43.53367" lon="6.39863">
        <ele>328.2</ele>
        <time>2023-10-11T14:56:25.000Z</time>
      </trkpt>
      <trkpt lat="43.5337" lon="6.39876">
        <ele>327.7</ele>
        <time>2023-10-11T14:56:36.000Z</time>
      </trkpt>
      <trkpt lat="43.53375" lon="6.3988">
        <ele>327.3</ele>
        <time>2023-10-11T14:56:50.000Z</time>
      </trkpt>
      <trkpt lat="43.53375" lon="6.3988">
        <ele>327.3</ele>
        <time>2023-10-11T14:56:51.000Z</time>
      </trkpt>
      <trkpt lat="43.53374" lon="6.3988">
        <ele>327.1</ele>
        <time>2023-10-11T14:56:59.000Z</time>
      </trkpt>
      <trkpt lat="43.53375" lon="6.39879">
        <ele>327.1</ele>
        <time>2023-10-11T14:57:00.000Z</time>
      </trkpt>
      <trkpt lat="43.53371" lon="6.39885">
        <ele>326.9</ele>
        <time>2023-10-11T14:57:13.000Z</time>
      </trkpt>
      <trkpt lat="43.5337" lon="6.39885">
        <ele>326.9</ele>
        <time>2023-10-11T14:57:14.000Z</time>
      </trkpt>
      <trkpt lat="43.5337" lon="6.39885">
        <ele>326.9</ele>
        <time>2023-10-11T14:57:16.000Z</time>
      </trkpt>
      <trkpt lat="43.5337" lon="6.39885">
        <ele>326.9</ele>
        <time>2023-10-11T14:57:17.000Z</time>
      </trkpt>
      <trkpt lat="43.53371" lon="6.39886">
        <ele>326.8</ele>
        <time>2023-10-11T14:57:22.000Z</time>
      </trkpt>
      <trkpt lat="43.53371" lon="6.39887">
        <ele>326.8</ele>
        <time>2023-10-11T14:57:23.000Z</time>
      </trkpt>
      <trkpt lat="43.53361" lon="6.39884">
        <ele>326.6</ele>
        <time>2023-10-11T14:57:33.000Z</time>
      </trkpt>
      <trkpt lat="43.53352" lon="6.39884">
        <ele>326.4</ele>
        <time>2023-10-11T14:57:39.000Z</time>
      </trkpt>
      <trkpt lat="43.53351" lon="6.39885">
        <ele>326.3</ele>
        <time>2023-10-11T14:57:42.000Z</time>
      </trkpt>
      <trkpt lat="43.53351" lon="6.39885">
        <ele>326.2</ele>
        <time>2023-10-11T14:57:44.000Z</time>
      </trkpt>
      <trkpt lat="43.53351" lon="6.39885">
        <ele>326.2</ele>
        <time>2023-10-11T14:57:45.000Z</time>
      </trkpt>
      <trkpt lat="43.53351" lon="6.39885">
        <ele>326.2</ele>
        <time>2023-10-11T14:57:46.000Z</time>
      </trkpt>
      <trkpt lat="43.53349" lon="6.39884">
        <ele>326</ele>
        <time>2023-10-11T14:57:50.000Z</time>
      </trkpt>
      <trkpt lat="43.53349" lon="6.39885">
        <ele>326</ele>
        <time>2023-10-11T14:57:51.000Z</time>
      </trkpt>
      <trkpt lat="43.53344" lon="6.39889">
        <ele>325.2</ele>
        <time>2023-10-11T14:58:29.000Z</time>
      </trkpt>
      <trkpt lat="43.53344" lon="6.39889">
        <ele>325.2</ele>
        <time>2023-10-11T14:58:31.000Z</time>
      </trkpt>
      <trkpt lat="43.53344" lon="6.39889">
        <ele>325.2</ele>
        <time>2023-10-11T14:58:32.000Z</time>
      </trkpt>
      <trkpt lat="43.53344" lon="6.3989">
        <ele>325.2</ele>
        <time>2023-10-11T14:58:33.000Z</time>
      </trkpt>
      <trkpt lat="43.53344" lon="6.3989">
        <ele>325.1</ele>
        <time>2023-10-11T14:58:36.000Z</time>
      </trkpt>
      <trkpt lat="43.53344" lon="6.39891">
        <ele>325.1</ele>
        <time>2023-10-11T14:58:39.000Z</time>
      </trkpt>
      <trkpt lat="43.53346" lon="6.39893">
        <ele>325</ele>
        <time>2023-10-11T14:58:43.000Z</time>
      </trkpt>
      <trkpt lat="43.53345" lon="6.39893">
        <ele>325</ele>
        <time>2023-10-11T14:58:44.000Z</time>
      </trkpt>
      <trkpt lat="43.53343" lon="6.39886">
        <ele>324.9</ele>
        <time>2023-10-11T14:58:56.000Z</time>
      </trkpt>
      <trkpt lat="43.53342" lon="6.39886">
        <ele>324.9</ele>
        <time>2023-10-11T14:58:57.000Z</time>
      </trkpt>
      <trkpt lat="43.53336" lon="6.3989">
        <ele>324.7</ele>
        <time>2023-10-11T14:59:18.000Z</time>
      </trkpt>
      <trkpt lat="43.53337" lon="6.3989">
        <ele>324.7</ele>
        <time>2023-10-11T14:59:19.000Z</time>
      </trkpt>
      <trkpt lat="43.53334" lon="6.39903">
        <ele>324</ele>
        <time>2023-10-11T14:59:36.000Z</time>
      </trkpt>
      <trkpt lat="43.53334" lon="6.39916">
        <ele>322.6</ele>
        <time>2023-10-11T14:59:49.000Z</time>
      </trkpt>
      <trkpt lat="43.53326" lon="6.39924">
        <ele>320.5</ele>
        <time>2023-10-11T15:00:00.000Z</time>
      </trkpt>
      <trkpt lat="43.53325" lon="6.39923">
        <ele>319.9</ele>
        <time>2023-10-11T15:00:04.000Z</time>
      </trkpt>
      <trkpt lat="43.53325" lon="6.39923">
        <ele>319.6</ele>
        <time>2023-10-11T15:00:06.000Z</time>
      </trkpt>
      <trkpt lat="43.53325" lon="6.39936">
        <ele>317</ele>
        <time>2023-10-11T15:00:30.000Z</time>
      </trkpt>
      <trkpt lat="43.53334" lon="6.3994">
        <ele>316.4</ele>
        <time>2023-10-11T15:00:39.000Z</time>
      </trkpt>
      <trkpt lat="43.53343" lon="6.39944">
        <ele>315.8</ele>
        <time>2023-10-11T15:00:50.000Z</time>
      </trkpt>
      <trkpt lat="43.53352" lon="6.3995">
        <ele>315.3</ele>
        <time>2023-10-11T15:00:59.000Z</time>
      </trkpt>
      <trkpt lat="43.53362" lon="6.39948">
        <ele>314.7</ele>
        <time>2023-10-11T15:01:09.000Z</time>
      </trkpt>
      <trkpt lat="43.53371" lon="6.39944">
        <ele>314.2</ele>
        <time>2023-10-11T15:01:17.000Z</time>
      </trkpt>
      <trkpt lat="43.5338" lon="6.39947">
        <ele>313.7</ele>
        <time>2023-10-11T15:01:27.000Z</time>
      </trkpt>
      <trkpt lat="43.53389" lon="6.39944">
        <ele>313.2</ele>
        <time>2023-10-11T15:01:38.000Z</time>
      </trkpt>
      <trkpt lat="43.53388" lon="6.39942">
        <ele>312.9</ele>
        <time>2023-10-11T15:01:45.000Z</time>
      </trkpt>
      <trkpt lat="43.53388" lon="6.39942">
        <ele>312.8</ele>
        <time>2023-10-11T15:01:47.000Z</time>
      </trkpt>
      <trkpt lat="43.53388" lon="6.39942">
        <ele>312.8</ele>
        <time>2023-10-11T15:01:48.000Z</time>
      </trkpt>
      <trkpt lat="43.53388" lon="6.39942">
        <ele>312.7</ele>
        <time>2023-10-11T15:01:53.000Z</time>
      </trkpt>
      <trkpt lat="43.53388" lon="6.39942">
        <ele>312.7</ele>
        <time>2023-10-11T15:01:54.000Z</time>
      </trkpt>
      <trkpt lat="43.53388" lon="6.39942">
        <ele>312.6</ele>
        <time>2023-10-11T15:02:00.000Z</time>
      </trkpt>
      <trkpt lat="43.53389" lon="6.39942">
        <ele>312.6</ele>
        <time>2023-10-11T15:02:05.000Z</time>
      </trkpt>
      <trkpt lat="43.53389" lon="6.39941">
        <ele>312.6</ele>
        <time>2023-10-11T15:02:06.000Z</time>
      </trkpt>
      <trkpt lat="43.53389" lon="6.3994">
        <ele>312.6</ele>
        <time>2023-10-11T15:02:10.000Z</time>
      </trkpt>
      <trkpt lat="43.53389" lon="6.3994">
        <ele>312.6</ele>
        <time>2023-10-11T15:02:12.000Z</time>
      </trkpt>
      <trkpt lat="43.53398" lon="6.39947">
        <ele>312.5</ele>
        <time>2023-10-11T15:02:24.000Z</time>
      </trkpt>
      <trkpt lat="43.53405" lon="6.39954">
        <ele>312.1</ele>
        <time>2023-10-11T15:02:34.000Z</time>
      </trkpt>
      <trkpt lat="43.53414" lon="6.39962">
        <ele>311.3</ele>
        <time>2023-10-11T15:02:41.000Z</time>
      </trkpt>
      <trkpt lat="43.53423" lon="6.39964">
        <ele>310.2</ele>
        <time>2023-10-11T15:02:49.000Z</time>
      </trkpt>
      <trkpt lat="43.53428" lon="6.39961">
        <ele>309.4</ele>
        <time>2023-10-11T15:02:59.000Z</time>
      </trkpt>
      <trkpt lat="43.53428" lon="6.39961">
        <ele>309.2</ele>
        <time>2023-10-11T15:03:05.000Z</time>
      </trkpt>
      <trkpt lat="43.53428" lon="6.39959">
        <ele>309.2</ele>
        <time>2023-10-11T15:03:09.000Z</time>
      </trkpt>
      <trkpt lat="43.53428" lon="6.39959">
        <ele>309.1</ele>
        <time>2023-10-11T15:03:13.000Z</time>
      </trkpt>
      <trkpt lat="43.53429" lon="6.39958">
        <ele>309.1</ele>
        <time>2023-10-11T15:03:19.000Z</time>
      </trkpt>
      <trkpt lat="43.53429" lon="6.39958">
        <ele>309.1</ele>
        <time>2023-10-11T15:03:22.000Z</time>
      </trkpt>
      <trkpt lat="43.53429" lon="6.39957">
        <ele>309</ele>
        <time>2023-10-11T15:03:25.000Z</time>
      </trkpt>
      <trkpt lat="43.53429" lon="6.39956">
        <ele>309</ele>
        <time>2023-10-11T15:03:26.000Z</time>
      </trkpt>
      <trkpt lat="43.53429" lon="6.39956">
        <ele>309</ele>
        <time>2023-10-11T15:03:28.000Z</time>
      </trkpt>
      <trkpt lat="43.53428" lon="6.39956">
        <ele>309</ele>
        <time>2023-10-11T15:03:31.000Z</time>
      </trkpt>
      <trkpt lat="43.53428" lon="6.39956">
        <ele>309</ele>
        <time>2023-10-11T15:03:34.000Z</time>
      </trkpt>
      <trkpt lat="43.53428" lon="6.39956">
        <ele>309</ele>
        <time>2023-10-11T15:03:36.000Z</time>
      </trkpt>
      <trkpt lat="43.53429" lon="6.39954">
        <ele>309</ele>
        <time>2023-10-11T15:03:40.000Z</time>
      </trkpt>
      <trkpt lat="43.53429" lon="6.39954">
        <ele>309</ele>
        <time>2023-10-11T15:03:42.000Z</time>
      </trkpt>
      <trkpt lat="43.53429" lon="6.39954">
        <ele>308.9</ele>
        <time>2023-10-11T15:03:44.000Z</time>
      </trkpt>
      <trkpt lat="43.53429" lon="6.39954">
        <ele>308.9</ele>
        <time>2023-10-11T15:03:46.000Z</time>
      </trkpt>
      <trkpt lat="43.53436" lon="6.39962">
        <ele>309</ele>
        <time>2023-10-11T15:03:55.000Z</time>
      </trkpt>
      <trkpt lat="43.53443" lon="6.39962">
        <ele>309.2</ele>
        <time>2023-10-11T15:04:06.000Z</time>
      </trkpt>
      <trkpt lat="43.53443" lon="6.39962">
        <ele>309.2</ele>
        <time>2023-10-11T15:04:09.000Z</time>
      </trkpt>
      <trkpt lat="43.53452" lon="6.39966">
        <ele>309.3</ele>
        <time>2023-10-11T15:04:21.000Z</time>
      </trkpt>
      <trkpt lat="43.53462" lon="6.39964">
        <ele>309</ele>
        <time>2023-10-11T15:04:35.000Z</time>
      </trkpt>
      <trkpt lat="43.53471" lon="6.3996">
        <ele>308.5</ele>
        <time>2023-10-11T15:04:45.000Z</time>
      </trkpt>
      <trkpt lat="43.53481" lon="6.39956">
        <ele>308.2</ele>
        <time>2023-10-11T15:04:55.000Z</time>
      </trkpt>
      <trkpt lat="43.53476" lon="6.39945">
        <ele>308.2</ele>
        <time>2023-10-11T15:05:04.000Z</time>
      </trkpt>
      <trkpt lat="43.53471" lon="6.39935">
        <ele>308.3</ele>
        <time>2023-10-11T15:05:16.000Z</time>
      </trkpt>
      <trkpt lat="43.53471" lon="6.39936">
        <ele>308.3</ele>
        <time>2023-10-11T15:05:17.000Z</time>
      </trkpt>
      <trkpt lat="43.53467" lon="6.39924">
        <ele>308.4</ele>
        <time>2023-10-11T15:05:27.000Z</time>
      </trkpt>
      <trkpt lat="43.53459" lon="6.39917">
        <ele>308.5</ele>
        <time>2023-10-11T15:05:35.000Z</time>
      </trkpt>
      <trkpt lat="43.53449" lon="6.39916">
        <ele>308.6</ele>
        <time>2023-10-11T15:05:43.000Z</time>
      </trkpt>
      <trkpt lat="43.53448" lon="6.39917">
        <ele>308.6</ele>
        <time>2023-10-11T15:05:47.000Z</time>
      </trkpt>
      <trkpt lat="43.53448" lon="6.39917">
        <ele>308.6</ele>
        <time>2023-10-11T15:05:48.000Z</time>
      </trkpt>
      <trkpt lat="43.53454" lon="6.39922">
        <ele>308.7</ele>
        <time>2023-10-11T15:06:02.000Z</time>
      </trkpt>
      <trkpt lat="43.53454" lon="6.39922">
        <ele>308.7</ele>
        <time>2023-10-11T15:06:03.000Z</time>
      </trkpt>
      <trkpt lat="43.53454" lon="6.39923">
        <ele>308.7</ele>
        <time>2023-10-11T15:06:04.000Z</time>
      </trkpt>
      <trkpt lat="43.53455" lon="6.39923">
        <ele>308.7</ele>
        <time>2023-10-11T15:06:06.000Z</time>
      </trkpt>
      <trkpt lat="43.53455" lon="6.3992">
        <ele>308.7</ele>
        <time>2023-10-11T15:06:12.000Z</time>
      </trkpt>
      <trkpt lat="43.53455" lon="6.3992">
        <ele>308.7</ele>
        <time>2023-10-11T15:06:13.000Z</time>
      </trkpt>
      <trkpt lat="43.53455" lon="6.3992">
        <ele>308.7</ele>
        <time>2023-10-11T15:06:14.000Z</time>
      </trkpt>
      <trkpt lat="43.53455" lon="6.3992">
        <ele>308.7</ele>
        <time>2023-10-11T15:06:19.000Z</time>
      </trkpt>
      <trkpt lat="43.53455" lon="6.3992">
        <ele>308.7</ele>
        <time>2023-10-11T15:06:21.000Z</time>
      </trkpt>
      <trkpt lat="43.53455" lon="6.3992">
        <ele>308.7</ele>
        <time>2023-10-11T15:06:23.000Z</time>
      </trkpt>
      <trkpt lat="43.53455" lon="6.3992">
        <ele>308.7</ele>
        <time>2023-10-11T15:06:24.000Z</time>
      </trkpt>
      <trkpt lat="43.53454" lon="6.3992">
        <ele>308.8</ele>
        <time>2023-10-11T15:06:29.000Z</time>
      </trkpt>
      <trkpt lat="43.53454" lon="6.3992">
        <ele>308.8</ele>
        <time>2023-10-11T15:06:30.000Z</time>
      </trkpt>
      <trkpt lat="43.53455" lon="6.39919">
        <ele>308.8</ele>
        <time>2023-10-11T15:06:32.000Z</time>
      </trkpt>
      <trkpt lat="43.53452" lon="6.39917">
        <ele>308.8</ele>
        <time>2023-10-11T15:06:44.000Z</time>
      </trkpt>
      <trkpt lat="43.53452" lon="6.39917">
        <ele>308.8</ele>
        <time>2023-10-11T15:06:46.000Z</time>
      </trkpt>
      <trkpt lat="43.53452" lon="6.39917">
        <ele>308.8</ele>
        <time>2023-10-11T15:06:47.000Z</time>
      </trkpt>
      <trkpt lat="43.53452" lon="6.39917">
        <ele>308.8</ele>
        <time>2023-10-11T15:06:48.000Z</time>
      </trkpt>
      <trkpt lat="43.53452" lon="6.39916">
        <ele>308.8</ele>
        <time>2023-10-11T15:06:51.000Z</time>
      </trkpt>
      <trkpt lat="43.53452" lon="6.39916">
        <ele>308.8</ele>
        <time>2023-10-11T15:06:52.000Z</time>
      </trkpt>
      <trkpt lat="43.53451" lon="6.39915">
        <ele>308.9</ele>
        <time>2023-10-11T15:06:55.000Z</time>
      </trkpt>
      <trkpt lat="43.53451" lon="6.39915">
        <ele>308.9</ele>
        <time>2023-10-11T15:06:59.000Z</time>
      </trkpt>
      <trkpt lat="43.53452" lon="6.39917">
        <ele>309</ele>
        <time>2023-10-11T15:07:08.000Z</time>
      </trkpt>
      <trkpt lat="43.53452" lon="6.39918">
        <ele>309</ele>
        <time>2023-10-11T15:07:09.000Z</time>
      </trkpt>
      <trkpt lat="43.53452" lon="6.39918">
        <ele>309</ele>
        <time>2023-10-11T15:07:11.000Z</time>
      </trkpt>
      <trkpt lat="43.53452" lon="6.39919">
        <ele>309</ele>
        <time>2023-10-11T15:07:32.000Z</time>
      </trkpt>
      <trkpt lat="43.53451" lon="6.39919">
        <ele>309</ele>
        <time>2023-10-11T15:07:34.000Z</time>
      </trkpt>
      <trkpt lat="43.53452" lon="6.39919">
        <ele>309</ele>
        <time>2023-10-11T15:07:41.000Z</time>
      </trkpt>
      <trkpt lat="43.5345" lon="6.39919">
        <ele>309</ele>
        <time>2023-10-11T15:07:45.000Z</time>
      </trkpt>
      <trkpt lat="43.5345" lon="6.39919">
        <ele>309</ele>
        <time>2023-10-11T15:07:46.000Z</time>
      </trkpt>
      <trkpt lat="43.53455" lon="6.39923">
        <ele>309</ele>
        <time>2023-10-11T15:07:54.000Z</time>
      </trkpt>
      <trkpt lat="43.53455" lon="6.39922">
        <ele>309</ele>
        <time>2023-10-11T15:07:55.000Z</time>
      </trkpt>
      <trkpt lat="43.53454" lon="6.39922">
        <ele>309</ele>
        <time>2023-10-11T15:07:59.000Z</time>
      </trkpt>
      <trkpt lat="43.53454" lon="6.39922">
        <ele>309</ele>
        <time>2023-10-11T15:08:04.000Z</time>
      </trkpt>
      <trkpt lat="43.53454" lon="6.39922">
        <ele>309</ele>
        <time>2023-10-11T15:08:05.000Z</time>
      </trkpt>
      <trkpt lat="43.53455" lon="6.39922">
        <ele>308.9</ele>
        <time>2023-10-11T15:08:18.000Z</time>
      </trkpt>
      <trkpt lat="43.53456" lon="6.39923">
        <ele>308.9</ele>
        <time>2023-10-11T15:08:20.000Z</time>
      </trkpt>
      <trkpt lat="43.53456" lon="6.39923">
        <ele>309</ele>
        <time>2023-10-11T15:08:30.000Z</time>
      </trkpt>
      <trkpt lat="43.53456" lon="6.39923">
        <ele>309</ele>
        <time>2023-10-11T15:08:31.000Z</time>
      </trkpt>
      <trkpt lat="43.53456" lon="6.39923">
        <ele>309</ele>
        <time>2023-10-11T15:08:42.000Z</time>
      </trkpt>
      <trkpt lat="43.53456" lon="6.39923">
        <ele>309</ele>
        <time>2023-10-11T15:08:43.000Z</time>
      </trkpt>
      <trkpt lat="43.53456" lon="6.39923">
        <ele>309</ele>
        <time>2023-10-11T15:08:44.000Z</time>
      </trkpt>
      <trkpt lat="43.53456" lon="6.39922">
        <ele>309</ele>
        <time>2023-10-11T15:08:47.000Z</time>
      </trkpt>
      <trkpt lat="43.53456" lon="6.39922">
        <ele>309</ele>
        <time>2023-10-11T15:08:48.000Z</time>
      </trkpt>
      <trkpt lat="43.53456" lon="6.39921">
        <ele>309</ele>
        <time>2023-10-11T15:08:53.000Z</time>
      </trkpt>
      <trkpt lat="43.53455" lon="6.39921">
        <ele>309</ele>
        <time>2023-10-11T15:08:54.000Z</time>
      </trkpt>
      <trkpt lat="43.53455" lon="6.39921">
        <ele>309</ele>
        <time>2023-10-11T15:08:56.000Z</time>
      </trkpt>
      <trkpt lat="43.53455" lon="6.39921">
        <ele>309</ele>
        <time>2023-10-11T15:08:57.000Z</time>
      </trkpt>
      <trkpt lat="43.53451" lon="6.39922">
        <ele>309</ele>
        <time>2023-10-11T15:09:05.000Z</time>
      </trkpt>
      <trkpt lat="43.53451" lon="6.39922">
        <ele>309</ele>
        <time>2023-10-11T15:09:07.000Z</time>
      </trkpt>
      <trkpt lat="43.5345" lon="6.39926">
        <ele>309</ele>
        <time>2023-10-11T15:09:33.000Z</time>
      </trkpt>
      <trkpt lat="43.53449" lon="6.39926">
        <ele>309</ele>
        <time>2023-10-11T15:09:34.000Z</time>
      </trkpt>
      <trkpt lat="43.53449" lon="6.39926">
        <ele>309</ele>
        <time>2023-10-11T15:09:35.000Z</time>
      </trkpt>
    </trkseg>
  </trk>
</gpx>